[[{"header":{"parameterUnit":"m.s-1","parameterCategory":1,"la1":30.6,"la2":28.766,"lo1":-90.7593,"lo2":-88.6598,"dy":0.0162,"dx":0.0183,"nx":116,"ny":114,"refTime":"2024-05-23T06:00:00:Z","depth":0,"parameterNumber":2,"parameterNumberName":"U-component_of_WINDS"},"data":[0.0,0.0,0.0,0.0,0.0,0.0,0.0,0.0,0.0,0.0,0.0,0.0,0.0,0.0,0.0,0.0,0.0,0.0,0.0,0.0,0.0,0.0,0.0,0.0,0.0,0.0,0.0,0.0,0.0,0.0,0.0,0.0,0.0,0.0,0.0,0.0,0.0,0.0,0.0,0.0,0.0,0.0,0.0,0.0,0.0,0.0,0.0,0.0,0.0,0.0,0.0,0.0,0.0,0.0,0.0,0.0,0.0,0.0,0.0,0.0,0.0,0.0,0.0,0.0,0.0,0.0,0.0,0.0,0.0,0.0,0.0,0.0,0.0,0.0,0.0,0.0,0.0,0.0,0.0,0.0,0.0,0.0,0.0,0.0,0.0,0.0,0.0,0.0,0.0,0.0,0.0,0.0,0.0,0.0,0.0,0.0,0.0,0.0,0.0,0.0,0.0,0.0,0.0,0.0,0.0,0.0,0.0,0.0,0.0,0.0,0.0,0.0,0.0,0.0,0.0,0.0,0.0,0.0,0.0,0.0,0.0,0.0,0.0,0.0,0.0,0.0,0.0,0.0,0.0,0.0,0.0,0.0,0.0,0.0,0.0,0.0,0.0,0.0,0.0,0.0,0.0,0.0,0.0,0.0,0.0,0.0,0.0,0.0,0.0,0.0,0.0,0.0,0.0,0.0,0.0,0.0,0.0,0.0,0.0,0.0,0.0,0.0,0.0,0.0,0.0,0.0,0.0,0.0,0.0,0.0,0.0,0.0,0.0,0.0,0.0,0.0,0.0,0.0,0.0,0.0,0.0,0.0,0.0,0.0,0.0,0.0,0.0,0.0,0.0,0.0,0.0,0.0,0.0,0.0,0.0,0.0,0.0,0.0,0.0,0.0,0.0,0.0,0.0,0.0,0.0,0.0,0.0,0.0,0.0,0.0,0.0,0.0,0.0,0.0,0.0,0.0,0.0,0.0,0.0,0.0,0.0,0.0,0.0,0.0,0.0,0.0,0.0,0.0,0.0,0.0,0.0,0.0,0.0,0.0,0.0,0.0,0.0,0.0,0.0,0.0,0.0,0.0,0.0,0.0,0.0,0.0,0.0,0.0,0.0,0.0,0.0,0.0,0.0,0.0,0.0,0.0,0.0,0.0,0.0,0.0,0.0,0.0,0.0,0.0,0.0,0.0,0.0,0.0,0.0,0.0,0.0,0.0,0.0,0.0,0.0,0.0,0.0,0.0,0.0,0.0,0.0,0.0,0.0,0.0,0.0,0.0,0.0,0.0,0.0,0.0,0.0,0.0,0.0,0.0,0.0,0.0,0.0,0.0,0.0,0.0,0.0,0.0,0.0,0.0,0.0,0.0,0.0,0.0,0.0,0.0,0.0,0.0,0.0,0.0,0.0,0.0,0.0,0.0,0.0,0.0,0.0,0.0,0.0,0.0,0.0,0.0,0.0,0.0,0.0,0.0,0.0,0.0,0.0,0.0,0.0,0.0,0.0,0.0,0.0,0.0,0.0,0.0,0.0,0.0,0.0,0.0,0.0,0.0,0.0,0.0,0.0,0.0,0.0,0.0,0.0,0.0,0.0,0.0,0.0,0.0,0.0,0.0,0.0,0.0,0.0,0.0,0.0,0.0,0.0,0.0,0.0,0.0,0.0,0.0,0.0,0.0,0.0,0.0,0.0,0.0,0.0,0.0,0.0,0.0,0.0,0.0,0.0,0.0,0.0,0.0,0.0,0.0,0.0,0.0,0.0,0.0,0.0,0.0,0.0,0.0,0.0,0.0,0.0,0.0,0.0,0.0,0.0,0.0,0.0,0.0,0.0,0.0,0.0,0.0,0.0,0.0,0.0,0.0,0.0,0.0,0.0,0.0,0.0,0.0,0.0,0.0,0.0,0.0,0.0,0.0,0.0,0.0,0.0,0.0,0.0,0.0,0.0,0.0,0.0,0.0,0.0,0.0,0.0,0.0,0.0,0.0,0.0,0.0,0.0,0.0,0.0,0.0,0.0,0.0,0.0,0.0,0.0,0.0,0.0,0.0,0.0,0.0,0.0,0.0,0.0,0.0,0.0,0.0,0.0,0.0,0.0,0.0,0.0,0.0,0.0,0.0,0.0,0.0,0.0,0.0,0.0,0.0,0.0,0.0,0.0,0.0,0.0,0.0,0.0,0.0,0.0,0.0,0.0,0.0,0.0,0.0,0.0,0.0,0.0,0.0,0.0,0.0,0.0,0.0,0.0,0.0,0.0,0.0,0.0,0.0,0.0,0.0,0.0,0.0,0.0,0.0,0.0,0.0,0.0,0.0,0.0,0.0,0.0,0.0,0.0,0.0,0.0,0.0,0.0,0.0,0.0,0.0,0.0,0.0,0.0,0.0,0.0,0.0,0.0,0.0,0.0,0.0,0.0,0.0,0.0,0.0,0.0,0.0,0.0,0.0,0.0,0.0,0.0,0.0,0.0,0.0,0.0,0.0,0.0,0.0,0.0,0.0,0.0,0.0,0.0,0.0,0.0,0.0,0.0,0.0,0.0,0.0,0.0,0.0,0.0,0.0,0.0,0.0,0.0,0.0,0.0,0.0,0.0,0.0,0.0,0.0,0.0,0.0,0.0,0.0,0.0,0.0,0.0,0.0,0.0,0.0,0.0,0.0,0.0,0.0,0.0,0.0,0.0,0.0,0.0,0.0,0.0,0.0,0.0,0.0,0.0,0.0,0.0,0.0,0.0,0.0,0.0,0.0,0.0,0.0,0.0,0.0,0.0,0.0,0.0,0.0,0.0,0.0,0.0,0.0,0.0,0.0,0.0,0.0,0.0,0.0,0.0,0.0,0.0,0.0,0.0,0.0,0.0,0.0,0.0,0.0,0.0,0.0,0.0,0.0,0.0,0.0,0.0,0.0,0.0,0.0,0.0,0.0,0.0,0.0,0.0,0.0,0.0,0.0,0.0,0.0,0.0,0.0,0.0,0.0,0.0,0.0,0.0,0.0,0.0,0.0,0.0,0.0,0.0,0.0,0.0,0.0,0.0,0.0,0.0,0.0,0.0,0.0,0.0,0.0,0.0,0.0,0.0,0.0,0.0,0.0,0.0,0.0,0.0,0.0,0.0,0.0,0.0,0.0,0.0,0.0,0.0,0.0,0.0,0.0,0.0,0.0,0.0,0.0,0.0,0.0,0.0,0.0,0.0,0.0,0.0,0.0,0.0,0.0,0.0,0.0,0.0,0.0,0.0,0.0,0.0,0.0,0.0,0.0,0.0,0.0,0.0,0.0,0.0,0.0,0.0,0.0,0.0,0.0,0.0,0.0,0.0,0.0,0.0,0.0,0.0,0.0,0.0,0.0,0.0,0.0,0.0,0.0,0.0,0.0,0.0,0.0,0.0,0.0,0.0,0.0,0.0,0.0,0.0,0.0,0.0,0.0,0.0,0.0,0.0,0.0,0.0,0.0,0.0,0.0,0.0,0.0,0.0,0.0,0.0,0.0,0.0,0.0,0.0,0.0,0.0,0.0,0.0,0.0,0.0,0.0,0.0,0.0,0.0,0.0,0.0,0.0,0.0,0.0,0.0,0.0,0.0,0.0,0.0,0.0,0.0,0.0,0.0,0.0,0.0,0.0,0.0,0.0,0.0,0.0,0.0,0.0,0.0,0.0,0.0,0.0,0.0,0.0,0.0,0.0,0.0,0.0,0.0,0.0,0.0,0.0,0.0,0.0,0.0,0.0,0.0,0.0,0.0,0.0,0.0,0.0,0.0,0.0,0.0,0.0,0.0,0.0,0.0,0.0,0.0,0.0,0.0,0.0,0.0,0.0,0.0,0.0,0.0,0.0,0.0,0.0,0.0,0.0,0.0,0.0,0.0,0.0,0.0,0.0,0.0,0.0,0.0,0.0,0.0,0.0,0.0,0.0,0.0,0.0,0.0,0.0,0.0,0.0,0.0,0.0,0.0,0.0,0.0,0.0,0.0,0.0,0.0,0.0,0.0,0.0,0.0,0.0,0.0,0.0,0.0,0.0,0.0,0.0,0.0,0.0,0.0,0.0,0.0,0.0,0.0,0.0,0.0,0.0,0.0,0.0,0.0,0.0,0.0,0.0,0.0,0.0,0.0,0.0,0.0,0.0,0.0,0.0,0.0,0.0,0.0,0.0,0.0,0.0,0.0,0.0,0.0,0.0,0.0,0.0,0.0,0.0,0.0,0.0,0.0,0.0,0.0,0.0,0.0,0.0,0.0,0.0,0.0,0.0,0.0,0.0,0.0,0.0,0.0,0.0,0.0,0.0,0.0,0.0,0.0,0.0,0.0,0.0,0.0,0.0,0.0,0.0,0.0,0.0,0.0,0.0,0.0,0.0,0.0,0.0,0.0,0.0,0.0,0.0,0.0,0.0,0.0,0.0,0.0,0.0,0.0,0.0,0.0,0.0,0.0,0.0,0.0,0.0,0.0,0.0,0.0,0.0,0.0,0.0,0.0,0.0,0.0,0.0,0.0,0.0,0.0,0.0,0.0,0.0,0.0,0.0,0.0,0.0,0.0,0.0,0.0,0.0,0.0,0.0,0.0,0.0,0.0,0.0,0.0,0.0,0.0,0.0,0.0,0.0,0.0,0.0,0.0,0.0,0.0,0.0,0.0,0.0,0.0,0.0,0.0,0.0,0.0,0.0,0.0,0.0,0.0,0.0,0.0,0.0,0.0,0.0,0.0,0.0,0.0,0.0,0.0,0.0,0.0,0.0,0.0,0.0,0.0,0.0,0.0,0.0,0.0,0.0,0.0,0.0,0.0,0.0,0.0,0.0,0.0,0.0,0.0,0.0,0.0,0.0,0.0,0.0,0.0,0.0,0.0,0.0,0.0,0.0,0.0,0.0,0.0,0.0,0.0,0.0,0.0,0.0,0.0,0.0,0.0,0.0,0.0,0.0,0.0,0.0,0.0,0.0,0.0,0.0,0.0,0.0,0.0,0.0,0.0,0.0,0.0,0.0,0.0,0.0,0.0,0.0,0.0,0.0,0.0,0.0,0.0,0.0,0.0,0.0,0.0,0.0,0.0,0.0,0.0,0.0,0.0,0.0,0.0,0.0,0.0,0.0,0.0,0.0,0.0,0.0,0.0,0.0,0.0,0.0,0.0,0.0,0.0,0.0,0.0,0.0,0.0,0.0,0.0,0.0,0.0,0.0,0.0,0.0,0.0,0.0,0.0,0.0,0.0,0.0,0.0,0.0,0.0,0.0,0.0,0.0,0.0,0.0,0.0,0.0,0.0,0.0,0.0,0.0,0.0,0.0,0.0,0.0,0.0,0.0,0.0,0.0,0.0,0.0,0.0,0.0,0.0,0.0,0.0,0.0,0.0,0.0,0.0,0.0,0.0,0.0,0.0,0.0,0.0,0.0,0.0,0.0,0.0,0.0,0.0,0.0,0.0,0.0,0.0,0.0,0.0,0.0,0.0,0.0,0.0,0.0,0.0,0.0,0.0,0.0,0.0,0.0,0.0,0.0,0.0,0.0,0.0,0.0,0.0,0.0,0.0,0.0,0.0,0.0,0.0,0.0,0.0,0.0,0.0,0.0,0.0,0.0,0.0,0.0,0.0,0.0,0.0,0.0,0.0,0.0,0.0,0.0,0.0,0.0,0.0,0.0,0.0,0.0,0.0,0.0,0.0,0.0,0.0,0.0,0.0,0.0,0.0,0.0,0.0,0.0,0.0,0.0,0.0,0.0,0.0,0.0,0.0,0.0,0.0,0.0,0.0,0.0,0.0,0.0,0.0,0.0,0.0,0.0,0.0,0.0,0.0,0.0,0.0,0.0,0.0,0.0,0.0,0.0,0.0,0.0,0.0,0.0,0.0,0.0,0.0,0.0,0.0,0.0,0.0,0.0,0.0,0.0,0.0,0.0,0.0,0.0,0.0,0.0,0.0,0.0,0.0,0.0,0.0,0.0,0.0,0.0,0.0,0.0,0.0,0.0,0.0,0.0,0.0,0.0,0.0,0.0,0.0,0.0,0.0,0.0,0.0,0.0,0.0,0.0,0.0,0.0,0.0,0.0,0.0,0.0,0.0,0.0,0.0,0.0,0.0,0.0,0.0,0.0,0.0,0.0,0.0,0.0,0.0,0.0,-5.6299,-5.5588,0.0,0.0,0.0,0.0,0.0,0.0,0.0,0.0,0.0,0.0,0.0,0.0,0.0,0.0,0.0,0.0,0.0,0.0,0.0,0.0,0.0,0.0,0.0,-4.5058,-4.5807,-4.5807,-4.5979,-4.6098,-4.6098,0.0,0.0,0.0,0.0,0.0,-4.5625,-4.5153,-4.511,-4.558,-4.551,-4.5701,-4.615,-4.6213,-4.6268,-4.6287,0.0,0.0,0.0,0.0,0.0,0.0,0.0,0.0,0.0,0.0,0.0,0.0,0.0,0.0,0.0,0.0,0.0,0.0,0.0,0.0,0.0,0.0,0.0,0.0,0.0,0.0,0.0,0.0,0.0,0.0,0.0,0.0,0.0,0.0,0.0,0.0,0.0,0.0,0.0,0.0,0.0,0.0,0.0,0.0,0.0,0.0,0.0,0.0,0.0,0.0,0.0,0.0,0.0,0.0,0.0,0.0,0.0,0.0,0.0,0.0,0.0,0.0,0.0,0.0,0.0,0.0,0.0,0.0,0.0,0.0,-5.7338,-5.6953,0.0,0.0,0.0,0.0,0.0,0.0,0.0,0.0,0.0,0.0,0.0,0.0,0.0,0.0,0.0,0.0,0.0,0.0,0.0,0.0,0.0,-4.2404,-4.3148,-4.4761,-4.5807,-4.5807,-4.5979,-4.6098,-4.6098,-4.6234,0.0,0.0,0.0,-4.6289,-4.6288,-4.6235,-4.6199,-4.6173,-4.6252,-4.6212,-4.6076,-4.6273,-4.6344,-4.6269,-4.6289,0.0,0.0,0.0,0.0,0.0,0.0,0.0,0.0,0.0,0.0,0.0,0.0,0.0,0.0,0.0,0.0,0.0,0.0,0.0,0.0,0.0,0.0,0.0,0.0,0.0,0.0,0.0,0.0,0.0,0.0,0.0,0.0,0.0,0.0,0.0,0.0,0.0,0.0,0.0,0.0,0.0,0.0,0.0,0.0,0.0,0.0,0.0,0.0,0.0,0.0,0.0,0.0,0.0,0.0,0.0,0.0,0.0,0.0,0.0,0.0,0.0,0.0,0.0,-5.8742,-5.8742,-5.8742,-5.8742,-5.8742,-5.8742,-5.8742,-5.8569,-5.8165,-5.6415,0.0,0.0,0.0,0.0,0.0,0.0,0.0,0.0,0.0,0.0,0.0,0.0,0.0,0.0,0.0,0.0,0.0,0.0,0.0,-4.3086,-4.3272,-4.4794,-4.5807,-4.5807,-4.5979,-4.6098,-4.6098,-4.6234,0.0,0.0,-4.6308,-4.6267,-4.621,-4.6206,-4.6165,-4.6115,-4.6746,-4.6668,-4.5947,-4.6702,-4.6733,-4.6137,-4.6244,-4.582,-4.4997,0.0,0.0,0.0,0.0,0.0,0.0,0.0,0.0,0.0,0.0,0.0,0.0,0.0,0.0,0.0,0.0,0.0,0.0,0.0,0.0,0.0,0.0,0.0,0.0,0.0,0.0,0.0,0.0,0.0,0.0,0.0,0.0,0.0,0.0,0.0,0.0,0.0,0.0,0.0,0.0,0.0,-5.7928,-5.8904,0.0,0.0,0.0,0.0,0.0,0.0,0.0,0.0,0.0,0.0,0.0,0.0,0.0,-6.0317,-6.0553,-6.0668,-6.0627,-6.0473,-6.0473,-6.0473,-6.0473,-6.0473,-6.0473,-6.0473,-6.0473,0.0,-5.8165,-5.6415,0.0,0.0,0.0,0.0,0.0,0.0,0.0,0.0,0.0,0.0,0.0,0.0,0.0,0.0,0.0,0.0,0.0,0.0,0.0,0.0,0.0,-4.5084,-4.5841,-4.5917,-4.6031,-4.6118,-4.6153,-4.6242,-4.6308,-4.6308,-4.6308,-4.6267,-4.6204,-4.616,-4.6317,-4.6665,-4.7437,-4.7622,-4.7258,-4.7217,-4.7273,-4.7388,-4.7011,-4.6422,-4.564,-4.5195,0.0,0.0,0.0,0.0,0.0,0.0,0.0,0.0,0.0,0.0,0.0,0.0,0.0,0.0,0.0,0.0,0.0,0.0,0.0,0.0,0.0,0.0,0.0,0.0,0.0,0.0,0.0,0.0,0.0,0.0,0.0,0.0,0.0,0.0,0.0,0.0,0.0,0.0,0.0,-5.7597,-5.8945,-5.9785,-5.9843,-5.9686,0.0,0.0,0.0,0.0,0.0,0.0,0.0,0.0,0.0,-6.219,-6.2153,-6.2183,-6.2298,-6.2317,-6.2032,-6.1543,-6.1543,-6.1262,-6.08,-6.08,-6.08,-6.08,-6.08,-6.0377,-5.9608,-5.8357,-5.7569,-5.7019,0.0,0.0,0.0,0.0,-5.39,-5.3454,0.0,0.0,0.0,0.0,0.0,0.0,0.0,0.0,0.0,0.0,0.0,0.0,-4.4458,-4.535,-4.588,-4.5991,-4.6072,-4.6145,-4.62,-4.6265,-4.6308,-4.6308,-4.6308,-4.6265,-4.6189,-4.6298,-4.6585,-4.7055,-4.8094,-4.8395,-4.7976,-4.7859,-4.7895,-4.805,-4.7743,-4.7313,-4.6752,-4.5972,-4.5137,-4.4219,0.0,0.0,0.0,0.0,0.0,0.0,0.0,0.0,0.0,0.0,0.0,0.0,0.0,0.0,0.0,0.0,0.0,0.0,0.0,0.0,0.0,0.0,0.0,0.0,0.0,0.0,0.0,0.0,0.0,0.0,0.0,0.0,0.0,0.0,0.0,0.0,0.0,-5.8965,-5.9805,-6.0625,-6.0723,-6.0644,0.0,0.0,0.0,0.0,0.0,0.0,-6.2281,-6.2279,-6.2756,-6.3935,-6.3819,-6.3665,-6.348,-6.3441,-6.3084,-6.2397,-6.2197,-6.1774,-6.1127,-6.0896,-6.08,-6.08,-6.08,-6.08,-6.0723,-5.9858,-5.9146,-5.8519,-5.7578,-5.6472,-5.5442,-5.5971,-5.5739,-5.535,0.0,0.0,0.0,0.0,0.0,0.0,0.0,0.0,0.0,0.0,0.0,-4.4431,-4.4574,-4.5439,-4.5997,-4.6002,-4.6122,-4.62,-4.6202,-4.6265,-4.6308,-4.6308,-4.6308,-4.624,-4.6109,-4.6738,-4.7005,-4.6906,-4.8606,-4.8624,-4.71,-4.872,-4.8651,-4.7207,-4.8062,-4.8443,-4.8436,-4.7695,-4.6876,-4.6,-4.5155,0.0,0.0,0.0,0.0,0.0,0.0,0.0,0.0,0.0,0.0,0.0,0.0,0.0,0.0,0.0,0.0,0.0,0.0,0.0,0.0,0.0,0.0,0.0,0.0,0.0,0.0,0.0,0.0,0.0,0.0,0.0,0.0,0.0,0.0,0.0,0.0,0.0,0.0,-6.1523,-6.1621,0.0,0.0,0.0,0.0,-6.1562,-6.2344,-6.3203,-6.4121,-6.416,-6.4174,-6.4179,-6.3984,-6.3813,-6.3682,-6.3501,-6.3341,-6.3243,-6.2474,-6.2082,-6.2005,-6.1166,-6.08,-6.08,-6.08,-6.08,-6.0723,-5.9858,-5.9473,-5.9346,-5.8481,-5.8073,-5.8004,-5.7975,-5.7902,-5.7819,0.0,0.0,0.0,0.0,0.0,-3.7062,-3.8136,-3.9256,-4.0549,-4.2223,-4.3678,-4.4795,-4.5419,-4.58,-4.6036,-4.6122,-4.6167,-4.6212,-4.6265,-4.6289,-4.6308,-4.6308,-4.6265,-4.6414,-4.6805,-4.7513,-4.8089,-4.8573,-4.9708,-4.9968,-4.9371,-4.896,-4.904,-4.9513,-4.8764,-4.9052,-4.9996,-4.8748,-4.7421,-4.61,-4.5864,-4.4723,0.0,0.0,0.0,0.0,0.0,0.0,0.0,0.0,0.0,0.0,0.0,0.0,0.0,0.0,0.0,0.0,0.0,0.0,0.0,0.0,0.0,0.0,0.0,0.0,0.0,0.0,0.0,0.0,0.0,0.0,0.0,0.0,0.0,0.0,0.0,0.0,0.0,-6.2422,-6.3027,0.0,-6.2949,-6.3183,-6.3379,-6.3379,-6.3652,-6.4219,-6.5098,-6.5137,-6.5347,-6.5789,-6.5606,-6.5445,-6.5313,-6.5117,-6.473,-6.4128,-6.3281,-6.2589,-6.2082,-6.1204,-6.08,-6.08,-6.08,-6.08,-6.0781,-6.0454,-6.0339,-6.0319,-5.9988,-5.9534,-5.9035,-5.8957,-5.8909,-5.8891,0.0,0.0,0.0,0.0,-3.7108,-3.7492,-3.8629,-3.9975,-4.1361,-4.2808,-4.4167,-4.5254,-4.5928,-4.6013,-4.6076,-4.6197,-4.6213,-4.6244,-4.6308,-4.6308,-4.6308,-4.6308,-4.6463,-4.6761,-4.7151,-4.8171,-4.896,-4.946,-5.0287,-5.0556,-5.0276,-4.923,-4.9214,-5.0016,-4.9189,-4.9455,-5.0449,-4.9697,-4.8599,-4.7317,-4.6823,-4.5953,-4.4807,0.0,0.0,0.0,0.0,0.0,0.0,0.0,0.0,0.0,0.0,0.0,0.0,0.0,0.0,0.0,0.0,0.0,0.0,0.0,0.0,0.0,0.0,0.0,0.0,0.0,0.0,0.0,0.0,0.0,0.0,0.0,0.0,0.0,0.0,-6.1074,-6.2344,-6.293,-6.3769,-6.4297,-6.4297,-6.4297,-6.4414,-6.4726,-6.4746,-6.5117,-6.5996,-6.6035,-6.6266,-6.6744,-6.6527,-6.6366,-6.6267,-6.6024,-6.5609,-6.5013,-6.3858,-6.3031,-6.2474,-6.132,-6.08,-6.08,-6.08,-6.08,-6.08,-6.08,-6.08,-6.08,-6.08,-6.0454,-5.9935,-5.9888,-5.9864,-5.9751,0.0,0.0,0.0,-3.7764,-3.7931,-3.8407,-3.9645,-4.1369,-4.2709,-4.3173,-4.4733,-4.5841,-4.5991,-4.6052,-4.6128,-4.62,-4.6265,-4.6308,-4.6308,-4.6308,-4.6308,-4.6348,-4.696,-4.7256,-4.7178,-4.8705,-4.9486,-4.9433,-5.0288,-5.0296,-4.953,-4.9581,-4.9185,-4.8488,-4.9301,-4.9668,-4.9714,-5.0519,-5.0453,-4.9673,-4.8181,-4.7567,-4.7364,0.0,0.0,0.0,0.0,0.0,0.0,0.0,0.0,0.0,0.0,0.0,0.0,0.0,0.0,0.0,0.0,0.0,0.0,0.0,0.0,0.0,0.0,0.0,0.0,0.0,0.0,0.0,0.0,0.0,0.0,0.0,0.0,0.0,-6.0449,-6.1933,-6.3047,-6.3086,-6.3848,-6.4375,-6.4375,-6.4375,-6.4726,-6.5586,-6.5644,-6.6015,-6.6855,-6.6894,-6.6894,-6.6892,-6.656,-6.6406,-6.6411,-6.6063,-6.5897,-6.5878,-6.4128,-6.3288,-6.3231,-6.155,-6.08,-6.08,-6.08,-6.08,-6.08,-6.08,-6.08,-6.08,-6.08,-6.08,-6.08,-6.08,-6.0746,-6.0404,0.0,0.0,-3.7634,-3.7856,-3.8897,-3.9903,-4.0439,-4.2143,-4.3489,-4.3803,-4.499,-4.588,-4.6052,-4.6087,-4.6145,-4.6265,-4.6289,-4.6308,-4.6308,-4.6308,-4.6561,-4.7135,-4.7254,-4.782,-4.8968,-4.9312,-4.9775,-5.0346,-5.0587,-5.0615,-5.0426,-4.9817,-4.9462,-4.9339,-4.8933,-4.8778,-4.889,-4.975,-5.0015,-4.9837,-4.9418,-4.8854,-4.8268,0.0,0.0,0.0,0.0,0.0,0.0,0.0,0.0,0.0,0.0,0.0,0.0,0.0,0.0,0.0,0.0,0.0,0.0,0.0,0.0,0.0,0.0,0.0,0.0,0.0,0.0,0.0,0.0,0.0,0.0,0.0,-5.914,-6.0625,-6.125,-6.2832,-6.418,-6.4805,-6.5644,-6.6191,-6.6191,-6.6191,-6.6289,-6.6523,-6.6543,-6.664,-6.6894,-6.6894,-6.6894,-6.6906,-6.657,-6.638,-6.6329,-6.6041,-6.5897,-6.5878,-6.4128,-6.3288,-6.3231,-6.155,-6.08,-6.08,-6.08,-6.08,-6.08,-6.08,-6.08,-6.08,-6.08,-6.08,-6.08,-6.08,-6.0337,-5.9517,0.0,-3.7522,-3.8395,-3.8395,-3.951,-4.0477,-4.0722,-4.2434,-4.38,-4.4067,-4.5097,-4.5874,-4.6031,-4.608,-4.6142,-4.6243,-4.6288,-4.6308,-4.6308,-4.6641,-4.7205,-4.8002,-4.8284,-4.8834,-4.972,-5.0022,-5.039,-5.084,-5.0841,-5.0863,-5.0919,-5.003,-4.9484,-4.9225,-4.8707,-4.8508,-4.8604,-4.9464,-5.0081,-5.0439,-5.0475,-5.0176,-4.9636,-4.9041,-4.9037,-4.9311,-4.9004,-4.8906,-4.8906,-4.8906,0.0,0.0,0.0,0.0,0.0,0.0,0.0,0.0,0.0,0.0,0.0,0.0,0.0,0.0,0.0,0.0,0.0,0.0,0.0,0.0,0.0,0.0,0.0,0.0,-6.0371,-6.1797,-6.2676,-6.3652,-6.4629,-6.5508,-6.6367,-6.6894,-6.6894,-6.6894,-6.6894,-6.6894,-6.6894,-6.6894,-6.6894,-6.6894,-6.6892,-6.6904,-6.6576,-6.6373,-6.6295,-6.603,-6.5897,-6.5878,-6.4493,-6.3647,-6.3262,-6.1935,-6.1146,-6.08,-6.08,-6.08,-6.08,-6.08,-6.08,0.0,0.0,0.0,0.0,0.0,-5.9653,-5.868,0.0,-3.8618,-3.925,-3.925,-4.003,-4.0742,-4.0913,-4.2578,-4.3926,-4.4154,-4.5109,-4.5833,-4.5956,-4.6035,-4.6096,-4.6171,-4.634,-4.6484,-4.6582,-4.7324,-4.8104,-4.8926,-4.962,-4.9995,-4.9954,-5.0714,-5.1064,-5.1019,-5.1011,-5.1047,-5.1072,-5.0305,-4.9523,-4.8748,-4.8748,-4.8697,-4.8684,-4.9538,-5.0361,-5.1096,-5.1243,-5.1249,-5.1046,-4.9567,-4.9485,-5.0076,-4.9413,-4.918,-4.918,-4.918,0.0,0.0,0.0,0.0,0.0,0.0,0.0,0.0,0.0,0.0,0.0,0.0,0.0,0.0,0.0,0.0,0.0,0.0,0.0,0.0,0.0,0.0,0.0,0.0,-6.1933,-6.334,-6.4316,-6.4453,-6.4765,-6.5644,-6.6426,-6.6894,-6.6894,-6.6894,-6.6894,-6.6894,-6.6894,-6.6894,-6.6894,-6.6893,0.0,0.0,0.0,-6.6363,-6.6283,-6.6019,-6.5897,-6.5878,-6.4916,-6.4051,-6.3281,-6.2358,-6.1543,-6.08,-6.08,-6.08,-6.08,-6.08,-6.08,-6.08,-6.08,-6.08,-6.0685,-5.9808,-5.8892,-5.797,0.0,-3.9101,-4.0155,-4.0155,-4.1349,-4.2363,-4.2389,-4.3698,-4.4691,-4.4737,-4.5303,-4.5745,-4.5834,-4.5892,-4.5964,-4.6033,-4.6791,-4.7588,-4.8359,-4.8555,-4.9023,-4.9882,-4.9965,-5.0291,-5.0909,-5.1047,-5.1093,-5.1084,-5.1088,-5.1084,-5.1092,-5.0923,-5.0415,-4.9648,-4.9648,-4.9312,-4.8808,-4.963,-5.0134,-5.0443,-5.1052,-5.1291,-5.1249,-5.0989,-5.0975,-5.1112,-5.0976,-5.0918,-5.0918,-5.0918,-5.0918,-5.0918,-5.0918,-5.0918,0.0,0.0,0.0,0.0,0.0,0.0,0.0,0.0,0.0,0.0,0.0,0.0,0.0,0.0,0.0,0.0,0.0,0.0,0.0,-6.1308,-6.2324,-6.3555,-6.5137,-6.5351,-6.5664,-6.6543,-6.6797,-6.6894,-6.6894,-6.6894,-6.6894,-6.6894,-6.6894,-6.6894,-6.6894,-6.6893,-6.6821,-6.6652,-6.6493,-6.6311,-6.6129,-6.5978,-6.5897,-6.5878,-6.4301,0.0,-6.325,-6.1743,-6.0954,-6.08,-6.08,-6.08,-6.08,-6.08,-6.08,-6.08,-6.08,-6.08,-6.0685,-5.9761,-5.8856,-5.797,-3.9658,-4.042,-4.0996,-4.0996,-4.1999,-4.2797,-4.2797,-4.3849,-4.4663,-4.4701,-4.5047,-4.5352,-4.553,-4.5617,-4.5738,-4.593,-4.6897,-4.7871,-4.8782,-4.9296,-4.9922,-5.0762,-5.0739,-5.0692,-5.0707,-5.0668,-5.0438,-4.9998,-4.9926,-4.9936,-5.0018,-5.038,-5.0135,-4.9425,-4.9854,-4.9845,-4.9525,-4.9935,-5.0369,-5.082,-5.1206,-5.1359,-5.1359,-5.1359,-5.1359,-5.1341,-5.1386,-5.168,-5.2051,-5.2051,-5.2344,-5.2695,-5.2695,-5.2695,-5.2617,0.0,0.0,0.0,0.0,0.0,0.0,0.0,0.0,0.0,0.0,0.0,0.0,0.0,0.0,-5.9805,-5.9805,0.0,-6.248,-6.293,-6.373,-6.4609,-6.5488,-6.5976,-6.6406,-6.6855,-6.6894,-6.6894,-6.6894,-6.6894,-6.6894,-6.6894,-6.6894,-6.6894,-6.6894,-6.6892,-6.6815,-6.6611,-6.6444,-6.627,-6.6108,-6.5974,-6.5897,-6.5878,-6.4589,-6.3724,-6.3262,-6.2012,-6.1204,-6.08,-6.08,-6.08,-6.08,-6.08,-6.08,-6.08,-6.08,-6.08,-6.0646,-5.9323,-5.8534,-5.7913,-4.1534,-4.1962,-4.2017,-4.185,-4.25,-4.302,-4.302,-4.3806,-4.4411,-4.4479,-4.4714,-4.4988,-4.5246,-4.5328,-4.5584,-4.6116,-4.71,-4.8077,-4.8976,-4.9896,-5.0703,-5.1367,-5.1406,-5.1094,-5.0448,-5.0428,-5.0096,-4.9393,-4.9124,-4.9048,-4.916,-4.96,-4.9562,-4.918,-4.9862,-5.0253,-5.0409,-5.0406,-5.0778,-5.1386,-5.1386,-5.1386,-5.1367,-5.1323,-5.1313,-5.133,-5.1386,-5.1855,-5.2461,-5.2637,-5.3281,-5.4023,-5.4199,-5.4375,-5.4512,-5.4512,-5.4394,0.0,0.0,0.0,0.0,0.0,0.0,0.0,0.0,-5.8008,-5.8476,-5.8828,-6.0527,-6.1992,-6.2168,-6.3359,-6.4355,-6.4531,-6.5137,-6.5664,-6.582,-6.6465,-6.6894,-6.6894,-6.6894,-6.6894,-6.6894,-6.6894,-6.6894,-6.6894,-6.6894,-6.6894,-6.6894,-6.6909,-6.6802,-6.6579,-6.6394,-6.6209,-6.6065,-6.595,-6.5897,-6.5878,-6.4839,-6.3974,-6.3281,-6.2281,-6.1466,-6.08,-6.08,-6.08,-6.08,-6.08,-6.08,-6.08,-6.08,-6.08,-6.0608,-5.8904,-5.82,-5.7855,0.0,-4.3243,-4.3503,-4.2797,-4.3336,-4.3875,-4.3875,-4.418,-4.4397,-4.4397,-4.4637,-4.4908,-4.5171,-4.5264,-4.5776,-4.6956,-4.7875,-4.882,-4.9794,-5.0697,-5.1238,-5.1387,-5.1406,-5.1367,-5.1269,-5.1269,-5.1211,-5.1113,-5.039,-5.0039,-5.0039,-4.9355,-4.9394,-5.0058,-5.0026,-5.0443,-5.1164,-5.1118,-5.1166,-5.1302,-5.1302,-5.1302,-5.1304,-5.1307,-5.1342,-5.1386,-5.1406,-5.1465,-5.166,-5.2441,-5.3281,-5.4141,-5.4902,-5.5683,-5.6308,-5.6308,-5.5762,-5.5156,-5.5156,-5.5156,-5.5547,-5.7207,-5.7676,-5.8359,0.0,-6.0605,-6.0566,-6.2109,-6.2656,-6.3086,-6.3867,-6.418,-6.4551,-6.5332,-6.5547,-6.5879,-6.664,-6.6836,-6.6894,-6.6894,-6.6894,-6.6894,-6.6894,-6.6894,-6.6894,-6.6894,-6.6894,-6.6894,-6.6892,-6.6907,-6.6742,-6.6432,-6.6344,-6.6185,-6.5909,-6.5923,-6.5897,-6.5878,-6.4224,-6.3397,-6.325,-6.1666,-6.0877,-6.08,-6.08,-6.08,-6.08,-6.08,-6.08,-6.08,-6.08,-6.08,-6.0589,-5.8858,-5.8165,-5.7836,0.0,-4.3448,-4.3893,-4.3559,-4.3782,-4.4005,-4.4005,-4.4109,-4.4181,-4.4181,-4.4265,-4.4443,-4.4714,-4.5074,-4.5581,-4.6266,-4.7669,-4.8888,-4.9764,-5.1183,-5.2247,-5.2838,-5.2858,-5.263,-5.2168,-5.2168,-5.1914,-5.1406,-5.1055,-5.0877,-5.0846,-5.0983,-5.1226,-5.155,-5.1976,-5.2354,-5.2685,-5.2672,-5.2407,-5.2006,-5.2006,-5.1694,-5.1249,-5.1249,-5.1266,-5.1288,-5.1331,-5.1695,0.0,-5.2578,-5.3281,-5.4062,-5.4433,-5.4785,-5.5195,-5.5683,-5.5586,-5.541,-5.5918,-5.6797,-5.7734,-5.8476,-5.9394,-6.039,-6.1465,-6.1426,-6.1367,-6.209,-6.3047,-6.3867,-6.4238,-6.5137,-6.5937,-6.6308,-6.6367,-6.6484,-6.6855,-6.6894,-6.6894,-6.6894,-6.6894,-6.6894,-6.6894,-6.6894,-6.6894,-6.6894,-6.6894,-6.6894,-6.6892,-6.6907,-6.6759,-6.6399,-6.6329,-6.6176,-6.591,-6.5897,-6.5897,-6.5878,-6.4128,-6.3288,-6.3231,-6.155,-6.08,-6.08,-6.08,-6.08,-6.08,-6.08,-6.08,-6.08,-6.08,-6.08,-6.0589,-5.8881,-5.822,-5.7892,0.0,-4.3448,-4.4005,-4.4005,-4.4005,-4.4005,-4.4005,-4.4005,-4.4005,-4.4005,-4.4005,-4.4091,-4.4374,-4.4919,-4.5352,-4.5568,-4.7318,-4.8677,-4.9335,-5.1297,-5.2749,-5.3473,-5.373,-5.3574,-5.2996,-5.2977,-5.2664,-5.2039,-5.1783,-5.1652,-5.1612,-5.1976,-5.2258,-5.247,-5.303,-5.3429,-5.3643,-5.3622,-5.3296,-5.2782,-5.2806,-5.229,-5.1496,-5.1496,-5.138,-5.1178,-5.1274,-5.1743,-5.2342,-5.2617,-5.3125,-5.3672,-5.3926,-5.4004,-5.4219,-5.5332,-5.582,-5.6152,-5.6797,-5.7871,-5.8945,-5.9414,-6.0449,-6.1406,-6.164,-6.1699,-6.1777,-6.2012,-6.3066,-6.4082,-6.457,-6.5683,-6.6621,-6.6855,-6.6894,-6.6894,-6.6894,-6.6894,-6.6894,-6.6894,-6.6894,-6.6894,-6.6894,-6.6894,-6.6894,-6.6894,-6.6894,-6.6894,-6.689,-6.6906,-6.6765,-6.6465,-6.6351,-6.6184,-6.595,-6.5916,-6.5782,-6.5513,-6.4032,-6.3185,-6.2916,-6.1454,-6.08,-6.08,-6.08,-6.08,-6.08,-6.08,-6.08,-6.08,-6.08,-6.08,-6.0589,-5.8915,-5.8254,-5.7946,0.0,0.0,-4.4005,-4.4005,-4.4005,-4.4005,-4.4005,-4.4005,-4.4005,-4.4005,-4.4005,-4.4091,-4.4374,-4.4884,-4.5232,-4.5312,-4.7087,-4.8292,-4.8514,-5.0907,-5.2372,-5.2539,-5.3284,-5.3693,-5.3673,-5.3677,-5.3654,-5.3634,-5.279,-5.2363,-5.2339,-5.1468,-5.1491,-5.2308,-5.2266,-5.2715,-5.349,-5.344,-5.3422,-5.3482,-5.354,-5.3048,-5.2277,-5.2277,-5.1791,-5.112,-5.1261,-5.1316,-5.148,-5.2381,-5.2715,-5.2891,-5.373,-5.4004,-5.4336,-5.6055,-5.7168,-5.7832,-5.7851,-5.789,-5.832,-5.9961,-6.039,-6.0664,-6.1504,-6.1699,-6.1933,-6.2793,-6.3008,-6.3555,-6.5254,-6.5605,-6.5918,-6.6758,-6.6894,-6.6894,-6.6894,-6.6894,-6.6894,-6.6894,-6.6894,-6.6894,-6.6894,-6.6894,-6.6894,-6.6894,-6.6894,-6.6893,-6.6904,-6.6904,-6.6817,-6.6595,-6.6406,-6.6226,-6.6098,-6.5974,-6.5474,-6.4628,-6.3743,-6.2897,-6.212,-6.1204,-6.08,-6.08,-6.08,-6.08,-6.08,-6.08,-6.08,-6.08,-6.08,-6.08,-6.0589,-5.8915,-5.8254,-5.7958,0.0,0.0,0.0,-4.4005,-4.4005,-4.4005,-4.4005,-4.4005,-4.4005,-4.4005,-4.4005,0.0,0.0,0.0,0.0,0.0,-4.6632,-4.7863,-4.9072,-5.1048,-5.2728,-5.3967,-5.4809,-5.5279,-5.5356,-5.5361,-5.5361,-5.5361,-5.5054,-5.4875,-5.4783,-5.5054,-5.53,-5.5565,-5.6084,-5.6482,-5.6723,-5.6155,-5.5922,-5.5866,-5.4768,-5.4173,-5.3906,-5.3313,-5.2595,-5.19,0.0,-5.1754,-5.1263,-5.1092,-5.1406,-5.1894,-5.2187,-5.2676,-5.3476,-5.5234,-5.6758,-5.789,-5.789,-5.8711,-5.9687,-6.0254,-6.0796,-6.1273,-6.1566,-6.1624,-6.1722,-6.2015,-6.2574,-6.3183,-6.3769,-6.4824,-6.5703,-6.5996,-6.6523,-6.6894,-6.6894,-6.7402,-6.7558,-6.6972,-6.7402,-6.7539,-6.6953,-6.6894,-6.6894,-6.6894,-6.6894,-6.6893,-6.6904,-6.6904,-6.6739,-6.6419,-6.6337,-6.6193,-6.5974,-6.5928,-6.5455,-6.4589,-6.3185,-6.205,-6.1223,-6.0935,-6.08,-6.08,-6.08,-6.08,-6.08,-6.08,-6.08,-6.08,-6.08,-6.08,-6.0666,-5.9511,-5.875,-5.8016,0.0,0.0,0.0,0.0,0.0,0.0,0.0,0.0,0.0,0.0,0.0,0.0,0.0,0.0,0.0,0.0,0.0,-4.7514,-4.8938,-5.065,-5.2264,-5.377,-5.4622,-5.5122,-5.5203,-5.5203,-5.5339,-5.563,-5.5597,-5.5714,-5.5952,-5.6476,-5.6859,-5.7156,-5.7676,-5.8062,-5.8312,-5.7504,-5.7158,-5.7024,-5.5344,-5.4705,-5.4671,-5.3801,-5.3166,0.0,-5.2553,-5.2165,-5.1611,-5.0876,-5.1172,-5.1855,-5.1855,-5.2676,-5.3848,-5.4961,-5.6523,-5.7969,-5.8281,-5.9335,-6.0445,-6.0757,-6.1184,-6.1534,-6.1534,-6.1534,-6.1534,-6.1534,-6.2045,-6.2593,-6.2905,-6.3905,-6.4863,-6.5508,-6.6328,-6.6894,-6.6894,-6.7656,-6.7871,-6.6992,-6.7383,-6.7519,-6.6953,-6.6894,-6.6894,-6.6894,-6.6894,-6.6893,-6.6904,-6.6904,-6.6742,-6.6419,-6.6344,-6.6193,-6.5967,-6.562,-6.4839,-6.3685,-6.2312,-6.1351,-6.08,-6.08,-6.08,-6.08,-6.08,-6.08,-6.08,-6.08,-6.08,-6.08,-6.08,-6.08,-6.0666,-5.9492,-5.8742,-5.8096,0.0,0.0,0.0,0.0,0.0,0.0,0.0,0.0,0.0,0.0,0.0,0.0,0.0,0.0,0.0,0.0,0.0,0.0,-4.8197,-4.9786,-5.1114,-5.2046,-5.2915,-5.3397,-5.3397,-5.3397,-5.3763,-5.4535,-5.4506,-5.492,-5.5729,-5.5754,-5.6214,-5.7003,-5.706,-5.753,-5.8242,-5.745,-5.7105,-5.6962,-5.5326,-5.4698,-5.4685,-5.3855,-5.3542,-5.3495,-5.2854,-5.2598,-5.2453,-5.1712,-5.207,-5.2832,-5.2891,-5.4062,-5.5449,-5.5488,-5.6699,-5.8203,-5.9043,-5.9795,-6.0568,-6.1391,-6.1494,-6.1383,-6.1383,-6.1383,-6.1383,-6.1383,-6.1501,-6.1859,-6.2679,-6.2961,-6.3613,-6.5312,-6.6367,-6.6972,-6.6972,-6.7715,-6.793,-6.7012,-6.6933,-6.6953,-6.6894,-6.6894,-6.6894,-6.6894,-6.6894,-6.6893,-6.6904,-6.6902,-6.6795,-6.6615,-6.6393,-6.6245,-6.6108,-6.5068,-6.3705,-6.2101,-6.1235,-6.08,-6.08,-6.08,-6.08,-6.08,-6.08,-6.08,-6.08,-6.08,-6.08,-6.08,-6.08,-6.08,-6.0589,-5.8954,-5.8338,-5.8184,0.0,0.0,0.0,0.0,0.0,0.0,0.0,0.0,0.0,0.0,0.0,0.0,0.0,0.0,0.0,0.0,0.0,0.0,-4.9028,-5.0096,-5.1077,-5.1915,-5.2781,-5.3243,-5.3243,-5.3243,-5.3358,-5.3551,-5.4195,-5.4608,-5.4858,-5.6079,-5.6791,-5.7041,-5.7684,-5.8088,-5.8242,-5.7398,-5.7046,-5.7011,-5.5923,-5.5557,-5.5641,-5.542,-5.5001,-5.453,-5.4342,-5.3963,-5.3411,-5.2633,-5.3379,-5.4746,-5.539,-5.6367,-5.7363,-5.8027,-5.8945,-5.9805,-6.0039,-6.0674,-6.1312,-6.1547,-6.145,-6.1324,-6.1324,-6.1324,-6.1324,-6.1324,-6.1463,-6.1664,-6.1898,-6.3059,-6.4336,-6.543,-6.6875,-6.7871,-6.7871,-6.8613,-6.8594,-6.707,-6.7461,-6.7617,-6.6953,-6.6894,-6.6894,-6.6894,-6.6894,-6.6891,-6.6904,-6.6859,-6.6768,-6.6595,-6.6393,-6.6245,-6.6108,-6.4471,-6.3128,-6.2101,-6.1235,-6.08,-6.08,-6.08,-6.08,-6.08,-6.08,-6.08,-6.08,-6.08,-6.08,-6.08,-6.08,-6.08,-6.0666,-5.9588,-5.8819,-5.8184,0.0,0.0,0.0,0.0,0.0,0.0,0.0,0.0,0.0,0.0,0.0,0.0,0.0,0.0,0.0,0.0,0.0,0.0,0.0,-4.9856,-5.0491,-5.1337,-5.1837,-5.2106,-5.2106,-5.2818,-5.301,-5.2635,-5.4241,-5.4857,-5.453,-5.5818,-5.6426,-5.6464,-5.6934,-5.7165,-5.7107,-5.6261,-5.6128,0.0,0.0,-5.5181,-5.5913,-5.5527,-5.5374,-5.5399,-5.5443,-5.5492,-5.5399,-5.4552,-5.5244,-5.6582,-5.7461,-5.8086,-5.8574,-5.9062,-5.9744,-6.0364,-6.0364,-6.091,-6.1474,-6.1474,-6.1337,-6.1217,-6.1217,-6.1217,-6.1217,-6.1217,-6.137,-6.1504,-6.1504,-6.2739,-6.4004,-6.4883,-6.6816,-6.8066,-6.7676,-6.8711,-6.8847,-6.7109,-6.7324,-6.7441,-6.6953,-6.6894,-6.6894,-6.6894,-6.6893,-6.6909,-6.6904,-6.6836,-6.6742,-6.6595,-6.6489,-6.5976,-6.5015,-6.3526,-6.2339,-6.1524,-6.1031,-6.08,-6.08,-6.08,-6.08,-6.08,-6.08,-6.08,-6.08,-6.08,-6.08,-6.08,-6.08,-6.08,-6.0646,-5.9415,-5.8684,-5.8127,0.0,0.0,0.0,0.0,0.0,0.0,0.0,0.0,0.0,0.0,0.0,0.0,0.0,0.0,0.0,0.0,0.0,0.0,0.0,0.0,0.0,-5.0673,-5.0808,-5.0808,-5.0712,-5.2222,-5.2606,-5.1731,-5.4068,-5.4838,-5.4184,-5.5107,-5.5472,-5.5376,-5.5491,-5.553,-5.5491,-5.4664,-5.481,-5.5406,-5.3963,-5.4313,-5.5683,0.0,0.0,-5.601,-5.6141,-5.6792,-5.7493,-5.6859,-5.7328,-5.8317,-5.9079,-5.9392,-5.9489,-5.9489,-5.9944,-6.0442,-6.0442,-6.0862,-6.131,-6.131,-6.12,-6.1089,-6.1099,-6.1089,-6.1089,-6.1099,-6.1258,-6.1393,-6.1393,-6.2273,-6.332,-6.4316,-6.6465,-6.7793,-6.7168,-6.8379,-6.8711,-6.709,-6.6894,-6.6894,-6.6894,-6.6894,-6.6894,-6.6894,-6.6893,-6.6909,-6.6904,-6.6836,-6.6684,-6.6439,-6.6307,-6.533,-6.3458,-6.2535,-6.1658,-6.08,-6.08,-6.08,-6.08,-6.08,-6.08,-6.08,-6.08,-6.08,-6.08,-6.08,-6.08,-6.08,-6.08,-6.08,-6.0589,-5.8915,-5.83,-5.805,0.0,0.0,0.0,0.0,0.0,0.0,0.0,0.0,0.0,0.0,-4.8789,-4.8479,0.0,0.0,0.0,0.0,0.0,0.0,0.0,0.0,0.0,-5.0731,-5.1337,-5.1375,-5.0712,-5.1645,-5.1741,-5.0914,-5.2029,-5.2481,-5.2385,-5.3972,-5.4318,-5.3664,-5.4395,-5.4703,-5.4645,-5.3799,-5.3926,-5.4679,-5.439,-5.4535,-5.4966,0.0,0.0,0.0,-5.6141,-5.6777,-5.7616,-5.8248,-5.9014,-5.974,-5.9896,-6.0442,-6.1031,-6.1031,-6.1116,-6.1201,-6.1201,-6.1248,-6.131,-6.131,-6.1156,-6.1032,-6.1089,-6.107,-6.1032,-6.1089,-6.1258,-6.1393,-6.1393,-6.2273,-6.3515,-6.5117,-6.6367,-6.7324,-6.789,-6.8222,-6.8047,-6.7012,-6.6894,-6.6894,-6.6894,-6.6894,-6.6894,-6.6894,-6.6893,-6.6909,-6.6904,-6.6836,-6.6411,-6.5543,-6.4727,-6.3724,-6.253,-6.2235,-6.1658,-6.08,-6.08,-6.08,-6.08,-6.08,-6.08,-6.08,-6.08,-6.08,-6.08,-6.08,-6.08,-6.08,-6.08,-6.08,-6.0589,-5.8915,-5.83,-5.805,0.0,0.0,0.0,0.0,0.0,0.0,0.0,-4.6784,-4.825,-5.0058,-5.07,-5.1033,-5.1163,-5.1527,-5.1839,0.0,0.0,0.0,0.0,0.0,0.0,0.0,-5.1692,-5.1712,-5.1337,-5.301,-5.326,-5.1991,0.0,-5.4107,-5.328,-5.453,-5.4684,-5.3895,-5.4318,-5.4241,-5.3799,-5.3376,-5.3694,-5.4494,-5.4505,-5.4834,-5.5364,0.0,0.0,0.0,-5.7273,-5.773,-5.8134,-5.8595,-5.9295,-6.0093,-6.0613,-6.1062,-6.1393,-6.1393,-6.1373,-6.1348,-6.1348,-6.1264,-6.1192,-6.1148,-6.1079,-6.1002,-6.1031,-6.1021,-6.1012,-6.1032,-6.1198,-6.1365,-6.1383,-6.2254,-6.3237,-6.4101,-6.5351,-6.6367,-6.6797,-6.7246,-6.7363,-6.6953,-6.6894,-6.6894,-6.6894,-6.6894,-6.6894,-6.6894,-6.6894,-6.6892,-6.6904,-6.6442,-6.5951,-6.548,-6.4042,-6.3003,-6.2411,-6.1824,-6.1271,-6.08,-6.08,-6.08,-6.08,-6.08,-6.08,-6.08,-6.08,-6.08,-6.08,-6.08,-6.08,-6.08,-6.08,-6.08,-6.0646,-5.9396,-5.8665,-5.8127,0.0,0.0,0.0,0.0,0.0,0.0,0.0,-4.7762,-4.9524,-5.076,-5.2417,-5.3549,-5.3722,-5.3414,-5.3203,0.0,0.0,0.0,0.0,0.0,0.0,0.0,0.0,-5.2365,-5.2173,0.0,0.0,-5.3491,-5.5472,0.0,0.0,0.0,0.0,0.0,-5.4414,-5.4126,-5.3472,-5.328,-5.3809,0.0,0.0,-5.5355,-5.6213,0.0,0.0,0.0,0.0,-5.8613,-5.8632,-5.8825,-5.9319,-6.0069,-6.1013,-6.1314,-6.134,-6.134,-6.1305,-6.1259,-6.1259,-6.1167,-6.107,-6.1012,-6.0982,-6.0981,-6.0997,-6.099,-6.1011,-6.1002,-6.1164,-6.1324,-6.1362,-6.2048,-6.2679,-6.2926,-6.4276,-6.537,-6.5566,-6.6348,-6.6894,-6.6894,-6.6894,-6.6894,-6.6894,-6.6894,-6.6894,-6.6894,-6.6894,-6.6892,-6.6904,-6.5891,-6.5312,-6.5312,-6.3491,-6.2419,-6.2223,-6.141,-6.0933,-6.08,-6.08,-6.08,-6.08,-6.08,-6.08,-6.08,-6.08,-6.08,-6.08,-6.08,-6.08,-6.08,-6.08,-6.08,-6.0666,-5.9627,-5.8838,-5.8146,0.0,0.0,0.0,0.0,0.0,0.0,0.0,-4.8417,-5.0211,-5.2614,-5.3788,-5.4664,-5.5395,-5.4107,-5.3203,0.0,0.0,0.0,0.0,0.0,0.0,0.0,0.0,0.0,0.0,0.0,0.0,-5.4376,-5.4626,0.0,0.0,0.0,0.0,0.0,0.0,-5.4453,-5.4337,-5.3549,0.0,0.0,0.0,0.0,0.0,0.0,0.0,0.0,0.0,-5.8613,-5.8729,-5.9513,-5.9822,-6.0035,-6.0799,-6.1079,-6.1134,-6.1134,-6.1116,-6.1126,-6.1126,-6.106,-6.1012,-6.1002,-6.095,-6.0933,-6.0987,-6.0997,-6.0999,-6.0992,-6.1164,-6.129,-6.1304,-6.1434,-6.1846,-6.2757,-6.3703,-6.4631,-6.5488,-6.6348,-6.6894,-6.6894,-6.6894,-6.6894,-6.6894,-6.6894,-6.6894,-6.6894,-6.6891,-6.6905,-6.6904,-6.5325,-6.4416,-6.4416,-6.2594,-6.1518,-6.1329,-6.112,-6.0933,-6.08,-6.08,-6.08,-6.08,-6.08,-6.08,-6.08,-6.08,-6.08,-6.08,-6.08,-6.08,-6.08,-6.08,-6.08,-6.0608,-5.8992,-5.8357,-5.8069,0.0,0.0,0.0,0.0,0.0,0.0,-4.735,-4.9041,-5.0914,-5.2933,-5.3953,-5.4799,-5.5607,-5.5107,-5.4703,-5.4703,0.0,0.0,0.0,0.0,0.0,0.0,0.0,0.0,0.0,0.0,-5.6002,-5.6002,-5.653,0.0,0.0,0.0,0.0,0.0,0.0,-5.5703,-5.5203,-5.4857,0.0,0.0,0.0,0.0,0.0,0.0,0.0,0.0,0.0,0.0,-5.9435,-5.9736,-5.9843,-5.9795,-5.9524,-6.017,-6.104,-6.104,-6.104,-6.104,-6.104,-6.102,-6.098,-6.0948,-6.0924,-6.0911,-6.088,-6.0922,-6.0955,-6.0999,-6.106,-6.1156,-6.1289,-6.1311,-6.1487,-6.1924,-6.229,-6.2827,-6.3734,-6.4147,-6.4752,-6.5803,-6.5969,-6.6198,-6.6724,-6.6853,-6.6894,-6.6894,-6.6402,-6.6123,-6.6123,-6.4954,-6.4065,-6.3535,-6.2284,-6.1485,-6.1193,-6.1147,-6.1001,-6.08,-6.08,-6.08,-6.08,-6.08,-6.08,-6.08,-6.08,-6.08,-6.08,-6.08,-6.08,-6.08,-6.08,-6.0473,-5.9935,-5.9281,-5.8377,-5.7415,0.0,0.0,0.0,0.0,0.0,-4.6759,-4.7581,-4.94,-5.1298,-5.2991,-5.3953,-5.4799,-5.5607,-5.5934,-5.6069,-5.6069,-5.5838,0.0,0.0,0.0,0.0,0.0,0.0,0.0,0.0,0.0,-5.7492,-5.7742,-5.8357,-5.8646,0.0,0.0,-5.8204,-5.7357,0.0,0.0,0.0,0.0,0.0,0.0,0.0,0.0,0.0,0.0,0.0,0.0,0.0,0.0,0.0,0.0,0.0,-6.0045,-5.9347,-5.9982,-6.0918,-6.0678,-6.0804,-6.0987,-6.0987,-6.0995,-6.0955,-6.0922,-6.09,-6.0858,-6.0812,-6.0846,-6.0903,-6.0955,-6.0999,-6.1032,-6.1192,-6.1205,-6.1235,-6.1334,-6.1576,-6.1981,-6.2601,-6.2917,-6.3546,-6.4768,-6.4966,-6.5331,-6.6203,-6.6621,-6.6756,-6.6523,-6.5953,-6.5361,-6.4851,-6.4251,-6.3633,-6.3028,-6.2149,-6.1568,-6.1292,-6.1233,-6.1087,-6.0856,-6.0816,-6.08,-6.08,-6.08,-6.08,-6.08,-6.08,-6.08,-6.08,-6.08,-6.08,-6.08,-6.08,-6.0262,-5.9473,-5.9242,-5.8223,-5.6964,0.0,0.0,0.0,0.0,0.0,0.0,-4.7581,-4.94,-5.1298,-5.2991,-5.3953,-5.4799,-5.5607,-5.6483,-5.6983,-5.6983,-5.6214,0.0,0.0,0.0,0.0,0.0,0.0,0.0,0.0,0.0,-5.8684,-5.9473,-5.9473,-5.9492,-5.9492,-5.9492,-5.9069,-5.8261,0.0,0.0,0.0,0.0,0.0,0.0,0.0,0.0,0.0,0.0,0.0,0.0,0.0,0.0,0.0,0.0,0.0,0.0,0.0,-6.0891,-6.0748,-5.9945,-6.0322,-6.0987,-6.0987,-6.0955,-6.0911,-6.0911,-6.0846,-6.08,-6.08,-6.0846,-6.0911,-6.0911,-6.0955,-6.0997,-6.0997,-6.101,-6.106,-6.1182,-6.1988,-6.2614,-6.2689,-6.3448,-6.3994,-6.4013,-6.4018,-6.4364,-6.5236,-6.6154,-6.6401,-6.5661,-6.5619,-6.4851,-6.3125,-6.3015,-6.3008,-6.3008,-6.2149,-6.1631,-6.151,-6.1298,-6.1124,-6.0993,-6.0856,-6.08,-6.08,-6.08,-6.08,-6.08,-6.08,-6.08,0.0,-6.08,-6.08,-6.08,-6.08,-6.0262,-5.9396,-5.8607,-5.7761,-5.6887,0.0,0.0,0.0,0.0,0.0,0.0,0.0,-4.9913,-5.1298,-5.2991,-5.3433,-5.4145,-5.5549,-5.6483,-5.7003,-5.7003,-5.728,0.0,0.0,0.0,0.0,0.0,0.0,0.0,0.0,-5.8704,-5.9242,-5.9492,-6.0108,-6.0396,-6.0396,-6.0396,-5.9935,-5.9108,-5.8838,-5.8396,0.0,0.0,0.0,0.0,0.0,0.0,0.0,0.0,0.0,0.0,0.0,0.0,0.0,0.0,0.0,0.0,0.0,0.0,0.0,-5.9818,-6.0184,-6.0858,-6.0858,-6.0846,-6.0835,-6.0835,-6.0823,-6.08,-6.08,-6.0823,-6.0846,-6.088,-6.0922,-6.0944,-6.0987,-6.1008,-6.1,-6.1051,-6.1312,-6.1504,-6.1548,-6.1785,-6.217,-6.2771,-6.3437,-6.4025,-6.4439,-6.4753,-6.486,-6.4719,-6.4167,-6.3577,-6.3027,-6.2449,-6.211,-6.211,-6.1835,-6.1631,-6.149,-6.1436,-6.1272,-6.1002,-6.0954,-6.088,-6.08,-6.08,-6.08,-6.08,-6.08,-6.08,-6.08,-6.08,-6.08,-6.0742,-6.0146,-5.9415,-5.8588,-5.7723,-5.6857,-5.6069,0.0,0.0,0.0,0.0,0.0,0.0,0.0,-5.0144,-5.1298,-5.2991,-5.3203,-5.3953,-5.5972,-5.6973,-5.7607,-5.7926,-5.8742,0.0,0.0,0.0,0.0,0.0,0.0,0.0,-5.8723,-5.9569,-5.9992,-5.9992,-6.0531,-6.08,-6.08,-6.08,-6.0512,-5.9973,-5.9646,-5.9223,0.0,0.0,0.0,0.0,0.0,0.0,0.0,0.0,0.0,0.0,0.0,0.0,0.0,0.0,0.0,0.0,0.0,0.0,0.0,0.0,-6.0358,-6.08,-6.08,-6.08,-6.08,-6.08,-6.08,-6.08,-6.08,-6.08,-6.0812,-6.0846,-6.0858,-6.0888,-6.0922,-6.0944,-6.0965,-6.0965,-6.0976,-6.0987,-6.0987,-6.1009,-6.1215,-6.1814,-6.2726,-6.3411,-6.3631,-6.3927,-6.4024,-6.3813,-6.3304,-6.2869,-6.2531,-6.1996,-6.1698,-6.1698,-6.1698,-6.1663,-6.158,-6.1528,-6.1361,-6.107,-6.1019,-6.0933,-6.08,-6.08,-6.08,-6.08,-6.08,-6.08,0.0,-6.0454,-6.03,-6.0223,-5.9377,-5.855,-5.7742,-5.7214,-5.6445,-5.5703,0.0,0.0,0.0,0.0,0.0,0.0,0.0,-5.0183,-5.1298,-5.2991,-5.3203,-5.4164,-5.6714,-5.778,-5.8627,-5.9435,0.0,0.0,0.0,0.0,0.0,0.0,0.0,0.0,-5.9569,-6.0396,-6.08,-6.08,-6.08,-6.08,-6.08,-6.08,-6.08,-6.0762,-5.9954,-5.9588,0.0,0.0,0.0,0.0,0.0,0.0,0.0,0.0,0.0,0.0,0.0,0.0,0.0,0.0,0.0,0.0,0.0,0.0,0.0,0.0,0.0,0.0,0.0,-6.08,-6.08,-6.08,-6.08,-6.08,-6.08,-6.08,0.0,-6.08,-6.08,-6.08,-6.08,-6.0846,-6.088,-6.088,-6.0944,-6.0995,-6.0995,-6.0987,-6.1031,-6.1184,-6.1918,-6.2507,-6.277,-6.3483,-6.3621,-6.2965,-6.2908,-6.2553,-6.174,-6.1698,-6.1698,-6.1698,-6.1698,-6.1698,-6.1698,-6.158,-6.1406,-6.1206,-6.107,-6.0943,-6.08,-6.08,-6.08,-6.08,-6.08,-6.0762,-6.0646,-5.9838,-5.9473,-5.9338,-5.8531,-5.7703,-5.6983,-5.6926,-5.6406,-5.5703,0.0,0.0,0.0,0.0,0.0,0.0,0.0,0.0,0.0,0.0,-5.3203,-5.4164,-5.6714,-5.778,-5.8627,0.0,0.0,0.0,0.0,0.0,0.0,0.0,0.0,0.0,-6.0473,-6.0704,-6.08,-6.08,-6.08,-6.08,-6.08,-6.08,-6.08,-6.0781,-6.0589,-6.0492,0.0,0.0,0.0,0.0,0.0,0.0,0.0,0.0,0.0,0.0,-6.0096,-6.0265,0.0,0.0,0.0,0.0,0.0,0.0,0.0,0.0,-6.08,-6.08,-6.08,0.0,-6.08,-6.08,-6.08,-6.08,0.0,-6.08,-6.08,-6.08,-6.08,-6.08,-6.08,-6.0812,-6.0823,-6.0823,-6.0835,-6.0846,-6.0846,-6.088,-6.099,-6.1175,-6.135,-6.1558,-6.1868,-6.2024,-6.2087,-6.2013,-6.2017,-6.1918,-6.1718,-6.1698,-6.1698,-6.1698,-6.1698,-6.1698,-6.1698,-6.1666,-6.1493,-6.1206,-6.117,-6.1028,-6.08,-6.08,-6.08,-6.08,-6.08,-6.0416,-5.9781,-5.9588,-5.9146,-5.8511,-5.7627,-5.7176,-5.6926,-5.6252,-5.5876,-5.5703,0.0,0.0,0.0,0.0,0.0,0.0,0.0,0.0,0.0,0.0,0.0,0.0,0.0,0.0,0.0,0.0,0.0,0.0,0.0,0.0,0.0,0.0,0.0,-5.9915,-6.0781,-6.08,-6.08,-6.08,-6.08,-6.08,-6.08,-6.08,-6.08,-6.08,-6.08,-6.08,0.0,0.0,0.0,0.0,0.0,0.0,0.0,0.0,0.0,0.0,-5.9677,-6.0069,0.0,-6.08,-6.08,-6.08,0.0,0.0,0.0,0.0,-6.0512,-6.0204,-6.0204,-6.0492,-6.08,-6.08,-6.08,-6.08,-6.08,-6.08,-6.0685,-6.0281,-6.0512,-6.0685,-6.0281,-6.0531,-6.08,-6.08,-6.08,-6.08,-6.08,-6.0835,-6.0908,-6.1095,-6.1134,-6.1245,-6.1534,-6.1573,-6.1625,-6.1696,-6.1698,-6.1698,-6.1698,-6.1698,-6.1698,-6.1698,-6.1698,-6.1698,-6.1698,-6.1698,-6.1572,-6.1342,-6.124,-6.1095,-6.088,-6.0839,-6.0569,-6.0204,-6.0204,-5.9723,-5.8915,-5.8511,-5.8088,-5.7627,-5.6742,-5.6406,-5.6349,-5.5857,-5.5703,-5.5703,0.0,0.0,0.0,0.0,0.0,0.0,0.0,0.0,0.0,0.0,0.0,0.0,0.0,0.0,0.0,0.0,0.0,0.0,0.0,0.0,0.0,0.0,-6.0089,-6.0031,-6.0781,-6.08,-6.08,-6.08,-6.08,-6.08,-6.08,-6.08,-6.08,-6.08,-6.08,-6.08,0.0,0.0,0.0,0.0,0.0,0.0,0.0,0.0,0.0,0.0,0.0,0.0,0.0,-6.0762,-6.08,-6.08,-6.08,0.0,0.0,0.0,0.0,0.0,-5.9473,-6.0031,-6.0589,-6.0589,-6.0704,-6.08,-6.08,-6.0704,-6.0396,-5.9646,-6.0089,-6.0377,-5.9646,-6.0204,-6.08,-6.08,-6.08,-6.08,-6.08,-6.08,-6.0853,-6.0974,-6.1128,-6.1285,-6.1481,-6.1625,-6.1698,-6.1698,-6.1698,-6.1698,-6.1698,-6.1698,-6.1698,-6.1698,-6.1698,-6.1698,-6.1698,-6.1698,-6.1631,-6.151,-6.1298,-6.1124,-6.0993,-6.0856,-6.0319,-5.9492,-5.9492,0.0,-5.805,-5.7311,-5.6926,-5.6733,-5.5992,-5.5703,-5.5703,-5.5703,-5.5703,-5.5684,0.0,0.0,0.0,0.0,0.0,0.0,0.0,0.0,0.0,0.0,0.0,0.0,0.0,0.0,0.0,0.0,0.0,0.0,0.0,0.0,0.0,-6.08,-6.0666,-6.0666,-6.08,-6.08,-6.08,-6.08,-6.08,-6.08,-6.08,-6.08,-6.08,-6.08,-6.08,-6.08,-6.08,-6.08,0.0,0.0,-6.08,0.0,0.0,0.0,0.0,0.0,0.0,0.0,0.0,-6.055,-6.08,-6.08,-6.08,0.0,0.0,0.0,0.0,0.0,-5.9319,-5.9608,-5.9704,-5.9704,-6.0242,-6.08,-6.08,-6.0223,-5.9665,-5.9531,-5.9608,-5.9665,-5.9511,-6.0204,-6.08,-6.08,-6.08,-6.08,-6.08,-6.08,-6.0853,-6.0974,-6.1128,-6.1285,-6.1481,-6.1625,-6.1698,-6.1698,-6.1698,-6.1698,-6.1698,-6.1698,-6.1698,-6.1698,-6.1698,-6.1698,-6.1698,-6.1698,-6.1631,-6.151,-6.1298,-6.1124,-6.0993,-6.0856,-6.0319,-5.9492,0.0,-5.8627,-5.7195,-5.706,-5.6579,-5.5876,-5.5742,-5.5703,-5.5703,-5.5703,-5.5703,-5.5588,0.0,0.0,0.0,0.0,0.0,0.0,0.0,0.0,0.0,0.0,0.0,0.0,0.0,0.0,0.0,0.0,0.0,0.0,0.0,0.0,-6.08,-6.08,-6.08,-6.08,-6.08,-6.08,-6.08,-6.08,-6.08,-6.08,-6.08,-6.08,-6.08,-6.08,-6.08,-6.08,-6.08,-6.08,-6.08,0.0,0.0,0.0,0.0,0.0,0.0,0.0,0.0,0.0,0.0,0.0,-5.9454,-5.9454,-5.9454,0.0,0.0,0.0,0.0,0.0,-5.805,-5.8492,-5.8858,-5.8858,-5.9838,-6.08,-6.08,-6.0492,-6.0069,-5.9608,-5.9877,-6.0069,-5.9588,-6.0204,-6.08,-6.08,-6.08,-6.08,-6.08,-6.08,-6.0853,-6.0974,-6.1128,-6.1285,-6.1481,-6.1625,-6.1698,-6.1698,-6.1698,-6.1698,-6.1698,-6.1698,-6.1698,-6.1698,-6.1232,-6.0998,-6.0998,-6.0529,-6.0497,-6.0896,-6.0258,-6.0132,-6.0436,-5.9824,-5.9295,-5.8838,0.0,-5.7434,-5.631,-5.631,-5.6049,-5.5703,-5.5703,-5.5703,-5.5703,-5.5703,-5.5703,-5.5568,0.0,0.0,0.0,0.0,0.0,0.0,0.0,0.0,0.0,0.0,0.0,0.0,0.0,0.0,0.0,0.0,0.0,0.0,0.0,0.0,-6.08,-6.08,-6.08,-6.08,-6.08,-6.08,-6.08,-6.08,-6.08,-6.08,-6.08,-6.08,-6.08,-6.08,-6.08,-6.08,-6.08,-6.08,-6.08,0.0,0.0,0.0,0.0,0.0,0.0,0.0,0.0,0.0,0.0,0.0,0.0,0.0,0.0,0.0,0.0,-5.7992,-5.7376,-5.6753,-5.6945,-5.7492,-5.805,-5.8261,-5.9415,-6.055,-6.0742,-6.0492,-6.0089,-5.9608,-6.0031,-6.0281,-5.9627,-6.0204,-6.08,-6.08,-6.0827,-6.0853,-6.0853,-6.0877,-6.0933,-6.1028,-6.1189,-6.1336,-6.1481,-6.1625,-6.1698,-6.1698,-6.1698,-6.1698,-6.1698,-6.1503,-6.1408,-6.1408,-6.0549,-6.0102,-6.0104,-5.9226,-5.9224,-6.01,-5.9291,-5.9201,-5.9704,-5.8873,-5.8336,-5.8011,-5.7313,-5.6522,-5.5703,-5.5703,-5.5703,-5.5703,-5.5703,-5.5703,-5.5703,-5.5703,-5.5568,-5.5299,0.0,0.0,0.0,0.0,0.0,0.0,0.0,0.0,0.0,0.0,0.0,0.0,0.0,0.0,0.0,0.0,0.0,0.0,0.0,0.0,-6.08,-6.08,-6.08,-6.08,-6.08,-6.08,-6.08,-6.08,-6.08,-6.08,-6.08,-6.08,-6.08,-6.08,-6.08,-6.08,-6.08,-6.08,-6.08,-6.08,-6.08,0.0,0.0,0.0,0.0,0.0,0.0,0.0,0.0,0.0,0.0,0.0,0.0,0.0,-5.7099,-5.7099,-5.6483,-5.5972,-5.6791,-5.706,-5.728,-5.8107,-5.8954,-5.9819,-6.0608,-5.9608,-5.8665,-5.9358,-5.955,-5.9569,-5.9511,-6.0204,-6.08,-6.08,-6.0911,-6.0993,-6.0993,-6.1095,-6.1158,-6.1172,-6.1353,-6.1481,-6.151,-6.1625,-6.1698,-6.1698,-6.1698,-6.1698,-6.1698,-6.0939,-6.049,-6.049,-5.9651,-5.9187,-5.9197,-5.8338,-5.8334,-5.918,-5.8995,-5.8929,-5.8973,-5.8657,-5.8044,-5.7272,-5.7088,-5.6522,-5.5703,-5.5703,-5.5703,-5.5703,-5.5703,-5.5703,-5.5703,-5.5703,-5.5222,-5.4453,0.0,0.0,0.0,0.0,0.0,0.0,0.0,0.0,0.0,0.0,0.0,0.0,0.0,0.0,0.0,0.0,0.0,0.0,0.0,-6.0835,-6.08,-6.08,-6.08,-6.08,-6.08,-6.08,-6.08,-6.08,-6.08,-6.08,-6.08,-6.08,-6.08,-6.08,-6.08,-6.08,-6.08,-6.08,-6.08,-6.08,-6.08,0.0,0.0,0.0,0.0,0.0,0.0,0.0,0.0,0.0,-5.6684,-5.6684,-5.6684,-5.6453,-5.6195,-5.6195,-5.5953,-5.5761,-5.6088,-5.6973,-5.7761,-5.753,-5.8492,-5.9588,-5.9915,-5.9492,-5.93,-6.0127,-6.03,-6.03,-6.03,-6.0569,-6.08,-6.08,-6.0902,-6.1002,-6.1002,-6.1128,-6.124,-6.1365,-6.1446,-6.1532,-6.1621,-6.1668,-6.1483,-6.0939,-6.0881,-6.0646,-6.0117,-5.9768,-5.9592,-5.9592,-5.876,-5.8297,-5.8281,-5.7465,-5.7213,-5.754,-5.7487,-5.7687,-5.807,-5.7472,-5.7197,-5.7164,-5.6569,-5.6077,-5.5703,-5.5703,-5.5703,-5.5703,-5.5703,-5.5703,-5.5703,-5.5703,-5.5184,-5.4376,0.0,0.0,0.0,0.0,0.0,0.0,0.0,0.0,0.0,0.0,0.0,0.0,0.0,0.0,0.0,0.0,0.0,0.0,-6.0872,-6.0585,-6.0512,-6.0781,-6.08,-6.08,-6.08,-6.08,-6.08,-6.08,-6.08,-6.08,-6.08,-6.08,-6.08,-6.08,-6.08,-6.08,-6.08,-6.08,-6.08,-6.08,-6.08,-6.0281,0.0,0.0,0.0,0.0,0.0,0.0,0.0,0.0,-5.5703,-5.5703,-5.5703,-5.5703,-5.5703,-5.5703,-5.5876,-5.6107,-5.6107,-5.6973,-5.7819,-5.7492,-5.8069,-5.8858,-5.9377,-5.9492,-5.9742,-6.0608,-6.08,-6.08,-6.08,-6.08,-6.0816,-6.0864,-6.0983,-6.109,-6.1147,-6.1272,-6.1402,-6.1545,-6.1553,-6.1595,-6.1696,-6.1444,-6.1037,-6.0432,-6.0159,-5.9729,-5.9122,-5.8831,-5.8695,-5.8695,-5.7865,-5.7423,-5.7426,-5.6886,-5.6596,-5.6597,-5.6597,-5.6837,-5.7252,-5.6666,-5.6572,-5.6838,-5.6192,-5.5817,-5.5703,-5.5703,-5.5703,-5.5703,-5.5703,-5.5703,-5.5665,-5.5415,-5.4799,-5.3953,0.0,0.0,0.0,0.0,0.0,0.0,0.0,0.0,0.0,0.0,0.0,0.0,0.0,0.0,0.0,0.0,0.0,0.0,-6.0776,-6.0027,-5.9896,-6.0742,-6.08,-6.08,-6.08,-6.08,-6.08,-6.08,-6.08,-6.08,-6.08,-6.08,-6.08,-6.08,-6.08,-6.08,-6.08,-6.08,-6.08,-6.08,-6.08,-6.0281,-5.9415,0.0,0.0,0.0,0.0,0.0,0.0,0.0,-5.5703,-5.5703,-5.5703,-5.5703,-5.5703,-5.5703,-5.6329,-5.7003,-5.6983,-5.6983,-5.7214,-5.8069,-5.7646,-5.7464,-5.9127,-5.9492,-5.9742,-6.0608,-6.08,-6.08,-6.08,-6.08,-6.0842,-6.0983,-6.112,-6.1272,-6.1471,-6.1602,-6.1679,-6.1698,-6.1679,-6.1679,-6.1679,-6.0881,-6.0373,-6.0373,-5.9573,-5.9083,-5.9083,-5.8265,-5.7797,-5.7797,-5.7026,-5.6605,-5.6593,-5.6597,-5.6601,-5.6601,-5.6601,-5.66,-5.6592,-5.6461,-5.6333,-5.6199,-5.5986,-5.5827,-5.5703,-5.5703,-5.5703,-5.5703,-5.5703,-5.5703,-5.5588,-5.478,-5.3933,-5.3068,0.0,0.0,0.0,0.0,0.0,0.0,0.0,0.0,0.0,0.0,0.0,0.0,0.0,0.0,0.0,0.0,0.0,0.0,-5.9967,-5.968,-5.9627,-5.9877,-6.0473,-6.08,-6.08,-6.08,-6.08,-6.08,-6.08,-6.08,-6.0812,-6.089,-6.088,-6.0793,-6.0901,-6.088,-6.08,-6.08,-6.08,-6.08,-6.08,-6.0646,-6.0262,0.0,0.0,0.0,0.0,0.0,0.0,0.0,0.0,0.0,-5.5703,-5.6107,-5.6503,-5.5876,-5.6329,-5.6868,-5.6252,-5.6541,-5.706,-5.733,-5.8069,-5.8896,-5.9396,-5.9492,-5.9742,-6.0608,-6.08,-6.08,-6.08,-6.08,-6.0804,-6.0853,-6.0974,-6.109,-6.1139,-6.078,-6.054,-6.0625,-6.0091,-5.9762,-5.9861,-5.9631,-5.9222,-5.8616,-5.8324,-5.7933,-5.7367,-5.7094,-5.6962,-5.6967,-5.6723,-5.6593,-5.6597,-5.6601,-5.6601,-5.6601,-5.6601,-5.6601,-5.6597,-5.655,-5.6413,-5.6205,-5.6136,-5.5938,-5.5703,-5.5703,-5.5703,-5.5703,-5.5703,-5.5338,-5.4818,-5.4587,-5.3568,-5.225,0.0,0.0,0.0,0.0,0.0,0.0,0.0,0.0,0.0,0.0,-6.1008,-6.1029,0.0,0.0,0.0,0.0,0.0,0.0,0.0,-5.9534,-5.9492,-5.9492,-6.0319,-6.08,-6.08,-6.08,-6.08,-6.08,-6.08,-6.08,-6.0812,-6.0943,-6.0954,-6.0869,-6.0964,-6.078,-6.0396,-6.0327,-6.0108,-5.98,-5.98,-5.98,-5.9665,0.0,0.0,0.0,0.0,0.0,0.0,0.0,0.0,0.0,-5.5703,-5.6049,-5.6387,-5.5838,-5.6329,-5.6964,-5.678,-5.7126,-5.7684,-5.8349,-5.9011,-5.9588,-5.9935,-6.0012,-6.0165,-6.0685,-6.08,-6.08,-6.08,-6.08,-6.0816,-6.0867,-6.0953,-6.0914,-6.0644,-6.0243,-5.9905,-5.9647,-5.9192,-5.8929,-5.9011,-5.8761,-5.8363,-5.7836,-5.7504,-5.7113,-5.6626,-5.661,-5.6595,-5.6602,-5.6592,-5.6597,-5.6599,-5.6601,-5.6601,-5.6601,-5.6601,-5.6601,-5.6601,-5.66,-5.6443,-5.6195,-5.6082,-5.5909,-5.5703,-5.5703,-5.5511,-5.5222,-5.5222,-5.4722,-5.3933,-5.3587,-5.2799,-5.1846,0.0,0.0,0.0,0.0,0.0,0.0,0.0,0.0,0.0,0.0,-6.099,-6.0999,0.0,0.0,0.0,0.0,0.0,0.0,0.0,0.0,-5.9492,-5.9492,-6.0319,-6.08,-6.08,-6.08,-6.08,-6.08,-6.08,-6.08,-6.0812,-6.0943,-6.1002,-6.1002,-6.0943,-6.0498,-5.9774,-5.9517,-5.8976,-5.83,-5.83,-5.83,-5.8204,-5.7319,0.0,0.0,0.0,0.0,0.0,0.0,0.0,0.0,-5.5703,-5.5742,-5.5799,-5.5722,-5.6329,-5.7176,-5.7973,-5.8184,-5.8588,-6.0262,-6.0146,-5.9838,-6.0608,-6.08,-6.08,-6.08,-6.08,-6.08,-6.08,-6.0742,-6.0726,-6.0848,-6.08,-6.0536,-5.9932,-5.9779,-5.9437,-5.8654,-5.8604,-5.8637,-5.865,-5.8052,-5.7675,-5.7699,-5.7016,-5.6606,-5.6606,-5.6596,-5.6602,-5.6603,-5.6596,-5.656,-5.6483,-5.6484,-5.6445,-5.6367,-5.6445,-5.6484,-5.6484,-5.6562,-5.6452,-5.6179,-5.5913,-5.5719,-5.5598,-5.5598,-5.5107,-5.4376,-5.4376,-5.3857,-5.2991,-5.2192,-5.1846,-5.1692,0.0,0.0,0.0,0.0,0.0,0.0,0.0,0.0,0.0,0.0,0.0,0.0,0.0,0.0,0.0,0.0,0.0,0.0,0.0,0.0,-5.9492,-5.9492,-6.0319,-6.08,-6.08,-6.08,-6.08,-6.08,-6.08,-6.08,-6.0812,-6.0943,-6.1002,-6.0983,-6.0444,-6.0068,-5.9745,-5.9012,-5.8557,-5.83,-5.83,-5.83,-5.8204,-5.7319,-5.7003,0.0,0.0,0.0,0.0,0.0,0.0,0.0,-5.5703,-5.6175,-5.6599,-5.5895,-5.6329,-5.7041,-5.7234,-5.7291,-5.7684,-5.9358,-6.0146,-6.0569,-6.0762,-6.08,-6.08,-6.08,-6.08,-6.08,-6.08,-6.0242,-5.9804,-5.981,-5.9301,-5.883,-5.869,-5.8074,-5.7612,-5.7525,-5.6935,-5.6627,-5.6844,-5.6718,-5.6693,-5.6858,-5.6704,-5.6608,-5.6598,-5.66,-5.6607,-5.6597,-5.6599,-5.6268,-5.5586,-5.5586,-5.5234,-5.457,-5.5254,-5.5586,-5.5605,-5.6289,-5.646,-5.6184,-5.5974,-5.5449,-5.4765,-5.4762,-5.4241,-5.3491,-5.3491,-5.2953,-5.2154,-5.1962,-5.151,-5.0933,0.0,0.0,0.0,0.0,0.0,0.0,0.0,0.0,0.0,0.0,0.0,0.0,0.0,0.0,0.0,0.0,0.0,0.0,0.0,-5.93,-5.9685,-6.0108,-6.055,-6.08,-6.08,-6.08,-6.08,-6.08,-6.08,-6.08,-6.0812,-6.0943,-6.1002,-6.0963,-6.029,-5.9738,-5.9207,-5.8271,-5.7612,-5.7158,-5.7074,-5.7069,-5.7011,-5.6549,-5.6387,-5.6329,-5.5857,0.0,0.0,0.0,0.0,0.0,0.0,0.0,-5.6291,-5.5818,-5.6011,-5.6483,-5.6887,-5.7311,-5.8011,-5.9704,-6.0454,-6.08,-6.08,-6.0473,-6.0185,-6.0185,-6.0185,-6.0185,-6.0185,-5.9492,-5.8934,-5.8934,-5.8569,-5.8146,-5.7742,-5.728,-5.6872,-5.6512,-5.6143,-5.5943,-5.6091,-5.6212,-5.6312,-5.6351,-5.6429,-5.6452,-5.6461,-5.6492,-5.6339,-5.599,-5.5975,-5.5566,-5.4687,-5.4687,-5.4453,-5.4004,-5.4453,-5.4687,-5.4707,-5.5543,-5.5794,-5.5551,-5.4989,-5.4411,-5.3878,-5.3886,-5.3356,-5.2577,-5.2577,-5.2068,-5.1337,-5.1337,-5.1048,-5.0712,0.0,0.0,0.0,0.0,0.0,0.0,0.0,0.0,0.0,0.0,0.0,0.0,0.0,0.0,0.0,0.0,0.0,0.0,0.0,-5.905,-5.9819,-6.0531,-6.0723,-6.08,-6.08,-6.0646,-6.0646,-6.08,-6.0512,-6.0512,-6.0812,-6.0902,-6.0983,-6.0963,-6.0135,-5.9373,-5.8628,-5.7494,-5.6579,-5.5898,-5.5768,-5.5637,-5.5491,-5.5491,-5.5395,-5.5261,-5.5261,-5.5376,-5.5491,-5.5491,0.0,0.0,0.0,0.0,-5.5261,-5.5261,-5.5261,-5.5453,-5.6329,-5.7415,-5.8665,-6.0185,-6.0685,-6.0762,-6.0608,-6.0012,-5.9454,-5.9319,-5.93,-5.93,-5.93,-5.8627,-5.8088,-5.8088,-5.7953,-5.7607,-5.6887,-5.6791,-5.6522,-5.578,-5.5798,-5.5872,-5.5907,-5.6097,-5.6186,-5.6104,-5.6197,-5.6217,-5.6106,-5.6156,-5.585,-5.509,-5.5077,-5.4668,-5.3789,-5.3789,-5.3691,-5.3555,-5.3691,-5.3848,-5.4023,-5.4539,-5.4744,-5.4675,-5.3877,-5.3328,-5.3022,-5.2992,-5.2472,-5.1692,-5.1692,-5.1298,-5.0712,-5.0712,-5.0712,-5.0712,0.0,0.0,0.0,0.0,0.0,0.0,0.0,0.0,0.0,0.0,-6.0336,-5.9765,-5.9715,-5.8862,0.0,0.0,0.0,0.0,-5.83,0.0,0.0,-5.9665,-6.0396,-6.08,-6.08,-6.0069,-6.0031,-6.08,-5.9358,-5.9377,-6.08,-6.0816,-6.088,-6.0944,-5.9514,-5.881,-5.8603,-5.7004,-5.6178,-5.5898,-5.5827,-5.5332,-5.4664,-5.4664,-5.4184,-5.353,-5.353,-5.403,-5.4664,-5.4664,-5.4664,0.0,0.0,0.0,-5.353,-5.353,-5.353,-5.3722,-5.4607,-5.653,-5.8531,-5.9435,-6.0242,-6.0589,-5.9858,-5.9588,-5.93,-5.8607,-5.8473,-5.8473,-5.8473,-5.7761,-5.7176,-5.7176,-5.653,-5.6011,-5.5876,-5.5857,-5.5818,-5.5703,-5.5716,-5.5769,-5.5898,-5.5938,-5.5998,-5.6091,-5.6116,-5.588,-5.5298,-5.5269,-5.494,-5.4199,-5.418,-5.3769,-5.2871,-5.2871,-5.248,-5.1758,-5.2519,-5.3262,-5.3984,-5.3339,-5.3408,-5.4025,-5.372,-5.3119,-5.2314,-5.2155,-5.1587,-5.0856,-5.0856,-5.0789,-5.0712,-5.0712,-5.0712,-5.0712,0.0,0.0,0.0,0.0,0.0,0.0,0.0,0.0,0.0,0.0,0.0,-5.9611,-5.908,-5.8219,0.0,0.0,0.0,0.0,-5.7541,-5.8357,0.0,0.0,-5.9877,-6.0069,-6.0069,-5.9704,-5.9473,-5.9396,-5.8665,-5.8915,-6.0069,-6.0069,-6.0404,-6.0925,-5.9398,-5.8733,-5.8707,-5.7031,-5.5942,-5.5324,-5.5236,-5.521,-5.5129,-5.4136,-5.4126,-5.4472,-5.3549,-5.3453,-5.378,-5.378,-5.378,-5.378,-5.378,0.0,0.0,0.0,-5.3203,-5.3491,-5.4799,-5.5992,-5.7165,-5.8511,-5.9127,-5.93,-5.8915,-5.8454,-5.7992,-5.7627,-5.7184,-5.6992,-5.7473,-5.6857,-5.6272,-5.6272,-5.5953,-5.5703,-5.5703,-5.5703,-5.5703,-5.5703,-5.5703,-5.5726,-5.5779,-5.5448,-5.521,-5.5193,-5.4883,-5.4566,-5.4285,-5.4325,-5.4021,-5.33,-5.3261,-5.2851,-5.1973,-5.1973,-5.1777,-5.1406,-5.2285,-5.2637,-5.2558,-5.2656,-5.2846,-5.3082,-5.2503,-5.1954,-5.1465,-5.1371,-5.1095,-5.0712,-5.0712,-5.0712,-5.0712,-5.0712,-5.0712,-5.0712,0.0,0.0,0.0,0.0,0.0,0.0,0.0,0.0,0.0,0.0,0.0,-5.9244,-5.8578,0.0,0.0,0.0,0.0,0.0,-5.6637,0.0,0.0,0.0,0.0,-5.9396,-5.9204,-5.9204,-5.8896,-5.83,-5.7857,-5.828,-5.9492,-5.93,-5.9868,-6.1023,-5.9641,-5.897,-5.8806,-5.7357,-5.6164,-5.5263,-5.5098,-5.5084,-5.5075,-5.3955,-5.4164,-5.4876,-5.3395,-5.301,-5.3164,-5.2953,-5.2876,-5.2876,-5.2876,-5.2741,0.0,0.0,0.0,-5.2876,-5.4337,-5.5049,-5.5761,-5.7261,-5.7973,-5.8242,-5.803,-5.7473,-5.6945,-5.6714,-5.6145,-5.5895,-5.656,-5.6137,-5.5703,-5.5703,-5.5703,-5.5703,-5.5703,-5.5703,-5.5703,-5.5703,-5.5703,-5.5703,-5.5703,-5.5066,-5.4612,-5.4502,-5.3917,-5.3462,-5.3269,-5.3393,-5.3125,-5.2381,-5.2363,-5.2051,-5.1406,-5.1406,-5.1406,-5.1406,-5.2051,-5.2031,-5.1426,-5.207,-5.232,-5.2179,-5.1506,-5.1105,-5.0966,-5.0928,-5.0833,-5.074,-5.0712,-5.0712,-5.0712,-5.0712,-5.0712,-5.0712,0.0,0.0,0.0,0.0,0.0,0.0,0.0,0.0,0.0,0.0,0.0,0.0,-5.85,-5.7718,-5.6811,-5.5884,-5.5797,0.0,0.0,0.0,0.0,0.0,0.0,0.0,-5.8377,-5.8357,-5.8338,-5.83,-5.6646,-5.7088,-5.9473,-5.8723,-5.9408,-6.1246,-6.0333,-5.9549,-5.8831,-5.7993,-5.7122,-5.6308,-5.6039,-5.4959,-5.3591,-5.4198,-5.3972,-5.3222,-5.2288,-5.25,-5.3068,-5.225,-5.1962,-5.1962,-5.1962,-5.1433,-5.0827,0.0,0.0,0.0,-5.1865,-5.3299,-5.4761,-5.5626,-5.7088,-5.8088,-5.7272,-5.7041,-5.6772,-5.5934,-5.5722,-5.5703,-5.5761,-5.5722,-5.5703,-5.5703,-5.5703,-5.5703,-5.5703,-5.5703,-5.5703,-5.5703,-5.5703,-5.5703,-5.5703,-5.4983,-5.4502,-5.4491,-5.3825,-5.3118,-5.2396,-5.2492,-5.2236,-5.1484,-5.1465,-5.1445,-5.1406,-5.1406,-5.1406,-5.1406,-5.1445,-5.1445,-5.1406,-5.1445,-5.1465,-5.1445,-5.1271,-5.1193,-5.1174,-5.0985,-5.0906,-5.0882,-5.0749,-5.0712,-5.0712,-5.0712,-5.0712,-5.0712,0.0,0.0,0.0,0.0,0.0,0.0,0.0,0.0,0.0,0.0,0.0,0.0,0.0,-5.7544,-5.693,-5.5953,-5.5796,0.0,0.0,0.0,0.0,0.0,0.0,0.0,-5.7473,-5.8011,-5.7742,-5.6626,-5.6011,-5.6453,-5.7896,-5.8165,-5.8741,-5.9557,-5.9295,-5.9109,-5.8933,-5.756,-5.6477,-5.5622,-5.5475,-5.5269,-5.4979,-5.4108,-5.4207,-5.4626,-5.3241,-5.2577,-5.2308,-5.2,-5.1568,-5.1125,-5.1125,-5.0933,-5.0712,-5.0712,-5.0712,-5.0875,-5.1673,-5.2365,-5.3029,-5.3876,-5.4991,-5.578,-5.5472,-5.578,-5.6069,-5.5761,-5.5703,-5.5703,-5.5703,-5.5703,-5.5703,-5.5703,-5.5703,-5.5703,-5.5703,-5.5703,-5.5703,-5.5703,-5.5703,-5.5703,-5.5703,-5.4472,-5.3664,-5.3664,-5.2543,-5.1752,-5.1531,-5.1703,-5.1674,-5.1406,-5.1406,-5.1406,-5.1406,-5.1406,-5.1406,-5.1406,-5.1406,-5.1406,-5.1406,-5.1406,-5.1406,-5.1406,-5.1355,-5.1291,-5.119,-5.1036,-5.0944,-5.0898,-5.0749,-5.0712,-5.0712,-5.0712,-5.0712,-5.0616,0.0,0.0,0.0,0.0,0.0,0.0,0.0,0.0,-6.0198,-5.9905,0.0,0.0,0.0,0.0,-5.6997,-5.6029,-5.5816,-5.5745,-5.5775,-5.5724,0.0,0.0,0.0,0.0,-5.7022,-5.7569,-5.73,-5.6137,-5.5568,-5.5876,-5.7003,-5.7588,-5.8122,-5.8538,-5.8016,-5.8267,-5.9005,-5.7925,-5.6771,-5.5661,-5.5567,-5.5607,-5.5598,-5.4692,-5.4934,-5.5586,-5.4198,-5.3301,-5.2673,-5.2096,-5.1548,-5.1048,-5.0789,-5.05,-5.0212,-4.9913,-5.0029,-5.0375,-5.0914,-5.1462,-5.2115,-5.2991,-5.3645,-5.4145,-5.4434,-5.4684,-5.4857,-5.4857,-5.4857,-5.4857,-5.4857,-5.4857,-5.5049,-5.5607,-5.5703,-5.5703,-5.5703,-5.5703,-5.5703,-5.5703,-5.5703,-5.5703,-5.5703,-5.4453,-5.3636,-5.3627,-5.2269,-5.1463,-5.1532,-5.1453,-5.1406,-5.1406,-5.1406,-5.1406,-5.1406,-5.1406,-5.1406,-5.1406,-5.1406,-5.1406,-5.1406,-5.1406,-5.1406,-5.1406,-5.1402,-5.1349,-5.126,-5.1131,-5.1016,-5.0916,-5.0808,-5.073,-5.0712,-5.0712,-5.0519,-5.0183,0.0,0.0,0.0,0.0,0.0,0.0,0.0,0.0,-6.0592,-6.1412,0.0,0.0,0.0,0.0,0.0,-5.6161,-5.5943,-5.5875,-5.5933,-5.5785,0.0,0.0,0.0,0.0,-5.7022,-5.7003,-5.7003,-5.7003,-5.5338,-5.5357,-5.6964,-5.6964,-5.7476,-5.8352,-5.6726,-5.7078,-5.8889,-5.8998,-5.8105,-5.6582,-5.6397,-5.5856,-5.5207,-5.5891,-5.6056,-5.5799,-5.5006,-5.464,-5.4241,-5.2538,-5.1942,-5.175,-5.0952,-5.0106,-4.926,-4.8394,-4.874,-4.9394,0.0,0.0,0.0,-5.2914,-5.3145,-5.3376,-5.4222,-5.3799,-5.3203,-5.3203,-5.3203,-5.3203,-5.3203,-5.3203,-5.3741,-5.5395,-5.5665,-5.5665,-5.5703,-5.5703,-5.5703,-5.5703,-5.5703,-5.5703,-5.5703,-5.4972,-5.4503,-5.4496,-5.3138,-5.2325,-5.2407,-5.1755,-5.1406,-5.1406,-5.1406,-5.1406,-5.1406,-5.1406,-5.1406,-5.1406,-5.1406,-5.1406,-5.1406,-5.1406,-5.1406,-5.1406,-5.1402,-5.1398,-5.1395,-5.1245,-5.1123,-5.099,-5.0889,-5.078,-5.0654,-5.0635,-5.0087,-4.9356,0.0,0.0,0.0,0.0,0.0,-6.1484,-6.0859,-6.0546,-6.0251,0.0,0.0,0.0,-5.8111,-5.7695,-5.7591,-5.792,-5.7303,-5.6863,-5.684,-5.6222,-5.5826,-5.5797,-5.6845,-5.7305,-5.7003,-5.7003,-5.7003,-5.7003,-5.5895,-5.5607,-5.6049,-5.6049,-5.6239,-5.6532,-5.6156,-5.5986,-5.5947,-5.5533,-5.5834,-5.6484,-5.5193,-5.5215,-5.5984,-5.5468,-5.5527,-5.5863,-5.5538,-5.5024,-5.4434,-5.3933,-5.2953,-5.175,-5.0952,-5.0539,-5.0173,-4.9298,-4.9202,-4.9394,-4.9394,0.0,0.0,0.0,0.0,0.0,-5.2558,-5.2933,-5.3203,-5.3203,-5.3203,-5.3203,-5.3203,-5.3203,-5.3568,-5.4645,-5.4818,-5.503,-5.5607,-5.5703,-5.5703,-5.5703,-5.5703,-5.5703,-5.5703,-5.4975,-5.4505,-5.4496,-5.3184,-5.2383,-5.2411,-5.1755,-5.1406,-5.1406,-5.1406,-5.1406,-5.1406,-5.1406,-5.1406,-5.1406,-5.1406,-5.1406,-5.1406,-5.1406,-5.1406,-5.1406,-5.1402,-5.1398,-5.1374,-5.1148,-5.1036,-5.0926,-5.0127,-4.9797,-4.9683,-4.9048,-4.8663,-4.8375,0.0,0.0,0.0,-6.1699,-6.1699,-6.1523,-6.1015,-6.0937,-6.0762,0.0,0.0,0.0,-5.835,-5.8172,-5.8304,-5.8743,-5.791,-5.7331,-5.7321,-5.6424,-5.5885,-5.5836,-5.6645,-5.7065,-5.7003,-5.6637,-5.6637,-5.7003,-5.578,-5.5376,-5.5703,-5.5703,-5.5532,-5.5246,-5.4983,-5.4649,-5.42,-5.3175,-5.3799,-5.5425,-5.4785,-5.5094,-5.5929,-5.5694,-5.5775,-5.6008,-5.5949,-5.5509,-5.4895,-5.4184,-5.2818,-5.126,-5.0414,-5.0164,-4.999,-4.9106,-4.8856,-4.8856,-4.8856,-4.8856,-4.9144,-5.0385,0.0,0.0,-5.1318,-5.151,-5.151,-5.1144,-5.1645,-5.2049,-5.1683,-5.2202,-5.2818,-5.3337,-5.3722,-5.4376,-5.553,-5.5703,-5.5703,-5.5703,-5.5703,-5.5703,-5.5703,-5.5294,-5.5045,-5.5084,-5.376,-5.266,-5.203,-5.1613,-5.1406,-5.1406,-5.1406,-5.1406,-5.1406,-5.1406,-5.1406,-5.1406,-5.1406,-5.1406,-5.1406,-5.1406,-5.1211,-5.0898,-5.0875,-5.0631,-5.0262,-5.0033,-5.0173,-5.0427,-4.9745,-4.9218,-4.8798,-4.8298,-4.7894,-4.7528,0.0,0.0,-6.1699,-6.1699,-6.1699,-6.1699,-6.1699,-6.1699,-6.1699,0.0,-6.0937,-6.0115,-5.9372,-5.9211,-5.9173,-5.921,-5.8209,-5.7593,-5.7625,-5.6549,-5.5914,-5.5895,-5.6588,-5.6979,-5.7003,-5.6156,-5.6126,-5.7003,-5.5415,-5.4991,-5.5703,-5.5511,-5.503,-5.4329,-5.3427,-5.3097,-5.3131,-5.1709,-5.2079,-5.3684,-5.4625,-5.5116,-5.5369,-5.6028,-5.6185,-5.6067,-5.5922,-5.5675,-5.5196,-5.3598,-5.2068,-5.0683,-4.9817,-4.9529,-4.9375,-4.8509,-4.8182,-4.8105,-4.8105,-4.8029,-4.8375,-5.0106,-4.9894,0.0,-5.0481,-5.0029,-4.9202,-4.8529,-4.9625,-5.0462,-4.9683,-5.076,-5.1788,-5.1885,-5.2538,-5.3645,-5.5318,-5.5645,-5.5742,-5.5818,-5.5838,-5.5838,-5.5838,-5.592,-5.5933,-5.5895,-5.4524,-5.3036,-5.1484,-5.1406,-5.1406,-5.1406,-5.1406,-5.1406,-5.1406,-5.1406,-5.1406,-5.1406,-5.1406,-5.1348,-5.1269,-5.1269,-5.082,-5.0058,-4.9996,-4.9489,-4.8697,-4.8555,-4.8949,-4.9612,-4.9384,-4.8745,-4.7971,-4.7855,-4.7375,-4.6759,-6.1699,-6.1699,-6.1699,-6.1699,-6.1699,-6.1699,-6.1699,-6.1699,-6.1699,-6.1699,-6.0937,-6.0605,-6.1112,-6.0545,-6.0383,-6.103,-5.9557,-5.8568,-5.8461,-5.6908,-5.596,-5.5905,-5.6039,-5.6424,-5.6983,-5.6156,-5.6126,-5.7003,-5.5972,-5.5549,-5.5665,-5.4318,-5.3606,-5.3395,-5.1943,-5.1338,-5.1398,-5.1253,-5.1417,-5.1884,-5.277,-5.3997,-5.5214,-5.4473,-5.466,-5.5178,-5.4149,-5.381,-5.3683,-5.2541,-5.1942,-5.1529,-5.0702,-5.0462,-5.0289,-4.9394,-4.8644,-4.8105,-4.8105,-4.7625,-4.7548,-4.9221,-4.899,0.0,-5.0346,-5.0029,-4.9548,-5.0067,-5.0462,-5.0654,-5.0481,-5.0702,-5.1144,-5.1788,-5.2038,-5.275,-5.4491,-5.528,-5.5953,-5.6656,-5.6753,-5.6753,-5.6753,-5.6856,-5.6637,-5.5953,-5.4531,-5.303,-5.1484,-5.1406,-5.1406,-5.1406,-5.1406,-5.1406,-5.1406,-5.1406,-5.1406,-5.1406,-5.1406,-5.1055,-5.043,-5.043,-4.9961,-4.914,-4.9136,-4.8961,-4.8697,-4.8555,-4.8547,-4.8512,-4.7736,-4.7314,-4.7048,-4.6355,-4.5998,-4.5855,-6.1699,-6.1699,-6.1699,-6.1699,-6.1699,-6.1699,-6.1699,-6.1699,-6.1699,-6.1699,-6.1328,-6.1055,-6.1055,-6.1055,-6.121,-6.1613,-6.0388,-5.9366,-5.884,-5.7521,-5.6496,-5.5924,-5.5895,-5.6048,-5.6349,-5.5915,-5.5915,-5.6349,-5.5915,-5.5491,-5.5068,-5.4241,-5.3376,-5.2529,-5.1741,-5.0968,-5.0291,-5.0853,-5.0672,-5.0169,-5.1934,-5.3199,-5.3984,-5.3854,-5.4072,-5.4355,-5.3643,-5.3069,-5.2501,-5.1597,-5.1298,-5.1164,-5.0317,-5.0346,-5.0539,-4.9663,-4.8779,-4.8009,-4.7605,-4.6894,-4.6567,-4.7836,-4.7817,0.0,0.0,-4.8779,-4.8644,-4.8249,-4.9519,-5.0442,-4.9548,-5.0106,-5.0683,-5.0664,-5.1346,-5.2058,-5.2529,-5.4049,-5.5568,-5.6849,-5.7003,-5.7176,-5.7607,-5.7377,-5.6695,-5.5493,-5.4338,-5.3192,-5.2059,-5.162,-5.1406,-5.1406,-5.1406,-5.1211,-5.0801,-5.0801,-5.0586,-5.0156,-5.0156,-4.9941,-4.9551,-4.9551,-4.9082,-4.8242,-4.8211,-4.7862,-4.7303,-4.7187,-4.7067,-4.6954,-4.691,-4.6624,-4.6201,-4.5768,-4.5594,-4.5594,-6.1699,-6.1699,-6.1699,-6.1699,-6.1699,-6.1699,-6.1699,-6.1699,-6.1699,-6.1699,-6.1699,-6.1426,-6.0723,-6.1289,-6.1699,-6.1699,-6.0848,-5.9907,-5.896,-5.8015,-5.7094,-5.6165,-5.5972,-5.5933,-5.5945,-5.578,-5.5703,-5.5703,-5.553,-5.5145,-5.4491,-5.4164,-5.326,-5.1895,-5.1818,-5.1062,-4.9917,-5.0712,-5.0343,-4.9406,-5.1573,-5.2343,-5.2285,-5.3118,-5.3409,-5.3325,-5.3166,-5.2484,-5.1568,-5.0914,-5.0712,-5.0577,-4.9875,-5.0125,-5.0558,-4.9856,-4.9029,-4.8221,-4.7567,-4.6624,-4.6047,-4.6932,-4.6894,-4.674,0.0,0.0,0.0,-4.6317,-4.8288,-4.976,-4.8355,-4.9394,-5.0231,-4.951,-5.0548,-5.1298,-5.0971,-5.2702,-5.4684,-5.6541,-5.6907,-5.7291,-5.7973,-5.7377,-5.6383,-5.4996,-5.4154,-5.3373,-5.2635,-5.1831,-5.1406,-5.1406,-5.125,-5.0859,-5.0215,-5.0039,-4.9609,-4.8906,-4.8906,-4.8808,-4.8652,-4.8652,-4.8164,-4.7344,-4.729,-4.6747,-4.5894,-4.5836,-4.574,-4.5671,-4.6374,-4.622,-4.5594,-4.5594,-4.5594,-4.5594,-6.1699,-6.1699,-6.1699,-6.1699,-6.1699,-6.1699,-6.1699,-6.1699,-6.1699,-6.1699,-6.1699,-6.166,-6.1562,-6.164,-6.1699,-6.1699,-6.0848,-5.9907,-5.896,-5.8015,-5.7346,-5.6975,-5.6281,-5.6202,-5.6849,-5.6088,-5.5703,-5.5703,-5.4991,-5.4587,-5.4472,-5.2933,-5.2096,-5.1875,-5.1294,-5.0965,-5.0867,-5.1141,-5.1199,-5.1122,-5.1437,-5.1088,-5.0479,-5.1177,-5.1522,-5.1648,-5.1391,-5.1099,-5.0827,-5.0731,-5.0712,-5.0673,-5.0577,-5.0616,-5.0673,-5.0577,-4.9933,-4.9221,-4.9144,-4.7952,-4.6951,-4.7759,-4.6855,-4.6144,-4.7625,0.0,-4.7173,-4.7721,0.0,-4.8336,-4.8144,0.0,0.0,-4.9413,-4.9567,-5.0164,-5.1558,-5.2,-5.3106,-5.5549,-5.6541,-5.7041,-5.7137,-5.6471,-5.5726,-5.4958,-5.4154,-5.3373,-5.2635,-5.1831,-5.1406,-5.1406,-5.0703,-5.0293,-5.0195,-4.9433,-4.9004,-4.8906,-4.8906,-4.8496,-4.7754,-4.7754,-4.7266,-4.6445,-4.6443,-4.6232,-4.5899,-4.5881,-4.577,-4.5614,-4.571,-4.5691,-4.5594,-4.5594,-4.5594,-4.5594,-6.1699,-6.1699,-6.1699,-6.1699,-6.1699,-6.1699,-6.1699,-6.1699,-6.1523,-6.1015,-6.1387,-6.1504,-6.0996,-6.1406,-6.1699,-6.1699,-6.1345,-6.0698,-5.972,-5.9299,-5.8713,-5.796,-5.711,-5.6773,-5.7056,-5.6199,-5.5745,-5.5703,-5.4895,-5.4241,-5.3722,-5.2481,-5.1684,-5.1301,-5.1033,-5.0707,-5.0404,-5.0986,-5.0445,-4.9284,-5.0212,-4.9802,-4.8846,-5.0594,-5.1283,-5.1271,-5.1159,-5.0992,-5.0741,-5.022,-5.0343,-5.0616,-5.0106,-5.0289,-5.0596,-5.0087,-4.9683,-4.9298,-4.8779,-4.7798,-4.7077,-4.7894,-4.7221,-4.6663,-4.7836,-4.824,-4.8298,-4.8125,0.0,0.0,0.0,0.0,0.0,0.0,-4.9817,-5.0221,-5.0414,-5.1722,-5.3414,-5.5453,-5.6011,-5.6071,-5.5602,-5.5739,-5.5335,-5.4107,-5.3754,-5.3278,-5.2584,-5.1787,-5.1362,-5.1406,-5.0625,-4.9961,-4.9453,-4.8574,-4.7891,-4.7383,-4.7383,-4.7207,-4.6855,-4.6855,-4.6641,-4.6308,-4.6228,-4.6089,-4.589,-4.5826,-4.5711,-4.5594,-4.5594,-4.5594,-4.5594,-4.5594,-4.5594,-4.5594,-6.1699,-6.1699,-6.1699,-6.1699,-6.1699,-6.1699,-6.1699,-6.1699,-6.1465,-6.084,-6.1308,-6.1465,-6.082,-6.1328,-6.1699,-6.1699,-6.1699,-6.1281,-6.0297,-6.0207,-5.9805,-5.8921,-5.7794,-5.7275,-5.7434,-5.6356,-5.567,-5.5376,-5.4549,-5.3703,-5.2837,-5.1972,-5.1326,-5.0894,-5.0908,-5.0689,-5.0297,-5.0962,-5.0245,-4.8736,-4.992,-4.9682,-4.8825,-5.0429,-5.1118,-5.1203,-5.1203,-5.0936,-5.0509,-4.987,-4.9842,-4.9931,-4.9295,-4.9518,-4.9856,-4.9221,-4.9048,-4.8913,-4.8279,-4.7682,-4.7375,-4.7952,-4.7663,-4.7394,-4.7971,-4.8413,-4.8663,-4.849,-4.926,0.0,0.0,0.0,-5.001,-4.9779,0.0,-5.0481,-4.9856,-5.1356,-5.3049,-5.4491,-5.5068,-5.5243,-5.4901,-5.5431,-5.5326,-5.4176,-5.3944,-5.3559,-5.2873,-5.2083,-5.1488,-5.1074,-5.0273,-4.9433,-4.8555,-4.7676,-4.6933,-4.6308,-4.6308,-4.6308,-4.6308,-4.6308,-4.6308,-4.6289,-4.6189,-4.604,-4.5885,-4.5783,-4.568,-4.5594,-4.5594,-4.5594,-4.5594,-4.5594,-4.5594,-4.5594,-6.1699,-6.1699,-6.1699,-6.1699,-6.1699,-6.1699,-6.1699,-6.1699,-6.1699,-6.166,-6.168,-6.1699,-6.166,-6.168,-6.1699,-6.1699,-6.1699,-6.1305,-6.0358,-6.0239,-6.0091,-5.9874,-5.8155,-5.7526,-5.8244,-5.6645,-5.54,-5.453,-5.3664,-5.2799,-5.1923,-5.1125,-5.0795,-5.0902,-5.0965,-5.105,-5.1164,-5.1333,-5.1344,-5.1281,-5.1325,-5.1324,-5.1181,-5.0426,-5.0581,-5.1203,-5.1203,-5.0612,-4.9831,-4.9792,-4.9155,0.0,0.0,-4.8257,-4.8182,-4.8144,-4.8144,-4.8144,-4.8105,-4.8086,-4.8067,-4.8086,-4.8086,-4.8067,-4.8086,-4.7528,-4.7432,-4.9029,-4.874,-4.8682,-5.0346,-5.1298,-5.1568,-5.0789,-5.0673,0.0,0.0,-5.0731,-5.1087,-5.1923,-5.351,-5.4858,-5.5671,-5.5778,-5.5817,-5.5818,-5.516,-5.444,-5.3702,-5.2968,-5.1857,-5.0293,-4.9394,-4.8516,-4.7656,-4.6777,-4.6328,-4.6308,-4.6308,-4.6308,-4.6308,-4.6308,-4.6308,-4.6308,-4.6235,-4.6081,-4.5894,-4.5842,-4.572,-4.5594,-4.5594,-4.5594,-4.5594,-4.5594,-4.5594,-4.5594,-6.1699,-6.1699,-6.1699,-6.1699,-6.1699,-6.1504,-6.0937,-6.1328,-6.1484,-6.0918,-6.1348,-6.1699,-6.1699,-6.1699,-6.1699,-6.1699,-6.1699,-6.1559,-6.1178,-6.1058,-6.0965,-6.0898,-5.9677,-5.8836,-5.8504,-5.7332,-5.6269,-5.528,-5.4472,-5.3914,-5.3587,-5.226,-5.1695,-5.1813,-5.1342,-5.1213,-5.1331,-5.1382,-5.1092,-5.0602,-5.0562,-5.0892,-5.1379,-5.1062,-5.1112,-5.1334,-5.1327,-5.0703,0.0,-4.9876,-4.9229,-4.8438,-4.8438,-4.8343,-4.824,-4.824,-4.8176,-4.8105,0.0,0.0,-4.7432,-4.7971,-4.8105,-4.8259,-4.8836,-4.8759,-4.9029,-5.0721,-5.0394,-5.0337,-5.2049,-5.2587,-5.2683,-5.2395,-5.1875,-5.1491,0.0,-5.1029,-5.0991,-5.1788,-5.2933,-5.3328,-5.2502,-5.3425,-5.3869,-5.336,-5.3142,-5.2959,-5.2845,-5.2111,-5.1225,-5.0234,-4.9355,-4.8476,-4.7617,-4.6738,-4.6308,-4.6308,-4.6308,-4.6308,-4.6308,-4.6308,-4.6308,-4.6289,-4.6173,-4.6043,-4.589,-4.577,-4.5688,-4.5594,-4.5594,-4.5594,-4.5594,-4.5594,-4.5594,-4.5594,-6.1699,-6.1699,-6.1699,-6.1699,-6.1699,-6.1504,-6.0957,-6.1348,-6.1504,-6.0937,-6.1348,-6.1699,-6.1699,-6.1699,-6.1699,-6.1699,-6.1699,-6.1678,-6.1647,-6.1523,-6.1463,-6.1463,-6.0533,-5.9587,-5.8653,-5.8028,-5.6889,-5.5273,-5.504,-5.4648,-5.4073,-5.2724,-5.2193,-5.2315,-5.1253,-5.1015,-5.1385,-5.1093,-5.0839,-5.0624,-5.0583,-5.0895,-5.1403,-5.1403,-5.1401,-5.1398,0.0,-5.0773,-4.9925,-4.9639,-4.89,-4.8059,-4.7733,-4.7556,-4.7456,-4.7456,-4.7368,-4.7279,-4.7279,-4.7092,0.0,-4.7548,-4.7894,-4.8413,-4.9586,-4.9625,-4.9875,-5.1538,-5.1741,-5.1741,-5.2222,-5.3049,-5.3376,-5.2452,-5.2087,-5.1788,0.0,-5.1029,-5.0894,-5.1414,-5.2222,-5.2433,-5.1664,-5.2568,-5.2982,-5.2464,-5.2492,-5.2476,-5.2344,-5.1877,-5.1015,-4.9702,-4.9179,-4.832,-4.7148,-4.6582,-4.6308,-4.6308,-4.6308,-4.6308,-4.6308,-4.6308,-4.6289,-4.6265,-4.6147,-4.6025,-4.5886,-4.5775,-4.5695,-4.564,-4.564,-4.5622,-4.5594,-4.5594,-4.5594,-4.5594,-6.1699,-6.1699,-6.1699,-6.1699,-6.1699,-6.1699,-6.164,-6.168,-6.168,-6.164,-6.168,-6.1699,-6.1699,-6.1699,-6.1699,-6.1699,-6.1699,-6.1699,-6.1699,-6.1645,-6.1605,-6.1607,-6.0746,-5.9785,-5.8796,-5.8699,-5.7321,-5.4593,-5.5371,-5.4988,-5.3464,-5.2593,-5.2317,-5.2483,-5.0764,-5.0535,-5.1346,-5.0547,-5.0664,-5.1406,-5.1406,-5.1406,-5.1406,-5.1406,-5.1405,-5.1399,-5.1398,-5.0832,-4.9972,-4.9165,-4.8244,-4.7265,-4.6388,-4.6013,-4.591,-4.591,-4.5865,-4.5794,-4.5794,-4.6314,-4.6845,-4.6845,-4.7461,0.0,0.0,-4.9865,-4.9769,-5.1433,-5.2414,-5.2501,-5.0981,-5.2674,-5.354,-5.1154,-5.1395,-5.1625,-5.0808,-5.0693,-5.0693,-5.0654,-5.1356,-5.2173,-5.301,-5.3106,-5.3145,-5.3145,-5.3157,-5.2884,-5.2223,-5.2272,-5.1226,-4.8773,-4.8823,-4.8066,-4.6328,-4.6308,-4.6308,-4.6308,-4.6308,-4.6308,-4.6308,-4.6308,-4.6265,-4.62,-4.6128,-4.6016,-4.5889,-4.5826,-4.5754,-4.5701,-4.5701,-4.5648,-4.5594,-4.5594,-4.5594,-4.5594,-6.1699,-6.1699,-6.1699,-6.1699,-6.1699,-6.1484,-6.082,-6.1289,-6.1465,-6.082,-6.1308,-6.1699,-6.1699,-6.1699,-6.1699,-6.1699,-6.1699,-6.1699,-6.1699,-6.1645,-6.1619,-6.1677,-6.1296,-6.0686,-5.9833,-5.9601,-5.8277,-5.5752,-5.6474,-5.6029,-5.4504,-5.3713,-5.3392,-5.3377,-5.1148,-5.0601,-5.1347,-5.0547,-5.0664,-5.1406,-5.1406,-5.1406,-5.1406,0.0,-5.1406,-5.1405,-5.1404,-5.0876,-5.0035,-4.9191,-4.8306,-4.7403,-4.6523,-4.6155,-4.6052,-4.6052,-4.5978,-4.5875,-4.5875,-4.597,-4.609,-4.609,-4.6648,-4.7323,0.0,0.0,0.0,-4.9765,-4.9823,-4.9795,-5.0557,-5.1241,-5.1665,-5.1606,-5.1769,-5.1616,-5.0808,-5.0693,-5.0471,-4.9884,-5.0519,-5.1106,-5.1318,-5.1875,-5.2231,-5.2231,-5.1713,-5.161,-5.2165,0.0,-5.0539,-4.8753,-4.8727,-4.796,-4.6328,-4.6308,-4.6308,-4.6308,-4.6308,-4.6308,-4.6308,-4.6243,-4.621,-4.6199,-4.6072,-4.5973,-4.5889,-4.5759,-4.5727,-4.5703,-4.5657,-4.5622,-4.5594,-4.5594,-4.5594,-4.5594,-6.1699,-6.1699,-6.1582,-6.1191,-6.1445,-6.1523,-6.1035,-6.1387,-6.1523,-6.1035,-6.1406,-6.1699,-6.1699,-6.1699,-6.1699,-6.1699,-6.1699,-6.1699,-6.1699,-6.1656,-6.1655,-6.1699,-6.1582,-6.1125,-6.0268,-6.0444,-5.9126,-5.6208,-5.7312,-5.6685,-5.4421,-5.3993,-5.3624,-5.3212,-5.0735,-5.0292,-5.1367,-5.0918,-5.0996,-5.1406,-5.1406,-5.1406,0.0,-5.1406,-5.1406,-5.1406,-5.1406,-5.1113,-5.0546,-4.9313,-4.857,-4.7945,-4.6693,-4.6251,-4.6191,-4.6191,-4.6083,-4.5985,-4.5985,-4.591,-4.584,-4.584,-4.6151,-4.6654,-4.7421,-4.7606,-4.7878,0.0,-4.9214,-4.9213,0.0,-4.9418,-5.0315,-5.0779,-5.0856,-5.0827,-5.0748,-5.0711,-5.0538,-5.0076,-5.0433,-5.0712,-5.0712,-5.1106,-5.1375,-5.1375,-5.0962,-5.0959,0.0,-5.0854,-4.9873,-4.8654,-4.8326,-4.7557,-4.6264,-4.6288,-4.6308,-4.6308,-4.6308,-4.6308,-4.6308,-4.6237,-4.6173,-4.615,-4.605,-4.5944,-4.5848,-4.5766,-4.5746,-4.5743,-4.5679,-4.5635,-4.5627,-4.5629,-4.5631,-4.5594,-6.1875,-6.1777,-6.1465,-6.0703,-6.1191,-6.1699,-6.1699,-6.1699,-6.1699,-6.1699,-6.1699,-6.1699,-6.1699,-6.1699,-6.1699,-6.1699,-6.1699,-6.1699,-6.1699,-6.1699,-6.1699,-6.1699,-6.1699,-6.1326,-6.0503,-6.1153,-5.9837,-5.6417,-5.7968,-5.7045,-5.3839,-5.3835,-5.3424,-5.2595,-5.0037,-4.9706,-5.1074,-5.1191,-5.1308,-5.1406,-5.1406,-5.1406,-5.1406,-5.1406,-5.1406,-5.1406,-5.1406,-5.1406,-5.1152,-4.9609,-4.8983,-4.8612,-4.6988,-4.6381,-4.6302,-4.6302,-4.6222,-4.6123,-4.6123,-4.6033,-4.5929,-4.5929,-4.5918,-4.6312,-4.7835,-4.8133,-4.8095,-4.8096,-4.9192,-4.9264,0.0,-4.761,-4.9164,-4.9164,-4.9356,-4.9732,-5.0377,-5.0506,-5.0498,-5.0402,-5.0481,0.0,-5.0539,-5.0635,-5.0712,-5.0712,-5.0712,-5.0731,0.0,0.0,-4.9304,-4.853,-4.7827,-4.7049,-4.6195,-4.6244,-4.6289,-4.6289,-4.6308,-4.6308,-4.6288,-4.6212,-4.6147,-4.608,-4.6008,-4.5917,-4.5807,-4.58,-4.5798,-4.5773,-4.5723,-4.5708,-4.57,-4.5698,-4.5657,-4.5603,-6.2773,-6.2187,-6.164,-6.1504,-6.1601,-6.1699,-6.1699,-6.1699,-6.1699,-6.1699,-6.1699,-6.1699,-6.1699,-6.1699,-6.1699,-6.1699,-6.1699,-6.1699,-6.1699,-6.1699,-6.1699,-6.1699,-6.1699,-6.1621,-6.1464,-6.1473,-6.0212,-5.7605,-5.8448,-5.7174,-5.3967,-5.3954,-5.351,-5.2596,-5.0038,-4.9062,-4.9375,-5.0117,-5.0781,-5.1406,-5.1406,-5.1406,-5.1406,-5.1406,-5.1406,-5.1406,-5.1406,-5.1406,-5.125,-5.0293,-4.9492,-4.8711,-4.7695,-4.6874,-4.6306,-4.6306,-4.6282,-4.6255,-4.6255,-4.6171,-4.605,-4.605,-4.602,-4.6064,-4.6372,-4.6473,-4.6491,-4.6429,-4.6643,-4.6629,-4.5899,0.0,-4.7447,-4.7447,-4.8604,-4.9316,-4.8817,-4.9305,-4.9464,-4.8797,-4.9313,-4.9691,-4.9634,-5.0289,-5.0712,-5.0712,-5.0712,-5.0731,-5.0793,0.0,-4.9211,0.0,-4.7679,0.0,0.0,0.0,-4.6212,-4.6212,-4.6268,-4.6267,-4.621,-4.6147,-4.6076,-4.6003,-4.5886,-4.5827,-4.58,-4.5791,-4.5773,-4.5723,-4.5765,-4.5758,-4.57,-4.5698,-4.5693,-4.5665,-6.2324,-6.1992,-6.1562,-6.1094,-6.1406,-6.1543,-6.1094,-6.1406,-6.1699,-6.1699,-6.1699,-6.1699,-6.1699,-6.1699,-6.1699,-6.1699,-6.1699,-6.1699,-6.1699,-6.1699,-6.1699,-6.1699,-6.1699,-6.1484,-6.1035,-6.0968,-5.9481,-5.6542,-5.7778,-5.6642,-5.3336,-5.3788,-5.3281,-5.1953,-5.0312,-4.9316,-4.8984,-5.0273,0.0,-5.1406,-5.1406,-5.1406,-5.1406,-5.1406,-5.1406,-5.1406,-5.1406,-5.1406,-5.1289,-5.0469,-4.9629,-4.875,-4.7871,-4.6992,-4.6308,-4.6308,-4.6307,-4.6305,-4.6305,-4.6259,-4.6191,-4.6191,-4.6184,-4.616,-4.616,-4.6145,-4.6142,-4.6112,-4.6072,-4.6027,-4.5917,-4.6162,0.0,-4.6978,-4.7731,-4.828,-4.8342,-4.8654,-4.8891,-4.8974,-4.9245,-4.9605,-5.0028,-5.0452,-5.0712,-5.0712,-5.0712,-5.0731,-5.0793,0.0,-4.918,0.0,0.0,0.0,-4.6054,0.0,0.0,-4.6147,-4.621,-4.6209,-4.6145,-4.6076,-4.6027,-4.5991,-4.5867,-4.5807,-4.5807,-4.5805,-4.5783,-4.5749,-4.5791,-4.5783,-4.5742,-4.5743,-4.5746,-4.5738,-6.191,-6.1816,-6.1484,-6.0801,-6.123,-6.1465,-6.0781,-6.1269,-6.1699,-6.1699,-6.1699,-6.1699,-6.1699,-6.1699,-6.1699,-6.1699,-6.1699,-6.1699,-6.1699,-6.1699,-6.1699,-6.1699,-6.1523,-6.1094,-6.041,-6.0234,-5.8827,-5.6132,-5.7128,-5.6229,-5.3534,-5.3847,-5.3066,-5.1367,-5.0566,0.0,0.0,0.0,-5.123,-5.1406,-5.1406,-5.1406,-5.1406,-5.1406,-5.1406,-5.1406,-5.1406,-5.1406,-5.1308,-5.0664,-4.9883,-4.9023,-4.8144,-4.7285,-4.6543,-4.6348,-4.6308,-4.6307,-4.6307,-4.6307,-4.6307,-4.6307,-4.6308,-4.6308,-4.6308,-4.6265,-4.6212,-4.6204,-4.6145,-4.608,-4.6032,-4.5925,0.0,0.0,-4.7036,-4.7314,-4.7822,-4.7985,-4.8327,-4.8987,-4.8964,-4.9229,-5.0113,-5.0336,-5.0423,-5.0433,-5.0606,-5.0644,-5.0522,-4.9894,-4.9175,0.0,0.0,-4.687,-4.6236,0.0,-4.6131,-4.6076,-4.6145,-4.6142,-4.6072,-4.6018,-4.5986,-4.5958,-4.5854,-4.5807,-4.5807,-4.5807,-4.5807,-4.5807,-4.5807,-4.5807,-4.58,-4.5803,-4.5807,-4.5773,-6.2627,-6.2201,-6.168,-6.1582,-6.164,-6.168,-6.1582,-6.164,-6.1699,-6.1699,-6.1699,-6.1699,-6.1699,-6.1699,-6.1699,-6.1699,-6.1699,-6.1699,-6.1699,-6.1699,-6.1699,-6.1699,-6.0937,-6.0488,-6.039,-5.9687,-5.916,-5.8828,-5.7422,-5.6543,-5.6191,-5.4707,-5.3066,0.0,0.0,0.0,0.0,-5.0254,-5.0723,-5.1406,-5.1406,-5.1406,-5.1406,-5.1406,-5.1406,-5.1406,-5.1406,-5.1406,-5.1387,-5.1308,-5.0742,-4.9922,-4.9043,-4.8183,-4.7324,-4.6523,-4.6308,-4.6308,-4.6308,-4.6308,-4.6308,-4.6308,-4.6308,-4.6308,-4.6308,-4.6308,-4.6268,-4.6209,-4.6145,-4.6098,-4.6091,-4.6084,-4.6096,0.0,-4.6812,-4.7036,-4.6327,-4.6849,-4.7313,-4.7322,-4.727,-4.7574,-4.8441,-4.9142,-4.9548,-4.9613,-5.0287,-5.0383,-4.9665,-4.9592,-4.9215,-4.843,-4.7555,-4.7059,-4.7001,-4.6358,-4.6027,-4.6017,-4.6072,-4.6068,-4.6017,-4.6007,-4.5922,-4.5827,-4.5814,-4.5807,-4.5807,-4.5807,-4.5807,-4.5807,-4.5807,-4.5807,-4.58,-4.5803,-4.5807,-4.5792,-6.2047,-6.1887,-6.1699,-6.1699,-6.1699,-6.1699,-6.1699,-6.1699,-6.1699,-6.1699,-6.1699,-6.1699,-6.1699,-6.1699,-6.1699,-6.1699,-6.1699,-6.1699,-6.1699,-6.1699,-6.1699,-6.1699,-6.0859,-6.0176,-5.9687,-5.8848,-5.791,-5.6855,-5.6152,-5.5547,-5.5019,-5.3789,0.0,0.0,0.0,-5.1211,-5.1738,-5.2266,-5.2363,-5.2187,-5.2187,-5.1875,-5.1406,-5.1406,-5.1406,-5.1406,-5.1406,-5.1406,-5.1406,-5.1406,-5.0879,-5.0137,-4.9785,-4.8711,-4.7539,-4.7187,-4.6719,-4.6308,-4.6308,-4.6308,-4.6308,-4.6308,-4.6308,-4.6308,-4.6308,-4.6308,-4.6289,-4.6266,-4.6206,-4.6158,-4.6158,-4.6128,-4.6098,-4.6098,-4.6371,-4.6458,-4.6115,-4.6292,-4.6849,-4.7883,-4.743,-4.7601,-4.8991,-4.933,-4.9274,-4.881,-4.9959,-5.0585,-5.031,-4.9851,0.0,-4.843,0.0,-4.6844,-4.6329,-4.6116,-4.5964,-4.5873,-4.5993,-4.5988,-4.5873,-4.5873,-4.5886,-4.5923,-4.5822,-4.586,-4.5988,-4.5939,-4.5929,-4.5929,-4.5929,-4.5861,-4.58,-4.5805,-4.5805,-4.5798,-6.1511,-6.1627,-6.1699,-6.1699,-6.1699,-6.1699,-6.1699,-6.1699,-6.1699,-6.1699,-6.1699,-6.1699,-6.1699,-6.1699,-6.1699,-6.1699,-6.1699,-6.1699,-6.1699,-6.1699,-6.1699,-6.1699,-6.0859,-6.0137,-5.957,-5.8476,-5.7422,-5.6445,-5.5683,-5.5254,-5.5117,-5.3984,0.0,0.0,-5.2285,-5.2519,-5.3125,-5.373,-5.3633,-5.3086,-5.3086,-5.2558,-5.1777,-5.1777,-5.1621,-5.1406,-5.1406,-5.1406,-5.1406,-5.1406,-5.1016,-5.0508,-5.0273,-4.9355,-4.8262,-4.7754,-4.7168,-4.6621,-4.6367,-4.6308,-4.6308,-4.6308,-4.6308,-4.6308,-4.6308,-4.6308,-4.6308,-4.6308,-4.6265,-4.6237,-4.6237,-4.6197,-4.6155,-4.6155,0.0,-4.615,-4.6134,-4.6083,-4.6518,-4.7715,-4.7213,-4.7264,-4.8493,-4.8725,-4.8565,-4.7993,-4.9213,-4.9907,-4.971,0.0,0.0,0.0,0.0,0.0,-4.6194,-4.6021,-4.5886,-4.5807,-4.5905,-4.588,-4.5807,-4.5807,-4.5841,-4.5941,-4.5848,-4.5896,-4.606,-4.6013,-4.6017,-4.6022,-4.6012,-4.5947,-4.5841,-4.5801,-4.5807,-4.58,-6.1393,-6.1551,-6.1699,-6.1699,-6.1699,-6.1699,-6.1699,-6.1699,-6.1699,-6.1699,-6.1699,-6.1699,-6.1699,-6.1699,-6.1699,-6.1699,-6.1699,-6.1699,-6.1699,-6.1699,-6.1699,-6.1699,-6.0879,-6.039,-6.039,-5.875,-5.8301,-5.914,-5.6562,-5.6172,-5.7812,0.0,-5.5254,-5.5215,-5.4355,-5.3965,-5.3984,-5.4004,-5.3984,-5.3984,-5.3984,-5.3457,-5.2676,-5.2676,-5.2148,-5.1406,-5.1406,-5.1406,-5.1406,-5.1406,-5.1387,-5.125,-5.0449,-5.0195,-4.9824,-4.8105,-4.7598,-4.7402,-4.6523,-4.6308,-4.6308,-4.6308,-4.6308,-4.6308,-4.6308,-4.6308,-4.6308,-4.6308,-4.6308,-4.6308,-4.6308,-4.6308,-4.6308,-4.6308,0.0,-4.6268,-4.6207,-4.6202,-4.6186,-4.6148,-4.6061,-4.6024,-4.6046,-4.6692,-4.7125,-4.7113,-4.7867,-4.7983,0.0,0.0,0.0,-4.7173,-4.7115,0.0,-4.7076,-4.6232,-4.5807,-4.5807,-4.5807,-4.5807,-4.5807,-4.5807,-4.5807,-4.5807,-4.5807,-4.5886,-4.6002,-4.6002,-4.6041,-4.6091,-4.6022,-4.6002,-4.5986,-4.5861,-4.5807,-4.5793,-6.152,-6.1586,-6.1649,-6.1699,-6.1699,-6.1699,-6.1699,-6.1699,-6.1699,-6.1699,-6.1699,-6.1699,-6.1699,-6.1699,-6.1699,-6.1699,-6.1699,-6.1699,-6.1699,-6.1699,-6.1699,-6.1699,-6.0859,-6.0137,-5.959,-5.8476,-5.7734,-5.7422,0.0,0.0,0.0,-5.4668,-5.4726,-5.5293,-5.5019,-5.5215,-5.5762,-5.5762,-5.543,-5.4883,-5.4883,-5.4004,-5.2695,-5.2695,-5.2168,-5.1406,-5.1406,-5.1406,-5.1406,-5.1406,-5.1406,-5.1367,-5.1094,-5.0644,-5.0098,-4.9531,-4.8535,-4.7539,-4.7266,-4.6758,-4.6308,-4.6308,-4.6308,-4.6308,-4.6308,-4.6308,-4.6308,-4.6308,-4.6308,-4.6308,-4.6308,-4.6308,-4.6308,-4.6308,-4.6308,0.0,-4.6267,-4.6267,-4.648,-4.7041,-4.655,-4.6367,-4.6958,-4.7151,-4.7218,-4.7171,-4.7953,0.0,0.0,0.0,0.0,0.0,-4.6523,0.0,-4.6213,-4.5942,-4.5807,-4.5807,-4.5807,-4.5854,-4.5922,-4.5828,-4.5872,-4.5993,-4.5961,-4.6012,-4.6137,-4.6137,-4.6147,-4.6158,-4.6095,-4.6041,-4.5986,-4.5861,-4.5805,-4.5803,-6.1568,-6.1618,-6.1652,-6.1699,-6.1699,-6.1699,-6.1699,-6.1699,-6.1699,-6.1699,-6.1699,-6.1699,-6.1699,-6.1699,0.0,-6.1699,-6.1699,-6.1699,-6.1699,-6.1699,-6.1699,-6.1699,-6.1172,-6.0644,-6.0156,-5.8984,0.0,-5.7578,-5.6387,-5.5508,-5.498,-5.498,-5.5273,-5.5781,-5.5781,-5.6094,-5.6601,-5.6601,-5.6289,-5.5781,-5.5781,-5.4941,-5.3633,-5.3301,-5.2656,-5.1855,-5.1523,-5.1406,-5.1406,-5.1406,-5.1406,-5.1406,-5.1406,-5.1055,-5.0586,-5.0293,-4.9433,-4.8437,-4.7773,-4.7207,-4.6719,-4.6387,-4.6308,-4.6308,-4.6308,-4.6308,-4.6308,-4.6308,-4.6308,-4.6308,-4.6308,-4.6308,-4.6308,-4.6308,-4.6308,-4.6308,-4.6308,-4.6308,-4.6504,-4.7051,-4.6597,-4.6431,0.0,-4.6935,-4.6865,-4.678,-4.728,0.0,0.0,0.0,0.0,-4.6619,-4.6078,0.0,-4.5807,-4.5807,-4.5807,-4.5807,-4.5807,-4.5835,-4.591,-4.588,-4.5931,-4.6052,-4.6031,-4.6098,-4.6202,-4.6202,-4.621,-4.6235,-4.6137,-4.6068,-4.6022,-4.5861,-4.5812,-4.581,-6.1573,-6.163,-6.1679,0.0,-6.1679,0.0,-6.1679,-6.1699,-6.1699,-6.1699,-6.1699,-6.1699,-6.1699,-6.1699,-6.1699,-6.1699,0.0,0.0,-6.1699,-6.1699,-6.1699,-6.1699,-6.1699,-6.168,-6.1601,-6.0019,-5.9121,-5.9004,-5.7383,-5.6601,-5.6601,-5.6601,-5.6601,-5.6601,-5.6601,-5.6601,-5.6601,-5.6601,-5.6601,-5.6601,-5.6601,-5.6074,-5.5215,-5.4394,-5.3555,-5.2676,-5.1797,-5.1484,-5.1484,-5.1426,-5.1406,-5.1406,-5.1406,-5.1406,-5.125,-5.0508,-5.0234,-4.9824,-4.8144,-4.7656,-4.7383,-4.6523,-4.6308,-4.6308,-4.6308,-4.6308,-4.6308,-4.6308,-4.6308,-4.6308,-4.6308,-4.6308,-4.6308,-4.6308,-4.6308,-4.6308,-4.6308,-4.6308,-4.6308,-4.6308,0.0,0.0,-4.6209,-4.6206,-4.621,0.0,-4.6089,0.0,0.0,0.0,-4.6631,-4.5826,-4.5807,-4.5807,-4.5807,-4.5807,-4.5807,-4.5807,-4.5807,-4.5814,-4.5822,-4.5953,-4.6007,-4.6027,-4.6076,-4.6142,-4.6202,-4.6206,-4.6241,-4.6289,-4.615,-4.6098,-4.608,-4.5866,-4.58,-4.5793,0.0,0.0,-6.1474,-6.1474,-6.1474,-6.1474,-6.1474,-6.1557,-6.1619,-6.1619,-6.1676,-6.1699,-6.1699,-6.1699,-6.1699,-6.1699,-6.1699,-6.1699,-6.1699,-6.1699,-6.1699,-6.1699,-6.1699,-6.1365,-6.0643,-5.9589,-5.8417,-5.7148,-5.6775,-5.6601,-5.6601,-5.6601,-5.6601,-5.6601,-5.6601,-5.6601,-5.6601,-5.6601,-5.6601,-5.6601,-5.6601,-5.6074,-5.5273,-5.5078,-5.4453,-5.3574,-5.2715,-5.2383,-5.2285,-5.1621,-5.1406,-5.1406,-5.1406,-5.1406,-5.1367,-5.1172,-5.0683,-4.9961,-4.8887,-4.8105,-4.7383,-4.6523,-4.6308,-4.6308,-4.6308,-4.6308,-4.6308,-4.6308,-4.6308,-4.6308,-4.6308,-4.6308,-4.6308,-4.6308,-4.6308,-4.6308,-4.6308,-4.6308,-4.6308,0.0,-4.6308,-4.6289,-4.6288,-4.6287,-4.6515,0.0,0.0,-4.6312,-4.689,-4.6403,-4.602,-4.5807,-4.5807,-4.5807,-4.5807,-4.5807,-4.5807,-4.5807,-4.5807,-4.5879,-4.6039,-4.6008,-4.6063,-4.615,-4.6165,-4.6195,-4.6206,-4.6264,-4.6288,-4.6289,-4.615,-4.6098,-4.608,-4.5866,-4.5805,-4.5803,-6.1479,-6.1448,-6.1393,-6.1393,-6.1393,-6.1393,-6.1393,-6.1456,-6.1504,-6.1504,-6.1534,-6.1551,-6.1551,-6.1626,-6.1629,-6.1573,-6.1656,-6.1699,-6.1699,-6.1677,-6.1653,-6.1653,-6.16,-6.1322,-6.0799,-5.9593,-5.8142,-5.6508,-5.6578,-5.6601,-5.6601,-5.6601,-5.6601,-5.6601,-5.6601,-5.6601,-5.6601,-5.6601,-5.6601,-5.6601,-5.6601,-5.6328,-5.5859,-5.5449,-5.5019,-5.4473,-5.3613,-5.3281,-5.3164,-5.2285,-5.1992,-5.1914,-5.1523,-5.1406,-5.1406,-5.1406,-5.1094,-5.0488,-4.9238,-4.8555,-4.7891,-4.6621,-4.6308,-4.6308,-4.6308,-4.6308,-4.6308,-4.6308,-4.6308,-4.6308,-4.6308,-4.6308,-4.6308,-4.6308,-4.6308,-4.6308,-4.6308,-4.6308,-4.6308,-4.6308,-4.6308,-4.6308,-4.6308,-4.6308,-4.6484,-4.6924,-4.6444,0.0,-4.6711,-4.6236,-4.5919,-4.5886,-4.5822,-4.5834,-4.588,-4.5841,-4.5807,-4.5807,-4.5807,-4.5898,-4.6044,-4.6054,-4.6102,-4.6204,-4.6238,-4.6242,-4.6243,-4.6288,-4.6308,-4.6289,-4.6195,-4.6128,-4.6084,-4.5931,-4.5848,-4.5791,-6.1373,-6.1388,-6.1383,-6.1367,-6.1342,-6.1342,-6.1342,-6.1378,-6.1388,-6.1388,-6.1383,-6.1393,-6.1393,-6.1501,-6.1511,-6.1422,-6.1566,-6.1656,-6.1656,-6.1596,-6.1573,-6.1573,-6.1456,-6.1403,-6.1388,-5.9733,-5.8137,-5.664,-5.6592,-5.6581,-5.6581,-5.6601,-5.6601,-5.6601,-5.6601,-5.6601,-5.6601,-5.6601,-5.6601,-5.6601,-5.6601,-5.6601,-5.6523,-5.5781,-5.5508,-5.5371,-5.4512,-5.4199,-5.4062,-5.3183,-5.2812,-5.2578,-5.1836,-5.1504,-5.1406,-5.1406,-5.1406,-5.1055,-4.9512,-4.8906,-4.832,-4.6699,-4.6308,-4.6308,-4.6308,-4.6308,-4.6308,-4.6308,-4.6308,-4.6308,-4.6308,-4.6308,-4.6308,-4.6308,-4.6308,-4.6308,-4.6308,0.0,-4.6308,-4.6308,-4.6308,-4.6308,-4.6308,-4.6308,-4.6308,-4.6308,-4.6239,-4.6202,-4.6202,-4.6137,-4.6076,-4.6032,-4.5916,-4.5898,-4.6002,-4.5899,-4.5827,-4.5807,-4.5807,-4.5873,-4.6027,-4.6068,-4.6142,-4.6212,-4.6287,-4.6308,-4.6308,-4.6308,-4.6308,-4.6289,-4.6235,-4.616,-4.6109,-4.6041,-4.5933,-4.5841,-6.1318,-6.1318,-6.1283,-6.1175,-6.115,-6.115,-6.115,-6.124,-6.1318,-6.1318,-6.1356,-6.1393,-6.1393,-6.1426,-6.1431,-6.1393,-6.1439,-6.1456,-6.1456,-6.1443,-6.1435,-6.1435,-6.1402,-6.1373,-6.1324,-5.962,-5.8247,-5.7261,-5.6761,-5.6518,-5.6518,-5.6579,-5.6601,-5.6601,-5.6601,-5.6601,-5.6601,-5.6601,-5.6601,-5.6601,-5.6601,-5.6601,-5.6582,-5.6445,-5.6406,-5.6289,-5.541,-5.5098,-5.4961,-5.4082,-5.3301,-5.2676,-5.2539,-5.1992,-5.1406,-5.1406,-5.1406,-5.1191,-5.0254,-4.8926,-4.7558,-4.6543,-4.6308,-4.6308,-4.6308,-4.6308,-4.6308,-4.6308,-4.6308,-4.6308,-4.6308,-4.6308,-4.6308,-4.6308,-4.6308,-4.6308,-4.6308,0.0,-4.6308,-4.6308,-4.6308,-4.6308,-4.6308,-4.6308,-4.6308,-4.6308,-4.6239,-4.6202,-4.6202,-4.6137,-4.6122,-4.6162,-4.6086,-4.6035,-4.6002,-4.598,-4.5904,-4.5807,-4.5807,-4.5896,-4.6084,-4.6095,-4.6162,-4.6288,-4.6308,-4.6308,-4.6308,-4.6308,-4.6308,-4.6289,-4.6235,-4.6199,-4.6189,-4.6109,-4.6046,-4.5975,-6.1184,-6.1192,-6.1167,-6.1117,-6.1099,-6.1099,-6.1099,-6.1152,-6.1192,-6.1192,-6.1217,-6.1243,-6.1243,-6.1298,-6.1311,-6.123,-6.1298,-6.1311,-6.123,-6.1298,-6.1342,-6.1342,-6.1291,-6.1019,-6.0561,-5.933,-5.8259,-5.7392,-5.6712,-5.6422,-5.6508,-5.6527,-5.6578,-5.6601,-5.6601,-5.6601,-5.6601,-5.6601,-5.6601,-5.6601,-5.6601,-5.6601,-5.6601,-5.6601,-5.6601,-5.6543,-5.6133,-5.5996,-5.5879,-5.498,-5.4433,-5.3945,-5.3008,-5.2422,-5.2012,-5.1543,-5.1094,-5.0664,-5.0293,-4.8926,-4.75,-4.7109,-4.6641,-4.6308,-4.6308,-4.6308,-4.6308,-4.6308,-4.6308,-4.6308,-4.6308,-4.6308,-4.6308,-4.6308,-4.6308,0.0,0.0,-4.6308,-4.6308,-4.6308,-4.6308,-4.6308,-4.6308,-4.6308,-4.6308,-4.6308,-4.6267,-4.6244,-4.6244,-4.6215,-4.6213,-4.6244,-4.6197,-4.6122,-4.6044,-4.6044,-4.5993,-4.5917,-4.5947,-4.6002,-4.6102,-4.6137,-4.6207,-4.6308,-4.6308,-4.6308,-4.6308,-4.6308,-4.6308,-4.6308,-4.6266,-4.6237,-4.62,-4.616,-4.6112,-4.6054,-6.107,-6.1089,-6.1099,-6.1099,-6.1099,-6.1099,-6.1099,-6.1099,-6.1099,-6.1099,-6.1099,-6.1099,-6.1099,-6.1192,-6.1217,-6.1108,-6.1192,-6.1217,-6.1108,-6.12,-6.1252,-6.1252,-6.1161,-6.0809,-6.019,-5.939,-5.854,-5.7674,-5.692,-5.6507,-5.643,-5.6444,-5.6471,-5.6536,-5.6559,-5.658,-5.658,-5.6582,-5.6601,-5.6601,-5.6601,-5.6601,-5.6601,-5.6601,-5.6601,-5.6601,-5.6601,-5.6601,-5.6504,-5.582,-5.5469,-5.5078,-5.373,-5.3027,-5.2578,-5.1894,-5.1113,-5.0449,-5.0254,-4.9082,-4.7851,-4.7656,-4.6933,-4.6308,-4.6308,-4.6308,-4.6308,-4.6308,-4.6308,-4.6308,-4.6308,-4.6308,-4.6308,-4.6308,0.0,0.0,0.0,-4.6308,-4.6308,-4.6308,-4.6308,-4.6308,-4.6308,-4.6308,-4.6308,-4.6308,-4.6308,-4.6308,-4.6308,-4.6308,-4.6308,-4.6308,-4.6243,-4.6173,-4.6102,-4.6115,-4.608,-4.6002,-4.606,-4.6109,-4.6125,-4.6189,-4.6239,-4.6308,-4.6308,-4.6308,-4.6308,-4.6308,-4.6308,-4.6308,-4.6308,-4.6267,-4.6215,-4.6215,-4.6171,-4.6118,-6.1012,-6.107,-6.1099,-6.1099,-6.1099,-6.1099,-6.1099,-6.1099,-6.1099,-6.1099,-6.1099,-6.1099,-6.1099,-6.1108,-6.1117,-6.1099,-6.1108,-6.1117,-6.1099,-6.1108,-6.1117,-6.1117,-6.1108,-6.1079,-6.1002,-6.0227,-5.9385,-5.8514,-5.7705,-5.6952,-5.6226,-5.6295,-5.6324,-5.6332,-5.6453,-5.6513,-5.6515,-5.6579,-5.6601,-5.6601,-5.6601,-5.6601,-5.6601,-5.6601,-5.6601,-5.6601,-5.6601,-5.6601,-5.6582,-5.6523,-5.5976,-5.5273,-5.5156,-5.4004,-5.2695,-5.2617,-5.1992,-5.1152,-5.0391,-4.9512,-4.8613,-4.7793,-4.6933,-4.6308,-4.6308,-4.6308,-4.6308,-4.6308,-4.6308,-4.6308,-4.6308,-4.6308,-4.6308,-4.6308,0.0,0.0,-4.6308,-4.6308,-4.6308,-4.6308,-4.6308,-4.6308,-4.6308,-4.6308,-4.6308,-4.6308,-4.6308,-4.6308,-4.6308,-4.6308,-4.6308,-4.6308,-4.6308,-4.6237,-4.6102,-4.6158,-4.6128,-4.6002,-4.606,-4.6134,-4.6199,-4.6202,-4.6239,-4.6308,-4.6308,-4.6308,-4.6308,-4.6308,-4.6308,-4.6308,-4.6308,-4.6308,-4.6289,-4.6289,-4.6243,-4.6199,-6.0992,-6.1022,-6.1041,-6.1089,-6.1099,-6.1099,-6.1099,-6.1099,-6.1099,-6.1099,-6.1099,-6.1089,-6.1032,-6.1032,-6.1041,-6.104,-6.104,-6.104,-6.104,-6.104,-6.107,-6.1099,-6.1099,-6.1099,-6.1099,-6.0306,-5.9474,-5.8613,-5.7744,-5.6951,-5.6194,-5.623,-5.6271,-5.6292,-5.6344,-5.6419,-5.6508,-5.6523,-5.6558,-5.6601,-5.6601,-5.6601,-5.6601,-5.6601,-5.6601,-5.6601,-5.6601,-5.6601,-5.6601,-5.6601,-5.6387,-5.6015,-5.5469,-5.4473,-5.3281,-5.2207,-5.166,-5.1328,-5.1035,-4.9941,-4.8828,-4.8496,-4.7344,-4.6308,-4.6308,-4.6308,-4.6308,-4.6308,-4.6308,-4.6308,-4.6308,-4.6308,-4.6308,-4.6308,0.0,-4.6308,-4.6308,-4.6308,-4.6308,-4.6308,-4.6308,-4.6308,-4.6308,-4.6308,-4.6308,-4.6308,-4.6308,-4.6308,-4.6308,-4.6308,-4.6308,-4.6308,-4.6308,-4.6287,-4.6215,-4.6243,-4.621,-4.6125,-4.6199,-4.621,-4.6204,-4.6241,-4.6287,-4.6308,-4.6308,-4.6308,-4.6308,-4.6308,-4.6308,-4.6308,-4.6308,-4.6308,-4.6308,-4.6308,-4.6288,-4.6264,-6.096,-6.0981,-6.1011,-6.107,-6.107,-6.108,-6.1099,-6.1099,-6.1099,-6.1099,-6.1099,-6.108,-6.1012,-6.1002,-6.1001,-6.0997,-6.0987,-6.0987,-6.0987,-6.0987,-6.102,-6.107,-6.107,-6.108,-6.1099,-6.0557,-5.9861,-5.901,-5.8139,-5.731,-5.6534,-5.6262,-5.6162,-5.6208,-5.6246,-5.6318,-5.6416,-5.6475,-5.6523,-5.6579,-5.6582,-5.6601,-5.6601,-5.6601,-5.6601,-5.6601,-5.6601,-5.6601,-5.6601,-5.6601,-5.6601,-5.6504,-5.5898,-5.4922,-5.3711,-5.2246,-5.1601,-5.1406,-5.1406,-5.0371,-4.9238,-4.8965,-4.8008,-4.6973,-4.6426,-4.6719,-4.6953,-4.6406,-4.6523,-4.6621,-4.6348,-4.6308,-4.6308,-4.6308,-4.6308,-4.6308,-4.6308,-4.6308,-4.6308,-4.6308,-4.6308,-4.6308,-4.6308,-4.6308,-4.6308,-4.6308,-4.6308,-4.6308,-4.6308,-4.6308,-4.6308,-4.6308,-4.6308,-4.6308,-4.6308,-4.6308,-4.6266,-4.6204,-4.6267,-4.6287,-4.6238,-4.6288,-4.6308,-4.6308,-4.6308,-4.6308,-4.6308,-4.6308,-4.6308,-4.6308,-4.6308,-4.6308,-4.6308,-4.6308,-4.6308,-4.6289,-6.0911,-6.0955,-6.0989,-6.0992,-6.1002,-6.1022,-6.1089,-6.1099,-6.1099,-6.1099,-6.1099,-6.108,-6.1012,-6.1002,-6.1001,-6.0997,-6.1006,-6.1006,-6.1006,-6.0987,-6.0999,-6.1002,-6.1002,-6.1032,-6.1099,-6.1099,-6.0712,-5.9899,-5.9029,-5.8139,-5.728,-5.6409,-5.6012,-5.6012,-5.6146,-5.6194,-5.6213,-5.6416,-5.6506,-5.6511,-5.6579,-5.6601,-5.6601,-5.6601,-5.6601,-5.6601,-5.6601,-5.6601,-5.6601,-5.6601,-5.6601,-5.6601,-5.6582,-5.539,-5.3848,-5.2969,-5.209,-5.1406,-5.1406,-5.082,-5.0,-4.9121,-4.8906,-4.8457,-4.6719,-4.7656,-4.8418,-4.668,-4.6992,-4.7344,-4.6465,-4.6308,-4.6308,-4.6308,-4.6308,-4.6308,-4.6308,-4.6308,-4.6308,-4.6308,-4.6308,-4.6308,-4.6308,-4.6308,-4.6308,-4.6308,-4.6308,-4.6308,-4.6308,-4.6308,-4.6308,-4.6308,-4.6308,-4.6308,-4.6308,-4.6308,-4.6266,-4.6204,-4.6267,-4.6308,-4.6308,-4.6308,-4.6308,-4.6308,-4.6308,-4.6308,-4.6308,-4.6308,-4.6308,-4.6308,-4.6308,-4.6308,-4.6308,-4.6308,-4.6308,-4.6308,-6.088,-6.0922,-6.0935,-6.0989,-6.0991,-6.1012,-6.1022,-6.1022,-6.1022,-6.1022,-6.1031,-6.0999,-6.0946,-6.0927,-6.0905,-6.0858,-6.0858,-6.0858,-6.0858,-6.0891,-6.0946,-6.0999,-6.1001,-6.1032,-6.1099,-6.1099,-6.0712,-5.9899,-5.9029,-5.8139,-5.728,-5.6409,-5.6012,-5.5993,-5.6043,-5.6117,-5.6201,-5.6258,-5.6363,-5.6508,-5.6522,-5.6556,-5.6601,-5.6601,-5.6601,-5.6601,-5.6601,-5.6601,-5.6601,-5.6601,-5.6601,-5.6484,-5.5879,-5.5332,-5.4746,-5.3867,-5.2988,-5.2305,-5.2305,-5.1699,-5.084,-5.0019,-4.9355,-4.8769,-4.8242,-4.8535,-4.875,-4.8223,-4.7832,-4.7519,-4.7266,-4.6719,-4.6308,-4.6308,-4.6308,-4.6308,-4.6308,-4.6308,-4.6308,-4.6308,-4.6308,-4.6308,-4.6308,-4.6308,-4.6308,-4.6308,-4.6308,-4.6308,-4.6308,-4.6308,-4.6308,-4.6308,-4.6308,-4.6308,-4.6308,-4.6308,-4.6289,-4.6267,-4.6289,-4.6308,-4.6308,-4.6308,-4.6308,-4.6308,-4.6308,-4.6308,-4.6308,-4.6308,-4.6308,-4.6308,-4.6308,-4.6308,-4.6308,-4.6308,-4.6308,-4.6308,-6.0846,-6.0858,-6.088,-6.0976,-6.0989,-6.0981,-6.1022,-6.1021,-6.1001,-6.1002,-6.099,-6.0965,-6.0911,-6.0911,-6.0869,-6.0812,-6.08,-6.08,-6.08,-6.0835,-6.0891,-6.1006,-6.1009,-6.1021,-6.1099,-6.1099,-6.0867,-6.0364,-5.9532,-5.8662,-5.7811,-5.6921,-5.6332,-5.6012,-5.6012,-5.6051,-5.6112,-5.6168,-5.6264,-5.6398,-5.6472,-5.6522,-5.6558,-5.6582,-5.6601,-5.6601,-5.6601,-5.6601,-5.6601,-5.6601,-5.6601,-5.6504,-5.5976,-5.5586,-5.5195,-5.4668,-5.3906,-5.3144,-5.2793,-5.2324,-5.1719,-5.0879,-5.0273,-4.9726,-4.9043,-4.9414,-4.9707,-4.9043,-4.8769,-4.8418,-4.7734,-4.7168,-4.6699,-4.6367,-4.6308,-4.6308,-4.6308,-4.6308,-4.6308,-4.6308,-4.6308,-4.6308,-4.6308,-4.6308,-4.6308,-4.6308,-4.6308,-4.6308,-4.6308,-4.6308,-4.6308,-4.6308,-4.6308,-4.6308,-4.6308,-4.6308,-4.6308,-4.6308,-4.6308,-4.6308,-4.6308,-4.6308,-4.6308,-4.6308,-4.6308,-4.6308,-4.6308,-4.6308,-4.6308,-4.6308,-4.6308,-4.6308,-4.6308,-4.6308,-4.6308,-4.6308,-6.08,-6.08,-6.0835,-6.0955,-6.0944,-6.0946,-6.1051,-6.103,-6.0989,-6.0982,-6.0999,-6.0955,-6.0911,-6.088,-6.0858,-6.0812,-6.08,-6.08,-6.08,-6.0812,-6.0858,-6.0987,-6.0997,-6.103,-6.1099,-6.1099,-6.1099,-6.1099,-6.0286,-5.9493,-5.8709,-5.783,-5.6951,-5.6128,-5.6128,-5.607,-5.602,-5.6139,-5.6181,-5.6219,-5.6413,-5.6484,-5.6513,-5.658,-5.6601,-5.6601,-5.6601,-5.6601,-5.6601,-5.6601,-5.6601,-5.6601,-5.6601,-5.6055,-5.543,-5.543,-5.4805,-5.3926,-5.3047,-5.2754,-5.248,-5.1621,-5.1406,-5.0996,-4.9473,-5.0293,-5.0976,-4.9433,-4.9707,-4.9687,-4.8027,-4.7656,-4.7305,-4.6445,-4.6308,-4.6308,-4.6308,-4.6308,-4.6308,-4.6308,-4.6308,-4.6308,-4.6308,-4.6308,-4.6308,-4.6308,-4.6308,-4.6308,-4.6308,-4.6308,-4.6308,-4.6308,-4.6308,-4.6308,-4.6308,-4.6308,-4.6308,-4.6308,-4.6308,-4.6308,-4.6308,-4.6308,-4.6308,-4.6308,-4.6308,-4.6308,-4.6308,-4.6308,-4.6308,-4.6308,-4.6308,-4.6308,-4.6308,-4.6308,-4.6308,-4.6308,-6.08,-6.08,-6.0812,-6.0835,-6.0869,-6.0903,-6.0946,-6.0924,-6.0914,-6.0924,-6.088,-6.0835,-6.0823,-6.0823,-6.0823,-6.08,-6.08,-6.08,-6.08,-6.0846,-6.0903,-6.1006,-6.1,-6.1031,-6.1099,-6.1099,-6.1099,-6.1099,-6.0286,-5.9803,-5.959,-5.872,-5.7849,-5.7009,-5.7009,-5.6641,-5.5993,-5.6035,-5.6102,-5.6207,-5.6294,-5.641,-5.6513,-5.658,-5.6601,-5.6601,-5.6601,-5.6601,-5.6601,-5.6601,-5.6601,-5.6601,-5.6601,-5.6465,-5.6328,-5.6328,-5.5703,-5.4824,-5.3945,-5.3223,-5.248,-5.1621,-5.1406,-5.1308,-5.0937,-5.1133,-5.1308,-5.0937,-5.0508,-4.9883,-4.8808,-4.8066,-4.7305,-4.6445,-4.6308,-4.6308,-4.6308,-4.6308,-4.6308,-4.6308,-4.6308,-4.6308,-4.6308,-4.6308,-4.6308,-4.6308,-4.6308,-4.6308,-4.6308,-4.6308,-4.6308,-4.6308,-4.6308,-4.6308,-4.6308,-4.6308,-4.6308,-4.6308,-4.6308,-4.6308,-4.6308,-4.6308,-4.6308,-4.6308,-4.6308,-4.6308,-4.6308,-4.6308,-4.6308,-4.6308,-4.6308,-4.6308,-4.6308,-4.6308,-4.6308,-4.6308,-6.08,-6.08,-6.0812,-6.0835,-6.0846,-6.0869,-6.0944,-6.088,-6.0858,-6.0911,-6.0835,-6.08,-6.08,-6.08,-6.08,-6.08,-6.08,-6.08,-6.08,-6.0835,-6.088,-6.0955,-6.0989,-6.1031,-6.1041,-6.1089,-6.1099,-6.1099,-6.0673,-6.0286,-5.988,-5.9435,-5.8758,-5.7927,-5.7927,-5.7675,-5.723,-5.723,-5.703,-5.6745,-5.6869,-5.6706,-5.6419,-5.6558,-5.6601,-5.6601,-5.6601,-5.6601,-5.6601,-5.6601,-5.6601,-5.6601,-5.6601,-5.6601,-5.6601,-5.6601,-5.6289,-5.5723,-5.4863,-5.4297,-5.3633,-5.2344,-5.2012,-5.1914,-5.1484,-5.1406,-5.1406,-5.1406,-5.1074,-5.0527,-4.9668,-4.8808,-4.793,-4.7051,-4.6562,-4.6308,-4.6308,-4.6308,-4.6308,-4.6308,-4.6308,-4.6308,-4.6308,-4.6308,-4.6308,-4.6308,-4.6308,-4.6308,-4.6308,-4.6308,-4.6308,-4.6308,-4.6308,-4.6308,-4.6308,-4.6308,-4.6308,-4.6308,-4.6308,-4.6308,-4.6308,-4.6308,-4.6308,-4.6308,-4.6308,-4.6308,-4.6308,-4.6308,-4.6308,-4.6308,-4.6308,-4.6308,-4.6308,-4.6308,-4.6308,-4.6308,-6.08,-6.08,-6.0823,-6.0869,-6.0835,-6.0835,-6.0955,-6.0869,-6.0823,-6.0888,-6.0835,-6.08,-6.08,-6.08,-6.08,-6.08,-6.08,-6.08,-6.08,-6.08,-6.0835,-6.0911,-6.0955,-6.0989,-6.1011,-6.1051,-6.1099,-6.1099,-6.1099,-6.0741,-6.0084,-6.0084,-5.961,-5.8798,-5.8798,-5.8721,-5.8566,-5.8566,-5.816,-5.751,-5.7702,-5.7279,-5.6543,-5.6723,-5.6718,-5.6601,-5.6601,-5.6601,-5.6601,-5.6601,-5.6601,-5.6601,-5.6601,-5.6601,-5.6601,-5.6601,-5.6601,-5.6406,-5.5547,-5.5293,-5.4922,-5.332,-5.2812,-5.2519,-5.1797,-5.1504,-5.1406,-5.1406,-5.1406,-5.1152,-5.0351,-4.9609,-4.8789,-4.7773,-4.6992,-4.6465,-4.6328,-4.6308,-4.6308,-4.6308,-4.6308,-4.6308,-4.6308,-4.6308,-4.6308,-4.6308,-4.6308,-4.6308,-4.6308,-4.6308,-4.6308,-4.6308,-4.6308,-4.6308,-4.6308,-4.6308,-4.6308,-4.6308,-4.6308,-4.6308,-4.6308,-4.6308,-4.6308,-4.6308,-4.6308,-4.6308,-4.6308,-4.6308,-4.6308,-4.6308,-4.6308,-4.6308,-4.6308,-4.6308,-4.6308,-4.6308,-6.08,-6.08,-6.08,-6.0812,-6.0812,-6.0812,-6.0823,-6.0812,-6.0812,-6.0812,-6.0812,-6.08,-6.08,-6.08,-6.08,-6.08,-6.08,-6.08,-6.08,-6.08,-6.0835,-6.0911,-6.0911,-6.0944,-6.1008,-6.1008,-6.104,-6.1099,-6.1099,-6.1022,-6.0838,-6.0838,-6.0393,-5.9552,-5.9552,-5.9127,-5.8432,-5.8432,-5.8394,-5.8355,-5.8424,-5.8044,-5.7427,-5.7529,-5.7158,-5.6601,-5.6601,-5.6601,-5.6601,-5.6601,-5.6601,-5.6601,-5.6601,-5.6601,-5.66,-5.66,-5.6598,-5.64,-5.5545,-5.5291,-5.5057,-5.4062,-5.3262,-5.2676,-5.2558,-5.1933,-5.1406,-5.1406,-5.1406,-5.1152,-5.0351,-5.0098,-4.9492,-4.7851,-4.75,-4.7168,-4.6406,-4.6308,-4.6308,-4.6308,-4.6308,-4.6308,-4.6308,-4.6308,-4.6308,-4.6308,-4.6308,-4.6308,-4.6308,-4.6308,-4.6308,-4.6308,-4.6308,-4.6308,-4.6308,-4.6308,-4.6308,-4.6308,-4.6308,-4.6308,-4.6308,-4.6308,-4.6308,-4.6308,-4.6308,-4.6308,-4.6308,-4.6308,-4.6308,-4.6308,-4.6308,-4.6308,-4.6308,-4.6308,-4.6308,-4.6308,-6.08,-6.08,-6.08,-6.08,-6.08,-6.08,-6.08,-6.08,-6.08,-6.08,-6.08,-6.08,-6.08,-6.08,-6.08,-6.08,-6.08,-6.08,-6.08,-6.08,-6.0812,-6.0835,-6.0869,-6.0903,-6.0944,-6.0976,-6.1018,-6.105,-6.105,-6.1031,-6.1002,-6.101,-6.0787,-6.0427,-6.0427,-6.0215,-5.9849,-5.9849,-5.9599,-5.9176,-5.9243,-5.8542,-5.7492,-5.7606,-5.7196,-5.6553,-5.6581,-5.6601,-5.6601,-5.6601,-5.66,-5.6599,-5.6599,-5.6597,-5.6596,-5.6596,-5.6595,-5.6515,-5.6127,-5.6031,-5.5818,-5.494,-5.4062,-5.3301,-5.2812,-5.2031,-5.1406,-5.1406,-5.1406,-5.1289,-5.0937,-5.0508,-4.9941,-4.918,-4.8242,-4.746,-4.7089,-4.662,-4.6307,-4.6308,-4.6308,-4.6308,-4.6308,-4.6308,-4.6308,-4.6308,-4.6308,-4.6308,-4.6308,-4.6308,-4.6308,-4.6308,-4.6308,-4.6308,-4.6308,-4.6308,-4.6308,-4.6308,-4.6308,-4.6308,-4.6308,-4.6308,-4.6308,-4.6308,-4.6308,-4.6308,-4.6308,-4.6308,-4.6308,-4.6308,-4.6308,-4.6308,-4.6308,-4.6308,-4.6308,-4.6308]},{"header":{"parameterUnit":"m.s-1","parameterCategory":1,"la1":30.6,"la2":28.766,"lo1":-90.7593,"lo2":-88.6598,"dy":0.0162,"dx":0.0183,"nx":116,"ny":114,"refTime":"2024-05-23T06:00:00:Z","depth":0,"parameterNumber":3,"parameterNumberName":"V-component_of_WINDS"},"data":[0.0,0.0,0.0,0.0,0.0,0.0,0.0,0.0,0.0,0.0,0.0,0.0,0.0,0.0,0.0,0.0,0.0,0.0,0.0,0.0,0.0,0.0,0.0,0.0,0.0,0.0,0.0,0.0,0.0,0.0,0.0,0.0,0.0,0.0,0.0,0.0,0.0,0.0,0.0,0.0,0.0,0.0,0.0,0.0,0.0,0.0,0.0,0.0,0.0,0.0,0.0,0.0,0.0,0.0,0.0,0.0,0.0,0.0,0.0,0.0,0.0,0.0,0.0,0.0,0.0,0.0,0.0,0.0,0.0,0.0,0.0,0.0,0.0,0.0,0.0,0.0,0.0,0.0,0.0,0.0,0.0,0.0,0.0,0.0,0.0,0.0,0.0,0.0,0.0,0.0,0.0,0.0,0.0,0.0,0.0,0.0,0.0,0.0,0.0,0.0,0.0,0.0,0.0,0.0,0.0,0.0,0.0,0.0,0.0,0.0,0.0,0.0,0.0,0.0,0.0,0.0,0.0,0.0,0.0,0.0,0.0,0.0,0.0,0.0,0.0,0.0,0.0,0.0,0.0,0.0,0.0,0.0,0.0,0.0,0.0,0.0,0.0,0.0,0.0,0.0,0.0,0.0,0.0,0.0,0.0,0.0,0.0,0.0,0.0,0.0,0.0,0.0,0.0,0.0,0.0,0.0,0.0,0.0,0.0,0.0,0.0,0.0,0.0,0.0,0.0,0.0,0.0,0.0,0.0,0.0,0.0,0.0,0.0,0.0,0.0,0.0,0.0,0.0,0.0,0.0,0.0,0.0,0.0,0.0,0.0,0.0,0.0,0.0,0.0,0.0,0.0,0.0,0.0,0.0,0.0,0.0,0.0,0.0,0.0,0.0,0.0,0.0,0.0,0.0,0.0,0.0,0.0,0.0,0.0,0.0,0.0,0.0,0.0,0.0,0.0,0.0,0.0,0.0,0.0,0.0,0.0,0.0,0.0,0.0,0.0,0.0,0.0,0.0,0.0,0.0,0.0,0.0,0.0,0.0,0.0,0.0,0.0,0.0,0.0,0.0,0.0,0.0,0.0,0.0,0.0,0.0,0.0,0.0,0.0,0.0,0.0,0.0,0.0,0.0,0.0,0.0,0.0,0.0,0.0,0.0,0.0,0.0,0.0,0.0,0.0,0.0,0.0,0.0,0.0,0.0,0.0,0.0,0.0,0.0,0.0,0.0,0.0,0.0,0.0,0.0,0.0,0.0,0.0,0.0,0.0,0.0,0.0,0.0,0.0,0.0,0.0,0.0,0.0,0.0,0.0,0.0,0.0,0.0,0.0,0.0,0.0,0.0,0.0,0.0,0.0,0.0,0.0,0.0,0.0,0.0,0.0,0.0,0.0,0.0,0.0,0.0,0.0,0.0,0.0,0.0,0.0,0.0,0.0,0.0,0.0,0.0,0.0,0.0,0.0,0.0,0.0,0.0,0.0,0.0,0.0,0.0,0.0,0.0,0.0,0.0,0.0,0.0,0.0,0.0,0.0,0.0,0.0,0.0,0.0,0.0,0.0,0.0,0.0,0.0,0.0,0.0,0.0,0.0,0.0,0.0,0.0,0.0,0.0,0.0,0.0,0.0,0.0,0.0,0.0,0.0,0.0,0.0,0.0,0.0,0.0,0.0,0.0,0.0,0.0,0.0,0.0,0.0,0.0,0.0,0.0,0.0,0.0,0.0,0.0,0.0,0.0,0.0,0.0,0.0,0.0,0.0,0.0,0.0,0.0,0.0,0.0,0.0,0.0,0.0,0.0,0.0,0.0,0.0,0.0,0.0,0.0,0.0,0.0,0.0,0.0,0.0,0.0,0.0,0.0,0.0,0.0,0.0,0.0,0.0,0.0,0.0,0.0,0.0,0.0,0.0,0.0,0.0,0.0,0.0,0.0,0.0,0.0,0.0,0.0,0.0,0.0,0.0,0.0,0.0,0.0,0.0,0.0,0.0,0.0,0.0,0.0,0.0,0.0,0.0,0.0,0.0,0.0,0.0,0.0,0.0,0.0,0.0,0.0,0.0,0.0,0.0,0.0,0.0,0.0,0.0,0.0,0.0,0.0,0.0,0.0,0.0,0.0,0.0,0.0,0.0,0.0,0.0,0.0,0.0,0.0,0.0,0.0,0.0,0.0,0.0,0.0,0.0,0.0,0.0,0.0,0.0,0.0,0.0,0.0,0.0,0.0,0.0,0.0,0.0,0.0,0.0,0.0,0.0,0.0,0.0,0.0,0.0,0.0,0.0,0.0,0.0,0.0,0.0,0.0,0.0,0.0,0.0,0.0,0.0,0.0,0.0,0.0,0.0,0.0,0.0,0.0,0.0,0.0,0.0,0.0,0.0,0.0,0.0,0.0,0.0,0.0,0.0,0.0,0.0,0.0,0.0,0.0,0.0,0.0,0.0,0.0,0.0,0.0,0.0,0.0,0.0,0.0,0.0,0.0,0.0,0.0,0.0,0.0,0.0,0.0,0.0,0.0,0.0,0.0,0.0,0.0,0.0,0.0,0.0,0.0,0.0,0.0,0.0,0.0,0.0,0.0,0.0,0.0,0.0,0.0,0.0,0.0,0.0,0.0,0.0,0.0,0.0,0.0,0.0,0.0,0.0,0.0,0.0,0.0,0.0,0.0,0.0,0.0,0.0,0.0,0.0,0.0,0.0,0.0,0.0,0.0,0.0,0.0,0.0,0.0,0.0,0.0,0.0,0.0,0.0,0.0,0.0,0.0,0.0,0.0,0.0,0.0,0.0,0.0,0.0,0.0,0.0,0.0,0.0,0.0,0.0,0.0,0.0,0.0,0.0,0.0,0.0,0.0,0.0,0.0,0.0,0.0,0.0,0.0,0.0,0.0,0.0,0.0,0.0,0.0,0.0,0.0,0.0,0.0,0.0,0.0,0.0,0.0,0.0,0.0,0.0,0.0,0.0,0.0,0.0,0.0,0.0,0.0,0.0,0.0,0.0,0.0,0.0,0.0,0.0,0.0,0.0,0.0,0.0,0.0,0.0,0.0,0.0,0.0,0.0,0.0,0.0,0.0,0.0,0.0,0.0,0.0,0.0,0.0,0.0,0.0,0.0,0.0,0.0,0.0,0.0,0.0,0.0,0.0,0.0,0.0,0.0,0.0,0.0,0.0,0.0,0.0,0.0,0.0,0.0,0.0,0.0,0.0,0.0,0.0,0.0,0.0,0.0,0.0,0.0,0.0,0.0,0.0,0.0,0.0,0.0,0.0,0.0,0.0,0.0,0.0,0.0,0.0,0.0,0.0,0.0,0.0,0.0,0.0,0.0,0.0,0.0,0.0,0.0,0.0,0.0,0.0,0.0,0.0,0.0,0.0,0.0,0.0,0.0,0.0,0.0,0.0,0.0,0.0,0.0,0.0,0.0,0.0,0.0,0.0,0.0,0.0,0.0,0.0,0.0,0.0,0.0,0.0,0.0,0.0,0.0,0.0,0.0,0.0,0.0,0.0,0.0,0.0,0.0,0.0,0.0,0.0,0.0,0.0,0.0,0.0,0.0,0.0,0.0,0.0,0.0,0.0,0.0,0.0,0.0,0.0,0.0,0.0,0.0,0.0,0.0,0.0,0.0,0.0,0.0,0.0,0.0,0.0,0.0,0.0,0.0,0.0,0.0,0.0,0.0,0.0,0.0,0.0,0.0,0.0,0.0,0.0,0.0,0.0,0.0,0.0,0.0,0.0,0.0,0.0,0.0,0.0,0.0,0.0,0.0,0.0,0.0,0.0,0.0,0.0,0.0,0.0,0.0,0.0,0.0,0.0,0.0,0.0,0.0,0.0,0.0,0.0,0.0,0.0,0.0,0.0,0.0,0.0,0.0,0.0,0.0,0.0,0.0,0.0,0.0,0.0,0.0,0.0,0.0,0.0,0.0,0.0,0.0,0.0,0.0,0.0,0.0,0.0,0.0,0.0,0.0,0.0,0.0,0.0,0.0,0.0,0.0,0.0,0.0,0.0,0.0,0.0,0.0,0.0,0.0,0.0,0.0,0.0,0.0,0.0,0.0,0.0,0.0,0.0,0.0,0.0,0.0,0.0,0.0,0.0,0.0,0.0,0.0,0.0,0.0,0.0,0.0,0.0,0.0,0.0,0.0,0.0,0.0,0.0,0.0,0.0,0.0,0.0,0.0,0.0,0.0,0.0,0.0,0.0,0.0,0.0,0.0,0.0,0.0,0.0,0.0,0.0,0.0,0.0,0.0,0.0,0.0,0.0,0.0,0.0,0.0,0.0,0.0,0.0,0.0,0.0,0.0,0.0,0.0,0.0,0.0,0.0,0.0,0.0,0.0,0.0,0.0,0.0,0.0,0.0,0.0,0.0,0.0,0.0,0.0,0.0,0.0,0.0,0.0,0.0,0.0,0.0,0.0,0.0,0.0,0.0,0.0,0.0,0.0,0.0,0.0,0.0,0.0,0.0,0.0,0.0,0.0,0.0,0.0,0.0,0.0,0.0,0.0,0.0,0.0,0.0,0.0,0.0,0.0,0.0,0.0,0.0,0.0,0.0,0.0,0.0,0.0,0.0,0.0,0.0,0.0,0.0,0.0,0.0,0.0,0.0,0.0,0.0,0.0,0.0,0.0,0.0,0.0,0.0,0.0,0.0,0.0,0.0,0.0,0.0,0.0,0.0,0.0,0.0,0.0,0.0,0.0,0.0,0.0,0.0,0.0,0.0,0.0,0.0,0.0,0.0,0.0,0.0,0.0,0.0,0.0,0.0,0.0,0.0,0.0,0.0,0.0,0.0,0.0,0.0,0.0,0.0,0.0,0.0,0.0,0.0,0.0,0.0,0.0,0.0,0.0,0.0,0.0,0.0,0.0,0.0,0.0,0.0,0.0,0.0,0.0,0.0,0.0,0.0,0.0,0.0,0.0,0.0,0.0,0.0,0.0,0.0,0.0,0.0,0.0,0.0,0.0,0.0,0.0,0.0,0.0,0.0,0.0,0.0,0.0,0.0,0.0,0.0,0.0,0.0,0.0,0.0,0.0,0.0,0.0,0.0,0.0,0.0,0.0,0.0,0.0,0.0,0.0,0.0,0.0,0.0,0.0,0.0,0.0,0.0,0.0,0.0,0.0,0.0,0.0,0.0,0.0,0.0,0.0,0.0,0.0,0.0,0.0,0.0,0.0,0.0,0.0,0.0,0.0,0.0,0.0,0.0,0.0,0.0,0.0,0.0,0.0,0.0,0.0,0.0,0.0,0.0,0.0,0.0,0.0,0.0,0.0,0.0,0.0,0.0,0.0,0.0,0.0,0.0,0.0,0.0,0.0,0.0,0.0,0.0,0.0,0.0,0.0,0.0,0.0,0.0,0.0,0.0,0.0,0.0,0.0,0.0,0.0,0.0,0.0,0.0,0.0,0.0,0.0,0.0,0.0,0.0,0.0,0.0,0.0,0.0,0.0,0.0,0.0,0.0,0.0,0.0,0.0,0.0,0.0,0.0,0.0,0.0,0.0,0.0,0.0,0.0,0.0,0.0,0.0,0.0,0.0,0.0,0.0,0.0,0.0,0.0,0.0,0.0,0.0,0.0,0.0,0.0,0.0,0.0,0.0,0.0,0.0,0.0,0.0,0.0,0.0,0.0,0.0,0.0,0.0,0.0,0.0,0.0,0.0,0.0,0.0,0.0,0.0,0.0,0.0,0.0,0.0,0.0,0.0,0.0,0.0,0.0,0.0,0.0,0.0,0.0,0.0,0.0,0.0,0.0,0.0,0.0,0.0,0.0,0.0,0.0,0.0,0.0,0.0,0.0,0.0,0.0,0.0,0.0,0.0,0.0,0.0,0.0,0.0,0.0,0.0,0.0,0.0,0.0,0.0,0.0,0.0,0.0,0.0,0.0,0.0,0.0,0.0,0.0,0.0,0.0,0.0,0.0,0.0,0.0,0.0,0.0,0.0,0.0,0.0,0.0,0.0,0.0,0.0,0.0,0.0,0.0,0.0,0.0,0.0,0.0,0.0,0.0,0.0,0.0,0.0,0.0,0.0,0.0,0.0,0.0,0.0,0.0,0.0,0.0,0.0,0.0,0.0,0.0,0.0,0.0,0.0,0.0,0.0,-0.9927,-0.9802,0.0,0.0,0.0,0.0,0.0,0.0,0.0,0.0,0.0,0.0,0.0,0.0,0.0,0.0,0.0,0.0,0.0,0.0,0.0,0.0,0.0,0.0,0.0,-0.6383,-0.6387,-0.6387,-0.4427,-0.3224,-0.3224,0.0,0.0,0.0,0.0,0.0,0.0,0.0493,0.0787,0.0746,0.1838,0.2345,0.2368,0.1261,0.0353,-0.0404,0.0,0.0,0.0,0.0,0.0,0.0,0.0,0.0,0.0,0.0,0.0,0.0,0.0,0.0,0.0,0.0,0.0,0.0,0.0,0.0,0.0,0.0,0.0,0.0,0.0,0.0,0.0,0.0,0.0,0.0,0.0,0.0,0.0,0.0,0.0,0.0,0.0,0.0,0.0,0.0,0.0,0.0,0.0,0.0,0.0,0.0,0.0,0.0,0.0,0.0,0.0,0.0,0.0,0.0,0.0,0.0,0.0,0.0,0.0,0.0,0.0,0.0,0.0,0.0,0.0,0.0,0.0,0.0,0.0,0.0,-1.011,-1.0042,0.0,0.0,0.0,0.0,0.0,0.0,0.0,0.0,0.0,0.0,0.0,0.0,0.0,0.0,0.0,0.0,0.0,0.0,0.0,0.0,0.0,-0.6574,-0.6352,-0.639,-0.6387,-0.6387,-0.4427,-0.3224,-0.3224,-0.1211,0.0,0.0,0.0,0.0101,0.0252,0.116,0.1714,0.1865,0.2981,0.3536,0.3525,0.2628,0.1467,0.0202,-0.0151,0.0,0.0,0.0,0.0,0.0,0.0,0.0,0.0,0.0,0.0,0.0,0.0,0.0,0.0,0.0,0.0,0.0,0.0,0.0,0.0,0.0,0.0,0.0,0.0,0.0,0.0,0.0,0.0,0.0,0.0,0.0,0.0,0.0,0.0,0.0,0.0,0.0,0.0,0.0,0.0,0.0,0.0,0.0,0.0,0.0,0.0,0.0,0.0,0.0,0.0,0.0,0.0,0.0,0.0,0.0,0.0,0.0,0.0,0.0,0.0,0.0,0.0,0.0,-1.0358,-1.0358,-1.0358,-1.0358,-1.0358,-1.0358,-1.0358,-1.0327,-1.0256,-0.9947,0.0,0.0,0.0,0.0,0.0,0.0,0.0,0.0,0.0,0.0,0.0,0.0,0.0,0.0,0.0,0.0,0.0,0.0,0.0,-0.6632,-0.6178,-0.6295,-0.6387,-0.6387,-0.4427,-0.3224,-0.3224,-0.1211,0.0,0.0,0.0,0.0454,0.1361,0.1513,0.2066,0.2972,0.4193,0.4802,0.4931,0.4651,0.3883,0.262,0.0757,-0.02,-0.0491,0.0,0.0,0.0,0.0,0.0,0.0,0.0,0.0,0.0,0.0,0.0,0.0,0.0,0.0,0.0,0.0,0.0,0.0,0.0,0.0,0.0,0.0,0.0,0.0,0.0,0.0,0.0,0.0,0.0,0.0,0.0,0.0,0.0,0.0,0.0,0.0,0.0,0.0,0.0,0.0,0.0,-0.0442,-0.0514,0.0,0.0,0.0,0.0,0.0,0.0,0.0,0.0,0.0,0.0,0.0,0.0,0.0,-0.7339,-1.0201,-1.022,-1.035,-1.0663,-1.0663,-1.0663,-1.0663,-1.0663,-1.0663,-1.0663,-1.0663,0.0,-1.0256,-0.9947,0.0,0.0,0.0,0.0,0.0,0.0,0.0,0.0,0.0,0.0,0.0,0.0,0.0,0.0,0.0,0.0,0.0,0.0,0.0,0.0,0.0,-0.6336,-0.6137,-0.5536,-0.4078,-0.2922,-0.2318,-0.0858,0.0,0.0,0.0,0.0505,0.1563,0.2167,0.3442,0.5368,0.5982,0.6375,0.6589,0.5693,0.5021,0.4459,0.2721,0.1469,0.0647,-0.0197,0.0,0.0,0.0,0.0,0.0,0.0,0.0,0.0,0.0,0.0,0.0,0.0,0.0,0.0,0.0,0.0,0.0,0.0,0.0,0.0,0.0,0.0,0.0,0.0,0.0,0.0,0.0,0.0,0.0,0.0,0.0,0.0,0.0,0.0,0.0,0.0,0.0,0.0,0.0,-0.0126,-0.0193,-0.0196,-0.0326,-0.0456,0.0,0.0,0.0,0.0,0.0,0.0,0.0,0.0,0.0,-0.5373,-0.619,-0.7842,-1.0425,-1.0428,-1.0589,-1.0782,-1.0782,-1.0802,-1.0721,-1.0721,-1.0721,-1.0721,-1.0721,-1.0646,-1.051,-1.029,-1.0151,-1.0118,0.0,0.0,0.0,0.0,-1.1518,-1.1912,0.0,0.0,0.0,0.0,0.0,0.0,0.0,0.0,0.0,0.0,0.0,0.0,-0.6298,-0.6122,-0.5684,-0.4885,-0.3575,-0.2469,-0.1664,-0.0606,0.0,0.0,0.0,0.0606,0.1966,0.3441,0.5205,0.7295,0.7349,0.7449,0.7599,0.6513,0.5934,0.5793,0.444,0.3205,0.2041,0.0652,0.0049,0.0,0.0,0.0,0.0,0.0,0.0,0.0,0.0,0.0,0.0,0.0,0.0,0.0,0.0,0.0,0.0,0.0,0.0,0.0,0.0,0.0,0.0,0.0,0.0,0.0,0.0,0.0,0.0,0.0,0.0,0.0,0.0,0.0,0.0,0.0,0.0,0.0,0.0,0.0,0.0,0.0,0.0,0.0,0.0,0.0,0.0,0.0,0.0,0.0,-0.0747,-0.1767,-0.3083,-0.4611,-0.6215,-0.7958,-0.9841,-1.0332,-1.0698,-1.1002,-1.0897,-1.0823,-1.0778,-1.0738,-1.0721,-1.0721,-1.0721,-1.0721,-1.0707,-1.0555,-1.0429,-1.0384,-1.0542,-1.0403,-1.0276,-1.0943,-1.1214,-1.1261,0.0,0.0,0.0,0.0,0.0,0.0,0.0,0.0,0.0,0.0,0.0,-0.6492,-0.6314,-0.5428,-0.4834,-0.4784,-0.2871,-0.1664,-0.1613,-0.0606,0.0,0.0,0.0,0.0958,0.3073,0.5583,0.7235,0.7849,0.7862,0.7756,0.7513,0.739,0.7054,0.6529,0.5529,0.4505,0.3387,0.1926,0.133,0.1205,-0.0246,0.0,0.0,0.0,0.0,0.0,0.0,0.0,0.0,0.0,0.0,0.0,0.0,0.0,0.0,0.0,0.0,0.0,0.0,0.0,0.0,0.0,0.0,0.0,0.0,0.0,0.0,0.0,0.0,0.0,0.0,0.0,0.0,0.0,0.0,0.0,0.0,0.0,0.0,0.0,0.0,0.0,0.0,0.0,0.0,0.0,-0.0068,-0.0069,-0.007,-0.014,-0.084,-0.2241,-0.4194,-0.6074,-0.7819,-0.9703,-1.0813,-1.1151,-1.1016,-1.0877,-1.0863,-1.0785,-1.0721,-1.0721,-1.0721,-1.0721,-1.0707,-1.0555,-1.0487,-1.0531,-1.0707,-1.0763,-1.0816,-1.1073,-1.1452,-1.1763,0.0,0.0,0.0,0.0,0.0,-1.1641,-1.0845,-0.9833,-0.885,-0.7969,-0.7016,-0.6146,-0.5426,-0.5016,-0.423,-0.2871,-0.2016,-0.1311,-0.0606,-0.0202,0.0,0.0,0.0656,0.2179,0.461,0.6308,0.7509,0.8183,0.8263,0.825,0.8151,0.7754,0.7493,0.7234,0.6528,0.6131,0.5807,0.3676,0.2745,0.2567,0.1151,0.0537,0.0,0.0,0.0,0.0,0.0,0.0,0.0,0.0,0.0,0.0,0.0,0.0,0.0,0.0,0.0,0.0,0.0,0.0,0.0,0.0,0.0,0.0,0.0,0.0,0.0,0.0,0.0,0.0,0.0,0.0,0.0,0.0,0.0,0.0,0.0,0.0,0.0,0.0,0.0,0.0,0.0,0.0,0.0,0.0,0.0,0.0,0.0,0.0,-0.0784,-0.2585,-0.4516,-0.6446,-0.8309,-1.0241,-1.1268,-1.1307,-1.1158,-1.1036,-1.0877,-1.0792,-1.0721,-1.0721,-1.0721,-1.0721,-1.0717,-1.066,-1.0639,-1.0636,-1.0713,-1.0699,-1.0609,-1.0927,-1.1184,-1.1381,0.0,0.0,0.0,0.0,-1.2012,-1.1642,-1.0531,-0.9689,-0.8792,-0.7596,-0.6798,-0.5958,-0.4929,-0.4481,-0.3525,-0.1765,-0.1261,-0.0757,-0.0051,0.0,0.0,0.0,0.142,0.327,0.5581,0.6824,0.7754,0.8443,0.8472,0.8404,0.8301,0.7797,0.752,0.7308,0.7022,0.695,0.7034,0.5498,0.4519,0.3932,0.2198,0.1454,0.1222,0.0,0.0,0.0,0.0,0.0,0.0,0.0,0.0,0.0,0.0,0.0,0.0,0.0,0.0,0.0,0.0,0.0,0.0,0.0,0.0,0.0,0.0,0.0,0.0,0.0,0.0,0.0,0.0,0.0,0.0,0.0,0.0,0.0,0.0,0.0,0.0,0.0,0.0,0.0,0.0,0.0,0.0,0.0,0.0,0.0,0.0,0.0,-0.0651,-0.2112,-0.4506,-0.6463,-0.7917,-1.0383,-1.1569,-1.1463,-1.126,-1.1114,-1.1016,-1.0812,-1.0721,-1.0721,-1.0721,-1.0721,-1.0721,-1.0721,-1.0721,-1.0721,-1.0721,-1.066,-1.0568,-1.083,-1.096,-1.1142,0.0,0.0,0.0,-1.227,-1.2324,-1.1788,-1.0207,-0.9741,-0.8932,-0.708,-0.6586,-0.5984,-0.4885,-0.3827,-0.2771,-0.1664,-0.0606,0.0,0.0,0.0,0.0,0.0051,0.2204,0.4186,0.5845,0.7225,0.817,0.8716,0.8585,0.8304,0.79,0.7576,0.7186,0.6815,0.6929,0.698,0.6932,0.71,0.6418,0.5166,0.2789,0.1713,0.1344,0.0,0.0,0.0,0.0,0.0,0.0,0.0,0.0,0.0,0.0,0.0,0.0,0.0,0.0,0.0,0.0,0.0,0.0,0.0,0.0,0.0,0.0,0.0,0.0,0.0,0.0,0.0,0.0,0.0,0.0,0.0,0.0,0.0,0.0,0.0,0.0,0.0,0.0,0.0,0.0,0.0,0.0,0.0,0.0,0.0,0.0,0.0,-0.0219,-0.0584,-0.3998,-0.6029,-0.6395,-0.9873,-1.1619,-1.1616,-1.1307,-1.1231,-1.122,-1.0853,-1.0721,-1.0721,-1.0721,-1.0721,-1.0721,-1.0721,-1.0721,-1.0721,-1.0721,-1.0721,-1.0721,-1.0721,-1.0916,-1.1263,0.0,0.0,-1.2228,-1.23,-1.2638,-1.2438,-1.1167,-1.0361,-0.9393,-0.802,-0.6975,-0.5684,-0.3827,-0.3374,-0.2469,-0.0606,-0.0151,0.0,0.0,0.0,0.0356,0.1131,0.258,0.4236,0.6013,0.726,0.8218,0.8821,0.8806,0.8527,0.7987,0.7835,0.7447,0.6934,0.6877,0.6422,0.5678,0.5723,0.5091,0.4032,0.3347,0.2988,0.2635,0.0,0.0,0.0,0.0,0.0,0.0,0.0,0.0,0.0,0.0,0.0,0.0,0.0,0.0,0.0,0.0,0.0,0.0,0.0,0.0,0.0,0.0,0.0,0.0,0.0,0.0,0.0,0.0,0.0,0.0,0.0,0.0,0.0,0.0,0.0,0.0,0.0,0.0,0.0,0.0,0.0,0.0,0.0,0.0,0.0,0.0,0.0,-0.0292,-0.1022,-0.4144,-0.6099,-0.6825,-1.0017,-1.1619,-1.1616,-1.1307,-1.1231,-1.122,-1.0853,-1.0721,-1.0721,-1.0721,-1.0721,-1.0721,-1.0721,-1.0721,-1.0721,-1.0721,-1.0721,-1.0721,-1.0721,-1.0979,-1.1434,0.0,-1.2192,-1.2475,-1.2475,-1.2837,-1.2762,-1.1677,-1.0728,-0.971,-0.8516,-0.7294,-0.5887,-0.4078,-0.3475,-0.2519,-0.0807,-0.0252,0.0,0.0,0.0,0.0463,0.1571,0.2319,0.3575,0.5281,0.6086,0.6746,0.7202,0.7598,0.7318,0.6308,0.6642,0.6295,0.55,0.5388,0.5045,0.4466,0.4491,0.4161,0.3582,0.3032,0.3124,0.3308,0.1445,0.0749,0.0699,0.016,0.0,0.0,0.0,0.0,0.0,0.0,0.0,0.0,0.0,0.0,0.0,0.0,0.0,0.0,0.0,0.0,0.0,0.0,0.0,0.0,0.0,0.0,0.0,0.0,0.0,0.0,0.0,0.0,0.0,0.0,0.0,0.0,0.0,0.0,0.0,0.0,0.0,0.0,0.0,0.0,0.0,0.0,-0.0146,-0.0511,-0.1168,-0.4364,-0.6391,-0.6968,-1.0089,-1.1619,-1.1616,-1.1372,-1.1223,-1.1155,-1.0921,-1.0782,-1.0721,-1.0721,-1.0721,-1.0721,-1.0721,-1.0721,0.0,0.0,0.0,0.0,0.0,-1.0921,-1.134,0.0,-1.2548,-1.2753,-1.2753,-1.3006,-1.2895,-1.207,-1.1111,-1.004,-0.8983,-0.7701,-0.6339,-0.5033,-0.4028,-0.2971,-0.1915,-0.0809,-0.0152,0.0,0.0,0.042,0.1388,0.1679,0.2511,0.4041,0.4325,0.458,0.4856,0.5699,0.5365,0.4019,0.4733,0.4496,0.3409,0.3409,0.3298,0.3191,0.3301,0.3301,0.3125,0.2181,0.2462,0.329,0.2056,0.162,0.1475,0.0377,0.0,0.0,0.0,0.0,0.0,0.0,0.0,0.0,0.0,0.0,0.0,0.0,0.0,0.0,0.0,0.0,0.0,0.0,0.0,0.0,0.0,0.0,0.0,0.0,0.0,0.0,0.0,0.0,0.0,0.0,0.0,0.0,0.0,0.0,0.0,0.0,0.0,0.0,0.0,0.0,0.0,0.0,-0.0365,0.0,0.0,0.0,-0.6682,-0.7259,-1.0161,-1.1619,-1.1616,-1.1447,-1.1294,-1.1158,-1.0995,-1.0782,-1.0721,-1.0721,-1.0721,-1.0721,-1.0721,-1.0721,-1.0721,-1.0721,-1.0721,-1.07,-1.0613,-1.0849,-1.1203,0.0,-1.2705,-1.2999,-1.2999,-1.3435,-1.3662,-1.3518,-1.1913,-1.0626,-1.0431,-0.8499,-0.6684,-0.5577,-0.5077,-0.4375,-0.332,-0.2043,-0.0935,-0.0053,0.0,0.0107,0.0326,0.1254,0.2031,0.2612,0.357,0.4246,0.4582,0.4751,0.4582,0.4021,0.4175,0.3912,0.3417,0.3417,0.2854,0.1971,0.195,0.1477,0.077,0.1504,0.1959,0.2014,0.0834,0.0334,0.0335,0.0111,0.0,0.0,0.0,0.0,0.0,0.0,0.0,0.0,0.0,0.0,0.0,0.0,0.0,0.0,0.0,0.0,0.0,0.0,0.0,0.0,0.0,0.0,0.0,0.0,0.0,0.0,0.0,0.0,0.0,0.0,0.0,0.0,0.0,0.0,0.0,0.0,0.0,0.0,0.0,0.0,0.0,0.0,-0.0365,-0.1385,-0.2983,-0.5233,-0.7189,-0.8853,-1.0671,-1.1619,-1.1616,-1.1338,0.0,-1.1224,-1.0887,-1.0748,-1.0721,-1.0721,-1.0721,-1.0721,-1.0721,-1.0721,-1.0721,-1.0721,-1.0721,-1.07,-1.0874,-1.1041,-1.1203,-1.2886,-1.3133,-1.332,-1.332,-1.3646,-1.3906,-1.3906,-1.2677,-1.1707,-1.156,-1.0038,-0.8559,-0.7313,-0.6614,-0.5717,-0.4524,-0.2663,-0.1358,-0.0851,-0.0323,0.0,0.0,0.0553,0.1051,0.1272,0.188,0.2257,0.2456,0.3054,0.289,0.202,0.264,0.2463,0.1672,0.1686,0.136,0.081,0.0817,0.0495,0.0055,0.067,0.0896,0.0896,0.0896,0.0896,0.084,0.0224,0.0,0.0,0.0,0.0,0.0,0.0,0.0,0.0,0.0,0.0,0.0,0.0,0.0,0.0,0.0,0.0,0.0,0.0,0.0,0.0,0.0,0.0,0.0,0.0,0.0,0.0,0.0,0.0,0.0,0.0,0.0,0.0,0.0,0.0,0.0,0.0,0.0,0.0,0.0,0.0,0.0,0.0,-0.0584,-0.1677,-0.3418,-0.5594,-0.7551,-0.9291,-1.0818,-1.1619,-1.1616,-1.1389,-1.1236,-1.1155,-1.0934,-1.0792,-1.0721,-1.0721,-1.0721,-1.0721,-1.0721,-1.0721,-1.0721,-1.0721,-1.0721,-1.0694,-1.0661,-1.0849,-1.1192,-1.3495,-1.3634,-1.3652,-1.3598,-1.3809,-1.3978,-1.3978,-1.3236,-1.263,-1.2387,-1.1512,-1.0386,-0.9103,-0.8146,-0.6965,-0.5356,-0.3449,-0.2152,-0.1657,-0.0816,-0.0221,0.0,0.0,0.0111,0.033,0.033,0.0328,0.0323,0.1286,0.1177,0.0,0.0974,0.0919,0.0,-0.0272,-0.0329,-0.0385,-0.0605,-0.0554,-0.0336,-0.0336,-0.0336,-0.0224,0.0728,0.1232,0.1344,0.0336,0.0,0.0,0.0,0.0,0.0,0.0,0.0,0.0,0.0,0.0,0.0,0.0,0.0,0.0,0.0,0.0,0.0,0.0,0.0,0.0,0.0,0.0,0.0,0.0,0.0,0.0,0.0,0.0,0.0,0.0,0.0,0.0,0.0,0.0,0.0,0.0,0.0,0.0,0.0,0.0,0.0,-0.0146,-0.0803,-0.2114,-0.3999,-0.5955,-0.791,-0.9726,-1.0962,-1.1619,-1.1616,-1.1433,-1.128,-1.1158,-1.0982,-1.0769,-1.0721,-1.0721,-1.0721,-1.0721,-1.0721,-1.0721,-1.0721,-1.0721,-1.0721,-1.0687,-1.0453,-1.0721,-1.118,0.0,-1.4051,-1.4135,-1.3906,-1.4081,-1.4256,-1.4256,-1.3349,-1.2678,-1.2678,-1.1804,-1.073,-0.9653,-0.9209,-0.7969,-0.5402,-0.5085,-0.4003,-0.1739,-0.1604,-0.1118,-0.0056,0.0,0.0,0.0056,0.0056,0.0056,0.0056,0.0165,0.0164,0.0,0.0162,0.0108,-0.0055,-0.1146,-0.1596,-0.1675,-0.2735,-0.257,-0.1623,-0.1623,-0.1623,-0.1567,-0.1456,-0.0728,0.0168,0.0056,0.0,0.0,0.0,0.0,0.0,0.0,0.0,0.0,0.0,0.0,0.0,0.0,0.0,0.0,0.0,0.0,0.0,0.0,0.0,0.0,0.0,0.0,0.0,0.0,0.0,0.0,0.0,0.0,0.0,0.0,0.0,0.0,0.0,0.0,0.0,0.0,0.0,0.0,0.0,0.0,-0.0146,-0.0511,-0.0949,-0.2695,-0.5958,-0.668,-0.842,-1.1325,-1.1476,-1.1619,-1.1616,-1.1324,-1.1179,-1.1224,-1.0873,-1.0734,-1.0721,-1.0721,-1.0721,-1.0721,-1.0721,-1.0721,-1.0721,-1.0721,-1.0721,-1.0683,-1.071,-1.0912,-1.1177,0.0,-1.4117,-1.4262,-1.4153,-1.4226,-1.4298,-1.4298,-1.3908,-1.3613,-1.3613,-1.327,-1.2587,-1.1512,-1.0096,-0.8499,-0.676,-0.5853,-0.4977,-0.3971,-0.3299,-0.2452,-0.1211,-0.1153,-0.0804,0.0,0.0,0.0,0.0,0.0,-0.0388,-0.1165,-0.1168,-0.1565,-0.2307,-0.2781,-0.303,-0.3049,-0.3568,-0.3435,-0.2953,-0.2953,-0.2935,-0.2854,-0.2854,-0.2519,-0.2015,-0.1288,-0.062,0.0,0.0,0.0,0.0,0.0,0.0,0.0,0.0,0.0,0.0,0.0,0.0,0.0,0.0,0.0,0.0,0.0,0.0,0.0,0.0,0.0,0.0,0.0,0.0,0.0,0.0,0.0,0.0,0.0,0.0,0.0,0.0,0.0,0.0,0.0,0.0,0.0,0.0,0.0,-0.0146,-0.0584,-0.0949,-0.2769,-0.632,-0.6825,-0.8492,-1.1548,-1.1619,-1.1619,-1.1616,-1.1307,-1.1231,-1.122,-1.0853,-1.0721,-1.0721,-1.0721,-1.0721,-1.0721,-1.0721,-1.0721,-1.0721,-1.0721,-1.0721,-1.0683,-1.0581,-1.0725,-1.0991,0.0,-1.4117,-1.4298,-1.4298,-1.4298,-1.4298,-1.4298,-1.4298,-1.4298,-1.4298,-1.4298,-1.3902,-1.2829,-1.0681,-0.897,-0.8137,-0.6861,-0.5977,-0.5567,-0.4826,-0.3862,-0.2569,-0.2522,-0.2046,-0.1099,-0.1098,-0.1092,-0.1079,-0.1186,-0.1691,-0.2648,-0.2781,-0.3311,-0.4187,-0.4523,-0.4674,-0.4693,-0.4927,-0.4839,-0.4444,-0.4388,-0.423,-0.4109,-0.4109,-0.41,-0.3916,-0.2351,-0.1242,-0.0457,-0.0115,0.0,0.0,0.0,0.0,0.0,0.0,0.0,0.0,0.0,0.0,0.0,0.0,0.0,0.0,0.0,0.0,0.0,0.0,0.0,0.0,0.0,0.0,0.0,0.0,0.0,0.0,0.0,0.0,0.0,0.0,0.0,0.0,0.0,0.0,0.0,0.0,0.0,-0.0219,-0.073,-0.1022,-0.2623,-0.5815,-0.6608,-0.8273,-1.0962,-1.14,-1.1599,-1.1552,-1.129,-1.1141,-1.1094,-1.0836,-1.0721,-1.0721,-1.0721,-1.0721,-1.0721,-1.0721,-1.0721,-1.0721,-1.0721,-1.0721,-1.0683,-1.0388,-1.0534,-1.0805,0.0,0.0,-1.4298,-1.4298,-1.4298,-1.4298,-1.4298,-1.4298,-1.4298,-1.4298,-1.4298,-1.3902,-1.2829,-1.0828,-0.946,-0.9167,-0.8409,-0.7217,-0.5527,-0.5744,-0.5274,-0.3789,-0.3784,-0.3813,-0.3812,-0.3753,-0.3811,-0.3809,-0.4097,-0.4294,-0.4349,-0.4673,-0.4845,-0.4922,-0.607,-0.6589,-0.6686,-0.751,-0.7211,-0.6094,-0.5745,-0.5576,-0.5437,-0.5437,-0.5386,-0.5035,-0.263,-0.1792,-0.1573,-0.04,0.0,0.0,0.0,0.0,0.0,0.0,0.0,0.0,0.0,0.0,0.0,0.0,0.0,0.0,0.0,0.0,0.0,0.0,0.0,0.0,0.0,0.0,0.0,0.0,0.0,0.0,0.0,0.0,0.0,0.0,0.0,0.0,0.0,0.0,0.0,0.0,0.0,-0.0365,-0.1168,-0.1168,-0.226,-0.4657,-0.6248,-0.7765,-0.9363,-1.0818,-1.1545,-1.1396,-1.124,-1.109,-1.0884,-1.0792,-1.0721,-1.0721,-1.0721,-1.0721,-1.0721,-1.0721,-1.0721,-1.0721,-1.0721,-1.0721,-1.0683,-1.0388,-1.0534,-1.0742,0.0,0.0,0.0,-1.4298,-1.4298,-1.4298,-1.4298,-1.4298,-1.4298,-1.4298,-1.4298,0.0,0.0,0.0,0.0,0.0,-0.8065,-0.7688,-0.7279,-0.7402,-0.6942,-0.5791,-0.5821,-0.5445,-0.46,-0.4539,-0.4539,-0.4539,-0.4696,-0.5163,-0.606,-0.6273,-0.6851,-0.7686,-0.8194,-0.8441,-0.8414,-0.8643,-0.8358,-0.7789,-0.7454,-0.7192,-0.6977,-0.6841,-0.6283,-0.5283,0.0,-0.2543,-0.1622,-0.039,0.0,0.0,0.0,0.0,0.0,0.0,0.0,0.0,0.0,0.0,0.0,0.0,-0.073,-0.1404,-0.1411,-0.1412,-0.1414,-0.1421,-0.0683,0.0,0.0,0.0,0.0,0.0,0.0,0.0,0.0,0.0,0.0,0.0,0.0,0.0,0.0,0.0,0.0,0.0,0.0,-0.0365,-0.1168,-0.1168,-0.2768,-0.6103,-0.6753,-0.8201,-1.0818,-1.1329,-1.1541,-1.1389,-1.1141,-1.0941,-1.0795,-1.0744,-1.0721,-1.0721,-1.0721,-1.0721,-1.0721,-1.0721,-1.0721,-1.0721,-1.0721,-1.0721,-1.0697,-1.0493,-1.0425,-1.0426,0.0,0.0,0.0,0.0,0.0,0.0,0.0,0.0,0.0,0.0,0.0,0.0,0.0,0.0,0.0,0.0,0.0,-0.8004,-0.8135,-0.8192,-0.7986,-0.7258,-0.7373,-0.7012,-0.6168,-0.6168,-0.6183,-0.6215,-0.6335,-0.6841,-0.7739,-0.7937,-0.8561,-0.9436,-0.9522,-0.9586,-0.9627,-0.9365,-0.9181,-0.8904,-0.8518,-0.8176,-0.7866,-0.7741,-0.7058,0.0,-0.4367,-0.3248,-0.2253,-0.0555,0.0,0.0,0.0,0.0,0.0,0.0,0.0,0.0,0.0,-0.0388,-0.0725,-0.0729,-0.1803,-0.2888,-0.2888,-0.2888,-0.2888,-0.2888,-0.176,-0.0751,-0.0755,-0.0349,0.0,0.0,0.0,0.0,0.0,0.0,0.0,0.0,0.0,0.0,0.0,0.0,0.0,0.0,0.0,-0.0365,-0.1168,-0.1168,-0.2695,-0.6103,-0.668,-0.8201,-1.0743,-1.1276,-1.1433,-1.1229,-1.0917,-1.0749,-1.0721,-1.0721,-1.0721,-1.0721,-1.0721,-1.0721,-1.0721,-1.0721,-1.0721,-1.0721,-1.0721,-1.0721,-1.0697,-1.049,-1.0358,-1.0309,0.0,0.0,0.0,0.0,0.0,0.0,0.0,0.0,0.0,0.0,0.0,0.0,0.0,0.0,0.0,0.0,0.0,0.0,-0.8065,-0.8275,-0.8382,-0.8243,-0.8381,-0.8457,-0.8457,-0.8457,-0.8515,-0.8637,-0.8938,-0.919,-0.9326,-0.9643,-0.9849,-0.9987,-0.9997,-1.0144,-1.027,-0.9807,-0.962,-0.9532,-0.8887,-0.848,-0.8173,-0.8049,-0.7763,-0.7102,-0.474,-0.3793,-0.3323,-0.0846,0.0,0.0,0.0,0.0,0.0,0.0,0.0,0.0,0.0,-0.1044,-0.2115,-0.2077,-0.329,-0.4427,-0.4427,-0.4427,-0.4427,-0.4427,-0.3156,-0.2093,-0.212,-0.0962,0.0,0.0,0.0,0.0,0.0,0.0,0.0,0.0,0.0,0.0,0.0,0.0,0.0,0.0,0.0,-0.0365,-0.1168,-0.1241,-0.2333,-0.4658,-0.6174,-0.7767,-0.9291,-1.067,-1.1233,-1.088,-1.0729,-1.0721,-1.0721,-1.0721,-1.0721,-1.0721,-1.0721,-1.0721,-1.0721,-1.0721,-1.0721,-1.0721,-1.0721,-1.0721,-1.0683,-1.0395,-1.0287,-1.0259,0.0,0.0,0.0,0.0,0.0,0.0,0.0,0.0,0.0,0.0,0.0,0.0,0.0,0.0,0.0,0.0,0.0,0.0,-0.8535,-0.8664,-0.8834,-0.8921,-0.9069,-0.9149,-0.9149,-0.9149,-0.9169,-0.9202,-0.9373,-0.9506,-0.955,-0.9825,-0.995,-0.9994,-1.0171,-1.0243,-1.027,-0.9992,-0.9738,-0.9476,-0.9233,-0.8799,-0.8254,-0.8283,-0.7485,-0.6213,-0.5592,-0.4129,-0.2215,-0.0574,0.0,0.0,0.0,0.0,0.0,0.0,0.0,0.0,0.0,-0.1059,-0.2074,-0.2082,-0.4028,-0.5837,-0.5837,-0.5837,-0.5837,-0.5837,-0.3827,-0.2086,-0.2094,-0.0963,0.0,0.0,0.0,0.0,0.0,0.0,0.0,0.0,0.0,0.0,0.0,0.0,0.0,0.0,-0.0292,-0.0657,-0.1168,-0.1459,-0.255,-0.4657,-0.6174,-0.7767,-0.9291,-1.0572,-1.1131,-1.088,-1.0729,-1.0721,-1.0721,-1.0721,-1.0721,-1.0721,-1.0721,-1.0721,-1.0721,-1.0721,-1.0721,-1.0721,-1.0721,-1.0721,-1.0697,-1.0507,-1.0371,-1.0259,0.0,0.0,0.0,0.0,0.0,0.0,0.0,0.0,0.0,0.0,0.0,0.0,0.0,0.0,0.0,0.0,0.0,0.0,0.0,-0.8791,-0.8903,-0.9052,-0.914,-0.9188,-0.9188,-0.9313,-0.9347,-0.934,-0.9564,-0.9673,-0.9615,-0.9842,-0.9886,-0.9893,-1.0039,-1.008,-1.007,-0.992,-0.9771,0.0,0.0,-0.9049,-0.8543,-0.8484,-0.7782,-0.668,-0.6133,-0.4611,-0.2782,-0.2024,-0.1025,0.0,0.0,0.0,0.0,0.0,-0.0456,-0.0922,-0.0922,-0.2393,-0.3962,-0.3962,-0.5704,-0.7381,-0.7381,-0.7381,-0.7381,-0.7381,-0.5099,-0.3089,-0.3089,-0.1369,0.0,0.0,0.0,0.0,0.0,0.0,0.0,0.0,0.0,0.0,0.0,0.0,0.0,0.0,-0.0365,-0.0803,-0.1168,-0.1604,-0.2695,-0.4657,-0.5525,-0.7007,-0.9065,-1.0417,-1.0992,-1.0779,-1.0761,-1.0721,-1.0721,-1.0721,-1.0721,-1.0721,-1.0721,-1.0721,-1.0721,-1.0721,-1.0721,-1.0721,-1.0721,-1.0721,-1.0694,-1.0477,-1.0348,-1.0249,0.0,0.0,0.0,0.0,0.0,0.0,0.0,0.0,0.0,0.0,0.0,0.0,0.0,0.0,0.0,0.0,0.0,0.0,0.0,0.0,0.0,-0.8878,-0.8902,-0.8902,-0.8885,-0.9208,-0.9276,-0.918,-0.9534,-0.9669,-0.9554,-0.9717,-0.9781,-0.9764,-0.9785,-0.9791,-0.9785,-0.9639,-0.9603,-0.9707,-0.9454,-0.915,-0.8757,0.0,0.0,-0.7747,-0.6396,-0.5218,-0.4336,-0.4163,-0.2503,-0.0573,-0.058,-0.0583,-0.0584,-0.0584,-0.1439,-0.2375,-0.2375,-0.4323,-0.6376,-0.6376,-0.7514,-0.8653,-0.8587,-0.8653,-0.8653,-0.8587,-0.6303,-0.4293,-0.4293,-0.1971,0.0,0.0,0.0,0.0,0.0,0.0,0.0,0.0,0.0,0.0,0.0,0.0,0.0,0.0,-0.0365,-0.0803,-0.1168,-0.1604,-0.2693,-0.4646,-0.4855,-0.6219,-0.8777,-1.0185,-1.0803,-1.0721,-1.0721,-1.0721,-1.0721,-1.0721,-1.0721,-1.0721,-1.0721,-1.0721,-1.0721,-1.0721,-1.0721,-1.0721,-1.0721,-1.0721,-1.0683,-1.0388,-1.028,-1.0236,0.0,0.0,0.0,0.0,0.0,0.0,0.0,0.0,0.0,0.0,-1.1713,-1.1751,0.0,0.0,0.0,0.0,0.0,0.0,0.0,0.0,0.0,-0.8888,-0.9052,-0.9059,-0.8885,-0.9106,-0.9123,-0.8977,-0.9174,-0.9313,-0.9296,-0.9517,-0.9578,-0.9462,-0.9591,-0.9646,-0.9635,-0.9486,-0.9327,-0.9211,-0.9163,-0.876,-0.8276,0.0,0.0,0.0,-0.6396,-0.578,-0.5421,-0.4456,-0.3868,-0.3523,-0.3532,-0.3564,-0.3532,-0.3532,-0.3738,-0.3944,-0.3944,-0.5157,-0.6376,-0.6376,-0.7712,-0.8917,-0.8653,-0.8787,-0.8917,-0.8653,-0.6303,-0.4293,-0.4293,-0.1971,0.0,0.0,0.0,0.0,0.0,0.0,0.0,0.0,0.0,0.0,0.0,0.0,0.0,0.0,-0.0365,-0.0803,-0.1168,-0.1604,-0.2682,-0.4583,-0.5734,-0.712,-0.8788,-1.0205,-1.0803,-1.0721,-1.0721,-1.0721,-1.0721,-1.0721,-1.0721,-1.0721,-1.0721,-1.0721,-1.0721,-1.0721,-1.0721,-1.0721,-1.0721,-1.0721,-1.0683,-1.0388,-1.028,-1.0236,0.0,0.0,0.0,0.0,0.0,0.0,0.0,-1.1773,-1.0752,-1.0526,-1.0603,-1.0441,-0.9887,-0.9958,-0.9783,0.0,0.0,0.0,0.0,0.0,0.0,0.0,-0.9173,-0.9176,-0.9052,-0.9347,-0.9391,-0.9167,0.0,-0.954,-0.9395,-0.9615,-0.9642,-0.9503,-0.9578,-0.9564,-0.9486,-0.9412,-0.9407,-0.9364,-0.9182,-0.8869,-0.8521,0.0,0.0,0.0,-0.7286,-0.7088,-0.7009,-0.6417,-0.6298,-0.6183,-0.477,-0.427,-0.4293,-0.4293,-0.483,-0.5367,-0.5367,-0.6439,-0.7581,-0.7779,-0.8448,-0.9117,-0.9189,-0.912,-0.905,-0.8917,-0.704,-0.5166,-0.4427,-0.2514,-0.0828,-0.014,0.0,0.0,0.0,0.0,0.0,0.0,0.0,0.0,0.0,0.0,0.0,0.0,-0.0146,-0.0584,-0.1168,-0.174,-0.2447,-0.336,-0.4759,-0.6136,-0.7594,-0.9033,-1.0047,-1.0721,-1.0721,-1.0721,-1.0721,-1.0721,-1.0721,-1.0721,-1.0721,-1.0721,-1.0721,-1.0721,-1.0721,-1.0721,-1.0721,-1.0721,-1.0694,-1.0473,-1.0344,-1.0249,0.0,0.0,0.0,0.0,0.0,0.0,0.0,-1.1136,-1.0019,-1.0212,-0.9774,-0.9442,-0.9473,-0.9418,-0.9381,0.0,0.0,0.0,0.0,0.0,0.0,0.0,0.0,-0.9292,-0.9258,0.0,0.0,-0.9432,-0.9781,0.0,0.0,0.0,0.0,0.0,-0.9595,-0.9544,-0.9429,-0.9395,-0.9427,0.0,0.0,-0.8953,-0.8778,0.0,0.0,0.0,0.0,-0.8172,-0.8175,-0.8202,-0.8337,-0.8042,-0.6009,-0.5297,-0.5232,-0.5232,-0.6038,-0.6844,-0.6844,-0.7781,-0.8787,-0.905,-0.925,-0.9386,-0.9661,-0.9455,-0.9186,-0.9117,-0.7646,-0.604,-0.4964,-0.3523,-0.212,-0.0686,-0.0421,-0.0357,-0.0072,0.0,0.0,0.0,0.0,0.0,0.0,0.0,0.0,0.0,-0.0146,-0.0511,-0.1168,-0.1869,-0.2281,-0.2281,-0.3605,-0.4981,-0.6471,-0.788,-0.931,-1.0721,-1.0721,-1.0721,-1.0721,-1.0721,-1.0721,-1.0721,-1.0721,-1.0721,-1.0721,-1.0721,-1.0721,-1.0721,-1.0721,-1.0721,-1.0697,-1.0514,-1.0375,-1.0253,0.0,0.0,0.0,0.0,0.0,0.0,0.0,-1.0071,-0.9023,-0.9455,-0.9545,-0.9639,-0.9768,-0.954,-0.9381,0.0,0.0,0.0,0.0,0.0,0.0,0.0,0.0,0.0,0.0,0.0,0.0,-0.9588,-0.9632,0.0,0.0,0.0,0.0,0.0,0.0,-0.9602,-0.9581,-0.9442,0.0,0.0,0.0,0.0,0.0,0.0,0.0,0.0,0.0,-0.8172,-0.8188,-0.8364,-0.8407,-0.8437,-0.8612,-0.8448,-0.8184,-0.8184,-0.8318,-0.8387,-0.8387,-0.8717,-0.905,-0.9117,-0.9585,-1.006,-0.9728,-0.9661,-0.9525,-0.9183,-0.7646,-0.6374,-0.6241,-0.5037,-0.3647,-0.2123,-0.1877,-0.1481,-0.0214,0.0,0.0,0.0,0.0,0.0,0.0,0.0,0.0,0.0,-0.0657,-0.1095,-0.1168,-0.1853,-0.2179,-0.2179,-0.3554,-0.4977,-0.6378,-0.7843,-0.931,-1.0721,-1.0721,-1.0721,-1.0721,-1.0721,-1.0721,-1.0721,-1.0721,-1.0721,-1.0721,-1.0721,-1.0721,-1.0721,-1.0721,-1.0721,-1.0687,-1.0402,-1.029,-1.0239,0.0,0.0,0.0,0.0,0.0,0.0,-1.066,-0.9644,-0.8977,-0.9334,-0.9513,-0.9663,-0.9805,-0.9717,-0.9646,-0.9646,0.0,0.0,0.0,0.0,0.0,0.0,0.0,0.0,0.0,0.0,-0.9812,-0.9812,-0.9968,0.0,0.0,0.0,0.0,0.0,0.0,-0.9822,-0.9734,-0.9673,0.0,0.0,0.0,0.0,0.0,0.0,0.0,0.0,0.0,0.0,-0.8353,-0.8595,-0.8677,-0.8736,-0.9095,-0.9261,-0.9259,-0.9259,-0.9259,-0.9259,-0.9259,-0.9392,-0.9522,-0.9721,-0.999,-1.0193,-1.0256,-1.0127,-0.9927,-0.9525,-0.8717,-0.7712,-0.6577,-0.5971,-0.5109,-0.3652,-0.3401,-0.3224,-0.2643,-0.259,-0.2615,-0.2729,-0.1871,-0.13,-0.1383,-0.051,0.0,0.0,-0.0724,-0.1154,-0.1154,-0.1843,-0.2167,-0.2219,-0.2719,-0.4097,-0.6364,-0.6967,-0.8437,-1.0721,-1.0721,-1.0721,-1.0721,-1.0721,-1.0721,-1.0721,-1.0721,-1.0721,-1.0721,-1.0721,-1.0721,-1.0721,-1.0721,-1.0663,-1.0568,-1.0453,-1.0293,-1.0124,0.0,0.0,0.0,0.0,0.0,-0.9886,-1.0059,-0.9435,-0.9045,-0.9344,-0.9513,-0.9663,-0.9805,-0.9863,-0.9886,-0.9886,-0.9846,0.0,0.0,0.0,0.0,0.0,0.0,0.0,0.0,0.0,-1.0137,-1.0181,-1.029,-1.0341,0.0,0.0,-1.0263,-1.0114,0.0,0.0,0.0,0.0,0.0,0.0,0.0,0.0,0.0,0.0,0.0,0.0,0.0,0.0,0.0,0.0,0.0,-0.9175,-0.9466,-0.9702,-0.9785,-0.9678,-0.963,-0.9728,-0.9728,-0.9797,-0.9927,-1.0127,-1.0259,-1.0389,-1.0654,-1.0455,-1.0123,-0.9927,-0.9525,-0.8917,-0.7581,-0.7312,-0.6706,-0.5299,-0.4981,-0.481,-0.4377,-0.4331,-0.4304,-0.4458,-0.3476,-0.2781,-0.2963,-0.1599,-0.051,-0.0145,-0.0719,-0.1141,-0.1274,-0.1823,-0.2222,-0.2201,-0.217,-0.3361,-0.5767,-0.6166,-0.7636,-1.0047,-1.0518,-1.0721,-1.0721,-1.0721,-1.0721,-1.0721,-1.0721,-1.0721,-1.0721,-1.0721,-1.0721,-1.0721,-1.0721,-1.0626,-1.0487,-1.0446,-1.0266,-0.998,0.0,0.0,0.0,0.0,0.0,0.0,-1.0059,-0.9435,-0.9045,-0.9344,-0.9513,-0.9663,-0.9805,-0.9896,-0.9984,-0.9984,-0.9849,0.0,0.0,0.0,0.0,0.0,0.0,0.0,0.0,0.0,-1.0348,-1.0487,-1.0487,-1.049,-1.049,-1.049,-1.0415,-1.0273,0.0,0.0,0.0,0.0,0.0,0.0,0.0,0.0,0.0,0.0,0.0,0.0,0.0,0.0,0.0,0.0,0.0,0.0,0.0,-1.019,-1.0098,-0.9561,-0.9554,-0.9728,-0.9728,-0.9927,-1.0193,-1.0193,-1.0455,-1.0721,-1.0721,-1.0455,-1.0193,-1.0193,-0.9927,-0.9661,-0.9661,-0.9322,-0.8581,-0.7174,-0.6652,-0.5891,-0.4521,-0.4298,-0.4335,-0.4336,-0.4266,-0.436,-0.449,-0.3178,-0.1811,-0.0573,-0.0859,-0.1274,-0.1584,-0.1994,-0.22,-0.22,-0.217,-0.2893,-0.4301,-0.57,-0.7167,-0.864,-1.0047,-1.0721,-1.0721,-1.0721,-1.0721,-1.0721,-1.0721,-1.0721,0.0,-1.0721,-1.0721,-1.0721,-1.0721,-1.0626,-1.0473,-1.0334,-1.0185,-0.9967,0.0,0.0,0.0,0.0,0.0,0.0,0.0,-0.9026,-0.9045,-0.9344,-0.9422,-0.9547,-0.9795,-0.9896,-0.9987,-0.9987,-1.01,0.0,0.0,0.0,0.0,0.0,0.0,0.0,0.0,-1.0351,-1.0446,-1.049,-1.0599,-1.0649,-1.0649,-1.0649,-1.0568,-1.0422,-1.0375,-1.0297,0.0,0.0,0.0,0.0,0.0,0.0,0.0,0.0,0.0,0.0,0.0,0.0,0.0,0.0,0.0,0.0,0.0,0.0,0.0,-1.0211,-1.0274,-1.0389,-1.0389,-1.0455,-1.0522,-1.0522,-1.0588,-1.0721,-1.0721,-1.0588,-1.0455,-1.0256,-1.0127,-0.9994,-0.9728,-0.9594,-0.9389,-0.892,-0.8753,-0.8507,-0.8035,-0.7723,-0.7633,-0.7707,-0.6877,-0.5461,-0.3448,-0.304,-0.2336,-0.0988,-0.126,-0.1457,-0.1582,-0.1976,-0.2169,-0.2169,-0.2227,-0.2893,-0.43,-0.4768,-0.617,-0.8573,-0.9042,-0.9779,-1.0721,-1.0721,-1.0721,-1.0721,-1.0721,-1.0721,-1.0721,-1.0721,-1.0721,-1.0711,-1.0605,-1.0477,-1.0331,-1.0178,-1.0025,-0.9886,0.0,0.0,0.0,0.0,0.0,0.0,0.0,-0.8842,-0.9045,-0.9344,-0.9381,-0.9513,-0.9869,-1.0046,-1.0158,-1.0149,-1.0358,0.0,0.0,0.0,0.0,0.0,0.0,0.0,-1.0354,-1.0504,-1.0578,-1.0578,-1.0673,-1.0721,-1.0721,-1.0721,-1.067,-1.0575,-1.0517,-1.0443,0.0,0.0,0.0,0.0,0.0,0.0,0.0,0.0,0.0,0.0,0.0,0.0,0.0,0.0,0.0,0.0,0.0,0.0,0.0,0.0,-1.0643,-1.0721,-1.0721,-1.0721,-1.0721,-1.0721,-1.0721,-1.0721,-1.0721,-1.0721,-1.0654,-1.0455,-1.0389,-1.0326,-1.0127,-0.9994,-0.9861,-0.9861,-0.9794,-0.9728,-0.9728,-0.9458,-0.9149,-0.8687,-0.791,-0.6176,-0.3196,-0.3141,-0.2725,-0.1392,-0.145,-0.1646,-0.1842,-0.2097,-0.2222,-0.2222,-0.2222,-0.2625,-0.3497,-0.4033,-0.5436,-0.7769,-0.8304,-0.931,-1.0721,-1.0721,-1.0721,-1.0721,-1.0721,-1.0721,0.0,-1.066,-1.0633,-1.0619,-1.047,-1.0324,-1.0181,-1.0024,-0.9889,-0.9822,0.0,0.0,0.0,0.0,0.0,0.0,0.0,-0.8849,-0.9045,-0.9344,-0.9381,-0.9551,-0.9936,-1.0188,-1.0337,-1.048,0.0,0.0,0.0,0.0,0.0,0.0,0.0,0.0,-1.0504,-1.0649,-1.0721,-1.0721,-1.0721,-1.0721,-1.0721,-1.0721,-1.0721,-1.0714,-1.0571,-1.0507,0.0,0.0,0.0,0.0,0.0,0.0,0.0,0.0,0.0,0.0,0.0,0.0,0.0,0.0,0.0,0.0,0.0,0.0,0.0,0.0,0.0,0.0,0.0,-1.0721,-1.0721,-1.0721,-1.0721,-1.0721,-1.0721,-1.0721,0.0,-1.0721,-1.0721,-1.0721,-1.0721,-1.0455,-1.0256,-1.0256,-0.9994,-0.9797,-0.9797,-0.9728,-0.9189,-0.7648,-0.7603,-0.657,-0.3564,-0.3396,-0.2986,-0.1718,-0.1647,-0.1775,-0.2156,-0.2222,-0.2222,-0.2222,-0.2222,-0.2222,-0.2222,-0.3497,-0.49,-0.6433,-0.7769,-0.9244,-1.0721,-1.0721,-1.0721,-1.0721,-1.0721,-1.0714,-1.0694,-1.0551,-1.0487,-1.0463,-1.0321,-1.0175,-0.9984,-0.9974,-0.9883,-0.9822,0.0,0.0,0.0,0.0,0.0,0.0,0.0,0.0,0.0,0.0,-0.9381,-0.9551,-0.9936,-1.0188,-1.0337,0.0,0.0,0.0,0.0,0.0,0.0,0.0,0.0,0.0,-1.0663,-1.0704,-1.0721,-1.0721,-1.0721,-1.0721,-1.0721,-1.0721,-1.0721,-1.0717,-1.0683,-1.0666,0.0,0.0,0.0,0.0,0.0,0.0,0.0,0.0,0.0,0.0,-1.0326,-1.0491,0.0,0.0,0.0,0.0,0.0,0.0,0.0,0.0,-1.0721,-1.0721,-1.0721,0.0,-1.0721,-1.0721,-1.0721,-1.0721,0.0,-1.0721,-1.0721,-1.0721,-1.0721,-1.0721,-1.0721,-1.0654,-1.0588,-1.0588,-1.0522,-1.0455,-1.0455,-1.0256,-0.9455,-0.7715,-0.7737,-0.681,-0.392,-0.3929,-0.3526,-0.2166,-0.203,-0.2095,-0.2223,-0.2222,-0.2222,-0.2222,-0.2222,-0.2222,-0.2222,-0.2558,-0.3963,-0.6433,-0.6767,-0.8238,-1.0721,-1.0721,-1.0721,-1.0721,-1.0721,-1.0653,-1.0541,-1.0507,-1.0429,-1.0317,-1.0161,-1.0017,-0.9974,-0.9856,-0.9852,-0.9822,0.0,0.0,0.0,0.0,0.0,0.0,0.0,0.0,0.0,0.0,0.0,0.0,0.0,0.0,0.0,0.0,0.0,0.0,0.0,0.0,0.0,0.0,0.0,-1.0565,-1.0717,-1.0721,-1.0721,-1.0721,-1.0721,-1.0721,-1.0721,-1.0721,-1.0721,-1.0721,-1.0721,-1.0721,0.0,0.0,0.0,0.0,0.0,0.0,0.0,0.0,0.0,0.0,-1.0456,-1.0592,0.0,-1.0721,-1.0721,-1.0721,0.0,0.0,0.0,0.0,-1.067,-1.0616,-1.0616,-1.0666,-1.0721,-1.0721,-1.0721,-1.0721,-1.0721,-1.0721,-1.07,-1.0629,-1.067,-1.07,-1.0629,-1.0673,-1.0721,-1.0721,-1.0721,-1.0721,-1.0721,-1.0522,-0.9851,-0.8179,-0.7574,-0.6437,-0.4235,-0.3631,-0.3027,-0.2289,-0.2222,-0.2222,-0.2222,-0.2222,-0.2222,-0.2222,-0.2222,-0.2222,-0.2222,-0.2222,-0.3294,-0.5434,-0.6099,-0.7569,-0.9779,-1.0386,-1.068,-1.0616,-1.0616,-1.0531,-1.0388,-1.0317,-1.0243,-1.0161,-1.0005,-0.9883,-0.9872,-0.9849,-0.9822,-0.9822,0.0,0.0,0.0,0.0,0.0,0.0,0.0,0.0,0.0,0.0,0.0,0.0,0.0,0.0,0.0,0.0,0.0,0.0,0.0,0.0,0.0,0.0,-1.0595,-1.0585,-1.0717,-1.0721,-1.0721,-1.0721,-1.0721,-1.0721,-1.0721,-1.0721,-1.0721,-1.0721,-1.0721,-1.0721,0.0,0.0,0.0,0.0,0.0,0.0,0.0,0.0,0.0,0.0,0.0,0.0,0.0,-1.0714,-1.0721,-1.0721,-1.0721,0.0,0.0,0.0,0.0,0.0,-1.0487,-1.0585,-1.0683,-1.0683,-1.0704,-1.0721,-1.0721,-1.0704,-1.0649,-1.0517,-1.0595,-1.0646,-1.0517,-1.0616,-1.0721,-1.0721,-1.0721,-1.0721,-1.0721,-1.0721,-1.0183,-0.8773,-0.7303,-0.5834,-0.4434,-0.3027,-0.2222,-0.2222,-0.2222,-0.2222,-0.2222,-0.2222,-0.2222,-0.2222,-0.2222,-0.2222,-0.2222,-0.2222,-0.2893,-0.4301,-0.57,-0.7167,-0.864,-1.0047,-1.0636,-1.049,-1.049,0.0,-1.0236,-1.0041,-0.9974,-0.994,-0.9873,-0.9822,-0.9822,-0.9822,-0.9822,-0.9819,0.0,0.0,0.0,0.0,0.0,0.0,0.0,0.0,0.0,0.0,0.0,0.0,0.0,0.0,0.0,0.0,0.0,0.0,0.0,0.0,0.0,-1.0721,-1.0697,-1.0697,-1.0721,-1.0721,-1.0721,-1.0721,-1.0721,-1.0721,-1.0721,-1.0721,-1.0721,-1.0721,-1.0721,-1.0721,-1.0721,-1.0721,0.0,0.0,-1.0721,0.0,0.0,0.0,0.0,0.0,0.0,0.0,0.0,-1.0677,-1.0721,-1.0721,-1.0721,0.0,0.0,0.0,0.0,0.0,-1.046,-1.051,-1.0527,-1.0527,-1.0622,-1.0721,-1.0721,-1.0619,-1.0521,-1.0497,-1.051,-1.0521,-1.0493,-1.0616,-1.0721,-1.0721,-1.0721,-1.0721,-1.0721,-1.0721,-1.0183,-0.8773,-0.7303,-0.5834,-0.4434,-0.3027,-0.2222,-0.2222,-0.2222,-0.2222,-0.2222,-0.2222,-0.2222,-0.2222,-0.2222,-0.2222,-0.2222,-0.2222,-0.2893,-0.4301,-0.57,-0.7167,-0.864,-1.0047,-1.0636,-1.049,0.0,-1.0337,-1.0021,-0.9997,-0.9913,-0.9852,-0.9829,-0.9822,-0.9822,-0.9822,-0.9822,-0.9802,0.0,0.0,0.0,0.0,0.0,0.0,0.0,0.0,0.0,0.0,0.0,0.0,0.0,0.0,0.0,0.0,0.0,0.0,0.0,0.0,-1.0721,-1.0721,-1.0721,-1.0721,-1.0721,-1.0721,-1.0721,-1.0721,-1.0721,-1.0721,-1.0721,-1.0721,-1.0721,-1.0721,-1.0721,-1.0721,-1.0721,-1.0721,-1.0721,0.0,0.0,0.0,0.0,0.0,0.0,0.0,0.0,0.0,0.0,0.0,-1.0483,-1.0483,-1.0483,0.0,0.0,0.0,0.0,0.0,-1.0236,-1.0314,-1.0378,-1.0378,-1.0551,-1.0721,-1.0721,-1.0666,-1.0592,-1.051,-1.0558,-1.0592,-1.0507,-1.0616,-1.0721,-1.0721,-1.0721,-1.0721,-1.0721,-1.0721,-1.0183,-0.8773,-0.7303,-0.5834,-0.4434,-0.3027,-0.2222,-0.2222,-0.2222,-0.2222,-0.2222,-0.2222,-0.2222,-0.2222,-0.2138,-0.213,-0.213,-0.2114,-0.2443,-0.3125,-0.4544,-0.5989,-0.7488,-0.8807,-0.979,-1.0375,0.0,-1.0127,-0.9866,-0.9866,-0.9883,-0.9822,-0.9822,-0.9822,-0.9822,-0.9822,-0.9822,-0.9798,0.0,0.0,0.0,0.0,0.0,0.0,0.0,0.0,0.0,0.0,0.0,0.0,0.0,0.0,0.0,0.0,0.0,0.0,0.0,0.0,-1.0721,-1.0721,-1.0721,-1.0721,-1.0721,-1.0721,-1.0721,-1.0721,-1.0721,-1.0721,-1.0721,-1.0721,-1.0721,-1.0721,-1.0721,-1.0721,-1.0721,-1.0721,-1.0721,0.0,0.0,0.0,0.0,0.0,0.0,0.0,0.0,0.0,0.0,0.0,0.0,0.0,0.0,0.0,0.0,-1.0226,-1.0117,-0.9943,-0.9977,-1.0137,-1.0236,-1.0273,-1.0477,-1.0677,-1.0711,-1.0666,-1.0595,-1.051,-1.0585,-1.0629,-1.0514,-1.0616,-1.0721,-1.0721,-1.0452,-1.0183,-1.0183,-0.9915,-0.931,-0.8238,-0.6769,-0.5501,-0.4434,-0.3027,-0.2222,-0.2222,-0.2222,-0.2222,-0.2222,-0.2215,-0.2144,-0.2144,-0.2114,-0.2033,-0.1968,-0.1939,-0.2003,-0.2099,-0.3497,-0.4789,-0.5946,-0.7555,-0.8849,-0.9773,-0.9913,-0.9903,-0.9822,-0.9822,-0.9822,-0.9822,-0.9822,-0.9822,-0.9822,-0.9822,-0.9798,-0.9751,0.0,0.0,0.0,0.0,0.0,0.0,0.0,0.0,0.0,0.0,0.0,0.0,0.0,0.0,0.0,0.0,0.0,0.0,0.0,0.0,-1.0721,-1.0721,-1.0721,-1.0721,-1.0721,-1.0721,-1.0721,-1.0721,-1.0721,-1.0721,-1.0721,-1.0721,-1.0721,-1.0721,-1.0721,-1.0721,-1.0721,-1.0721,-1.0721,-1.0721,-1.0721,0.0,0.0,0.0,0.0,0.0,0.0,0.0,0.0,0.0,0.0,0.0,0.0,0.0,-1.0004,-1.0004,-0.9896,-0.9869,-0.995,-0.9997,-1.01,-1.0246,-1.0395,-1.0548,-1.0687,-1.051,-1.0344,-1.0466,-1.05,-1.0504,-1.0493,-1.0616,-1.0721,-1.0721,-0.9579,-0.8776,-0.8776,-0.7569,-0.6698,-0.6564,-0.53,-0.4434,-0.4301,-0.3027,-0.2222,-0.2222,-0.2222,-0.2222,-0.2222,-0.2128,-0.2112,-0.2112,-0.2083,-0.1938,-0.1615,-0.1591,-0.1719,-0.2131,-0.3544,-0.425,-0.4447,-0.7072,-0.8287,-0.8304,-0.9489,-0.9903,-0.9822,-0.9822,-0.9822,-0.9822,-0.9822,-0.9822,-0.9822,-0.9822,-0.9737,-0.9602,0.0,0.0,0.0,0.0,0.0,0.0,0.0,0.0,0.0,0.0,0.0,0.0,0.0,0.0,0.0,0.0,0.0,0.0,0.0,-1.0522,-1.0721,-1.0721,-1.0721,-1.0721,-1.0721,-1.0721,-1.0721,-1.0721,-1.0721,-1.0721,-1.0721,-1.0721,-1.0721,-1.0721,-1.0721,-1.0721,-1.0721,-1.0721,-1.0721,-1.0721,-1.0721,0.0,0.0,0.0,0.0,0.0,0.0,0.0,0.0,0.0,-0.9995,-0.9995,-0.9995,-0.9954,-0.9845,-0.9845,-0.9866,-0.9832,-0.989,-1.0046,-1.0185,-1.0144,-1.0314,-1.0507,-1.0565,-1.049,-1.0456,-1.0602,-1.0633,-1.0633,-1.0633,-1.068,-1.0721,-1.0721,-0.951,-0.8573,-0.8573,-0.7303,-0.6099,-0.5166,-0.4634,-0.3966,-0.3095,-0.249,-0.2214,-0.2128,-0.2126,-0.2118,-0.2165,-0.2087,-0.2081,-0.2081,-0.1859,-0.1654,-0.1526,-0.1317,-0.1248,-0.1444,-0.1945,-0.2771,-0.3933,-0.4839,-0.6264,-0.8097,-0.8517,-0.9133,-0.9822,-0.9822,-0.9822,-0.9822,-0.9822,-0.9822,-0.9822,-0.9822,-0.973,-0.9588,0.0,0.0,0.0,0.0,0.0,0.0,0.0,0.0,0.0,0.0,0.0,0.0,0.0,0.0,0.0,0.0,0.0,0.0,-1.0187,-1.0478,-1.067,-1.0717,-1.0721,-1.0721,-1.0721,-1.0721,-1.0721,-1.0721,-1.0721,-1.0721,-1.0721,-1.0721,-1.0721,-1.0721,-1.0721,-1.0721,-1.0721,-1.0721,-1.0721,-1.0721,-1.0721,-1.0629,0.0,0.0,0.0,0.0,0.0,0.0,0.0,0.0,-0.9822,-0.9822,-0.9822,-0.9822,-0.9822,-0.9822,-0.9852,-0.9893,-0.9893,-1.0046,-1.0195,-1.0137,-1.0239,-1.0378,-1.047,-1.049,-1.0534,-1.0687,-1.0721,-1.0721,-1.0721,-1.0721,-1.0518,-1.0117,-0.8842,-0.7772,-0.7305,-0.5967,-0.4698,-0.3764,-0.363,-0.3228,-0.2289,-0.2213,-0.2131,-0.211,-0.2101,-0.2086,-0.2129,-0.2054,-0.205,-0.205,-0.1705,-0.1441,-0.1316,-0.0993,-0.0803,-0.0679,-0.0679,-0.1426,-0.2875,-0.3218,-0.4825,-0.7294,-0.771,-0.8653,-0.9822,-0.9822,-0.9822,-0.9822,-0.9822,-0.9822,-0.9815,-0.9771,-0.9663,-0.9513,0.0,0.0,0.0,0.0,0.0,0.0,0.0,0.0,0.0,0.0,0.0,0.0,0.0,0.0,0.0,0.0,0.0,0.0,-1.017,-1.0382,-1.0561,-1.0711,-1.0721,-1.0721,-1.0721,-1.0721,-1.0721,-1.0721,-1.0721,-1.0721,-1.0721,-1.0721,-1.0721,-1.0721,-1.0721,-1.0721,-1.0721,-1.0721,-1.0721,-1.0721,-1.0721,-1.0629,-1.0477,0.0,0.0,0.0,0.0,0.0,0.0,0.0,-0.9822,-0.9822,-0.9822,-0.9822,-0.9822,-0.9822,-0.9869,-0.9987,-0.9984,-0.9984,-1.0024,-1.0239,-1.0164,-1.0068,-1.0426,-1.049,-1.0534,-1.0687,-1.0721,-1.0721,-1.0721,-1.0721,-1.025,-0.8842,-0.7369,-0.5967,-0.4568,-0.3094,-0.2221,-0.2222,-0.2221,-0.2221,-0.2221,-0.2126,-0.2108,-0.2108,-0.208,-0.2128,-0.2128,-0.2035,-0.2018,-0.2018,-0.168,-0.1359,-0.0988,-0.0679,-0.0309,0.0,0.0,-0.037,-0.105,-0.265,-0.4125,-0.5473,-0.7184,-0.8593,-0.9822,-0.9822,-0.9822,-0.9822,-0.9822,-0.9822,-0.9802,-0.9659,-0.951,-0.9357,0.0,0.0,0.0,0.0,0.0,0.0,0.0,0.0,0.0,0.0,0.0,0.0,0.0,0.0,0.0,0.0,0.0,0.0,-1.0035,-1.0322,-1.0514,-1.0558,-1.0663,-1.0721,-1.0721,-1.0721,-1.0721,-1.0721,-1.0721,-1.0721,-1.0654,-0.9712,-0.9779,-1.0651,-0.9646,-0.9779,-1.0721,-1.0721,-1.0721,-1.0721,-1.0721,-1.0694,-1.0626,0.0,0.0,0.0,0.0,0.0,0.0,0.0,0.0,0.0,-0.9822,-0.9893,-0.9899,-0.9852,-0.9869,-0.9963,-0.9856,-0.9906,-0.9997,-1.0044,-1.0239,-1.0385,-1.0473,-1.049,-1.0534,-1.0687,-1.0721,-1.0721,-1.0721,-1.0721,-1.0585,-1.0183,-0.8909,-0.7772,-0.7372,-0.5986,-0.4698,-0.3774,-0.3544,-0.3132,-0.2221,-0.2082,-0.2068,-0.2047,-0.2037,-0.2023,-0.2003,-0.1994,-0.1865,-0.1678,-0.13,-0.0988,-0.0679,-0.0309,-0.0123,0.0,0.0,-0.0247,-0.0679,-0.1172,-0.2833,-0.5412,-0.59,-0.7551,-0.9822,-0.9822,-0.9822,-0.9822,-0.9822,-0.9758,-0.9666,-0.9625,-0.9445,-0.9272,0.0,0.0,0.0,0.0,0.0,0.0,0.0,0.0,0.0,0.0,-0.9594,-0.9461,0.0,0.0,0.0,0.0,0.0,0.0,0.0,-1.0364,-1.049,-1.049,-1.0636,-1.0721,-1.0721,-1.0721,-1.0721,-1.0721,-1.0721,-1.0721,-1.0654,-0.9244,-0.9042,-0.9845,-0.8975,-0.9016,-0.9836,-1.0366,-1.0599,-1.0544,-1.0544,-1.0544,-1.0521,0.0,0.0,0.0,0.0,0.0,0.0,0.0,0.0,0.0,-0.9822,-0.9883,-0.9879,-0.9846,-0.9869,-0.998,-1.0012,-1.0073,-1.0171,-1.0223,-1.0405,-1.0507,-1.0568,-1.0582,-1.0609,-1.07,-1.0721,-1.0721,-1.0721,-1.0721,-1.0518,-0.9981,-0.9178,-0.8358,-0.7715,-0.6797,-0.59,-0.5087,-0.4399,-0.3669,-0.2899,-0.2373,-0.2038,-0.202,-0.2008,-0.1994,-0.1977,-0.1853,-0.1729,-0.1482,-0.105,-0.0679,-0.0494,-0.0185,0.0,0.0,0.0,-0.0123,-0.0309,-0.0432,-0.2156,-0.5102,-0.639,-0.8044,-0.9822,-0.9822,-0.9788,-0.9737,-0.9737,-0.9649,-0.951,-0.9449,-0.931,-0.92,0.0,0.0,0.0,0.0,0.0,0.0,0.0,0.0,0.0,0.0,-0.9455,-0.9525,0.0,0.0,0.0,0.0,0.0,0.0,0.0,0.0,-1.049,-1.049,-1.0636,-1.0721,-1.0721,-1.0721,-1.0721,-1.0721,-1.0721,-1.0721,-1.0654,-0.9244,-0.8573,-0.8573,-0.8429,-0.8368,-0.8467,-0.976,-1.0266,-1.028,-1.028,-1.028,-1.0263,-1.0107,0.0,0.0,0.0,0.0,0.0,0.0,0.0,0.0,-0.9822,-0.9829,-0.9839,-0.9825,-0.9869,-1.0017,-1.0222,-1.0259,-1.0331,-1.0626,-1.0605,-1.0551,-1.0687,-1.0721,-1.0721,-1.0721,-1.0721,-1.0721,-1.0721,-1.0711,-1.023,-0.8958,-0.8748,-0.8239,-0.6762,-0.6547,-0.6444,-0.623,-0.5127,-0.4229,-0.4037,-0.2915,-0.214,-0.2015,-0.1991,-0.1977,-0.1977,-0.1667,-0.1482,-0.142,-0.0803,-0.0494,-0.0431,-0.0123,0.0,0.0,0.0,0.0,0.0,-0.0308,-0.191,-0.4606,-0.7734,-0.9387,-0.9741,-0.9741,-0.9717,-0.9588,-0.9588,-0.9496,-0.9344,-0.9262,-0.92,-0.9173,0.0,0.0,0.0,0.0,0.0,0.0,0.0,0.0,0.0,0.0,0.0,0.0,0.0,0.0,0.0,0.0,0.0,0.0,0.0,0.0,-1.049,-1.049,-1.0636,-1.0721,-1.0721,-1.0721,-1.0721,-1.0721,-1.0721,-1.0721,-1.0654,-0.9244,-0.8573,-0.8571,-0.7422,-0.7442,-0.8397,-0.8688,-0.934,-1.028,-1.028,-1.028,-1.0263,-1.0107,-0.9987,0.0,0.0,0.0,0.0,0.0,0.0,0.0,-0.9822,-0.9842,-0.9916,-0.9856,-0.9869,-0.9994,-1.0027,-1.0038,-1.0171,-1.0466,-1.0605,-1.068,-1.0714,-1.0721,-1.0721,-1.0721,-1.0721,-1.0721,-1.0721,-1.0622,-1.0411,-1.0143,-0.999,-0.9845,-0.9493,-0.9263,-0.8803,-0.7765,-0.7306,-0.6264,-0.41,-0.3655,-0.3095,-0.2048,-0.198,-0.1915,-0.1606,-0.1544,-0.1235,-0.0741,-0.0556,-0.0368,-0.0121,-0.0061,0.0,0.0,0.0,0.0,0.0,-0.0061,-0.1663,-0.4545,-0.6811,-0.8349,-0.9287,-0.9533,-0.9564,-0.9432,-0.9432,-0.9337,-0.9255,-0.9221,-0.9083,-0.8981,0.0,0.0,0.0,0.0,0.0,0.0,0.0,0.0,0.0,0.0,0.0,0.0,0.0,0.0,0.0,0.0,0.0,0.0,0.0,-1.0456,-1.0524,-1.0599,-1.0677,-1.0721,-1.0721,-1.0721,-1.0721,-1.0721,-1.0721,-1.0721,-1.0654,-0.9244,-0.8573,-0.8568,-0.7069,-0.674,-0.7401,-0.793,-0.8546,-0.9181,-0.9807,-1.0063,-1.0053,-0.9971,-0.9879,-0.9869,-0.9849,0.0,0.0,0.0,0.0,0.0,0.0,0.0,-0.9862,-0.9842,-0.9876,-0.9896,-0.9967,-1.0041,-1.0229,-1.0527,-1.066,-1.0721,-1.0721,-1.0663,-1.0612,-1.0612,-1.0612,-1.0612,-1.0612,-1.049,-1.0392,-1.0392,-1.0327,-1.0253,-1.0181,-1.01,-0.9709,-0.9014,-0.8328,-0.7365,-0.5957,-0.4671,-0.3876,-0.3879,-0.3266,-0.2835,-0.265,-0.2405,-0.1783,-0.0794,-0.0427,-0.0182,0.0,0.0,0.0,0.0,0.0,0.0,0.0,-0.0666,-0.2253,-0.4616,-0.6326,-0.7889,-0.9258,-0.9441,-0.9408,-0.933,-0.933,-0.9181,-0.9052,-0.9052,-0.9001,-0.8885,0.0,0.0,0.0,0.0,0.0,0.0,0.0,0.0,0.0,0.0,0.0,0.0,0.0,0.0,0.0,0.0,0.0,0.0,0.0,-1.0412,-1.0548,-1.0673,-1.0707,-1.0721,-1.0721,-1.0694,-1.0694,-1.0721,-1.067,-1.067,-1.0654,-0.951,-0.8842,-0.8568,-0.7051,-0.6306,-0.6291,-0.725,-0.7763,-0.798,-0.9207,-0.9748,-0.9785,-0.9785,-0.9768,-0.9744,-0.9744,-0.9764,-0.9785,-0.9785,0.0,0.0,0.0,0.0,-0.9744,-0.9744,-0.9744,-0.9778,-0.9869,-1.0124,-1.0344,-1.0612,-1.07,-1.0714,-1.0687,-1.0582,-1.0483,-1.046,-1.0456,-1.0456,-1.0456,-1.0337,-1.0243,-1.0243,-1.0219,-1.0158,-0.9967,-0.995,-0.9903,-0.9836,-0.89,-0.8163,-0.7919,-0.5896,-0.4977,-0.5835,-0.4855,-0.4116,-0.3739,-0.325,-0.2316,-0.0901,-0.03,0.0,0.0,0.0,0.0,0.0,0.0,0.0,-0.0059,-0.1131,-0.257,-0.4303,-0.5722,-0.7317,-0.8932,-0.9225,-0.9252,-0.9173,-0.9173,-0.9045,-0.8885,-0.8885,-0.8885,-0.8885,0.0,0.0,0.0,0.0,0.0,0.0,0.0,0.0,0.0,0.0,-0.8815,-0.9065,-0.9391,-0.9652,0.0,0.0,0.0,0.0,-1.028,0.0,0.0,-1.0521,-1.0649,-1.0721,-1.0721,-1.0592,-1.0585,-1.0721,-1.0466,-1.047,-1.0721,-1.0518,-0.9779,-0.8565,-0.6978,-0.6246,-0.6159,-0.5866,-0.6587,-0.798,-0.8967,-0.9446,-0.9639,-0.9639,-0.9554,-0.9439,-0.9439,-0.9527,-0.9639,-0.9639,-0.9639,0.0,0.0,0.0,-0.9439,-0.9439,-0.9439,-0.9473,-0.9629,-0.9968,-1.0321,-1.048,-1.0622,-1.0683,-1.0555,-1.0507,-1.0456,-1.0334,-1.031,-1.031,-1.031,-1.0185,-1.0017,-1.0017,-0.9968,-0.9876,-0.9852,-0.9849,-0.9842,-0.9822,-0.9636,-0.9083,-0.798,-0.7551,-0.6938,-0.5957,-0.5712,-0.4889,-0.3201,-0.3017,-0.2099,-0.0177,-0.0059,0.0,0.0,0.0,0.0,0.0,0.0,0.0,0.0,-0.0175,-0.1049,-0.2477,-0.4228,-0.5642,-0.6945,-0.8552,-0.9096,-0.8967,-0.8967,-0.8898,-0.8885,-0.8885,-0.8885,-0.8885,0.0,0.0,0.0,0.0,0.0,0.0,0.0,0.0,0.0,0.0,0.0,-0.8909,-0.9027,-0.9221,0.0,0.0,0.0,0.0,-1.0081,-1.029,0.0,0.0,-1.0558,-1.0592,-1.0592,-1.0527,-1.0487,-1.0473,-1.0344,-1.0388,-1.0592,-1.0592,-0.9905,-0.8562,-0.6964,-0.5849,-0.5072,-0.4488,-0.5079,-0.6487,-0.764,-0.8621,-0.9473,-0.9485,-0.9544,-0.9605,-0.9442,-0.9425,-0.9483,-0.9483,-0.9483,-0.9483,-0.9483,0.0,0.0,0.0,-0.9381,-0.9432,-0.9663,-0.9873,-1.008,-1.0317,-1.0426,-1.0456,-1.0388,-1.0307,-1.0226,-1.0161,-1.0083,-1.0049,-1.0134,-1.0025,-0.9859,-0.9859,-0.9866,-0.9822,-0.9822,-0.9822,-0.9822,-0.9822,-0.9822,-0.9576,-0.9022,-0.8225,-0.7821,-0.7941,-0.6557,-0.5314,-0.4272,-0.3442,-0.2122,-0.0349,-0.0116,0.0,0.0,0.0,0.0,0.0,0.0,0.0,0.0,0.0,-0.0749,-0.2144,-0.3154,-0.4717,-0.6661,-0.762,-0.8379,-0.8885,-0.8885,-0.8885,-0.8885,-0.8885,-0.8885,-0.8885,0.0,0.0,0.0,0.0,0.0,0.0,0.0,0.0,0.0,0.0,0.0,-0.8722,-0.8689,0.0,0.0,0.0,0.0,0.0,-0.9923,0.0,0.0,0.0,0.0,-1.0473,-1.0439,-1.0439,-1.0385,-1.028,-1.0202,-1.0276,-1.049,-1.0456,-0.9549,-0.7831,-0.6729,-0.5419,-0.4048,-0.3445,-0.3743,-0.4774,-0.6399,-0.7741,-0.8846,-0.9271,-0.9551,-0.9676,-0.9415,-0.9347,-0.9374,-0.9337,-0.9323,-0.9323,-0.9323,-0.93,0.0,0.0,0.0,-0.9323,-0.9581,-0.9707,-0.9832,-1.0097,-1.0222,-1.027,-1.0232,-1.0134,-0.9977,-0.9936,-0.99,-0.9856,-0.9909,-0.9835,-0.9822,-0.9822,-0.9822,-0.9822,-0.9822,-0.9822,-0.9822,-0.9822,-0.9822,-0.9822,-0.9822,-0.8783,-0.8528,-0.9549,-0.7338,-0.5737,-0.5129,-0.3617,-0.2029,-0.04,-0.0114,0.0,0.0,0.0,0.0,0.0,0.0,0.0,0.0,0.0,-0.0628,-0.1708,-0.2418,-0.3854,-0.575,-0.6705,-0.7654,-0.8491,-0.8771,-0.8885,-0.8885,-0.8885,-0.8885,-0.8885,0.0,0.0,0.0,0.0,0.0,0.0,0.0,0.0,0.0,0.0,0.0,0.0,-0.8678,-0.8626,-0.8744,-0.9226,-0.9275,0.0,0.0,0.0,0.0,0.0,0.0,0.0,-1.0293,-1.029,-1.0287,-1.028,-0.9988,-1.0066,-1.0487,-1.0354,-0.8812,-0.6032,-0.5942,-0.5079,-0.3663,-0.2912,-0.2744,-0.3321,-0.589,-0.7053,-0.7413,-0.9009,-0.9517,-0.9384,-0.9279,-0.9316,-0.9357,-0.9272,-0.9221,-0.9221,-0.9221,-0.9069,-0.8905,0.0,0.0,0.0,-0.9204,-0.9398,-0.9656,-0.9808,-1.0066,-1.0243,-1.0034,-0.9994,-0.9947,-0.9863,-0.9825,-0.9822,-0.9832,-0.9825,-0.9822,-0.9822,-0.9822,-0.9822,-0.9822,-0.9822,-0.9822,-0.9822,-0.9822,-0.9822,-0.9822,-0.9633,-0.9549,-0.9608,-0.7984,-0.6346,-0.4815,-0.3326,-0.1767,-0.0056,0.0,0.0,0.0,0.0,0.0,0.0,0.0,0.0,0.0,0.0,-0.0056,-0.0224,-0.1958,-0.2795,-0.313,-0.5922,-0.7154,-0.7321,-0.8436,-0.8885,-0.8885,-0.8885,-0.8885,-0.8885,0.0,0.0,0.0,0.0,0.0,0.0,0.0,0.0,0.0,0.0,0.0,0.0,0.0,-0.7002,-0.7495,-0.8925,-0.94,0.0,0.0,0.0,0.0,0.0,0.0,0.0,-1.0134,-1.0229,-1.0181,-0.9985,-0.9876,-0.9954,-1.0209,-1.0256,-0.9172,-0.7115,-0.6298,-0.4457,-0.1929,-0.1444,-0.1726,-0.2611,-0.3514,-0.5139,-0.7055,-0.7665,-0.8586,-0.9632,-0.9388,-0.933,-0.9282,-0.9228,-0.9093,-0.9015,-0.9015,-0.8981,-0.8885,-0.8885,-0.8885,-0.8971,-0.9169,-0.9292,-0.9351,-0.95,-0.9696,-0.9836,-0.9781,-0.9836,-0.9886,-0.9832,-0.9822,-0.9822,-0.9822,-0.9822,-0.9822,-0.9822,-0.9822,-0.9822,-0.9822,-0.9822,-0.9822,-0.9822,-0.9822,-0.9822,-0.9822,-0.9605,-0.9462,-0.9462,-0.7151,-0.5382,-0.4622,-0.237,-0.0789,0.0,0.0,0.0,0.0,0.0,0.0,0.0,0.0,0.0,0.0,0.0,0.0,-0.0056,-0.1121,-0.1959,-0.2851,-0.5083,-0.6424,-0.721,-0.8436,-0.8885,-0.8885,-0.8885,-0.8885,-0.8868,0.0,0.0,0.0,0.0,0.0,0.0,0.0,0.0,-0.2102,-0.2092,0.0,0.0,0.0,0.0,-0.6809,-0.8561,-0.9278,-0.9579,-0.9521,-0.97,0.0,0.0,0.0,0.0,-0.999,-1.0151,-1.0103,-0.9835,-0.9798,-0.9852,-0.9987,-1.0154,-0.9336,-0.7707,-0.6674,-0.4458,-0.1481,-0.0695,-0.0805,-0.1579,-0.2062,-0.3584,-0.5598,-0.6171,-0.7537,-0.9115,-0.8887,-0.9039,-0.9347,-0.9245,-0.9089,-0.9001,-0.8898,-0.8848,-0.8797,-0.8801,-0.8821,-0.8882,-0.8977,-0.9132,-0.9248,-0.9344,-0.9459,-0.9547,-0.9598,-0.9642,-0.9673,-0.9673,-0.9673,-0.9673,-0.9673,-0.9673,-0.9707,-0.9805,-0.9822,-0.9822,-0.9822,-0.9822,-0.9822,-0.9822,-0.9822,-0.9822,-0.9822,-0.9602,-0.9397,-0.9335,-0.6534,-0.4729,-0.4395,-0.1797,-0.0168,0.0,0.0,0.0,0.0,0.0,0.0,0.0,0.0,0.0,0.0,0.0,0.0,-0.0056,-0.0617,-0.1345,-0.2238,-0.4024,-0.5475,-0.6647,-0.782,-0.8546,-0.8885,-0.8885,-0.8851,-0.8849,0.0,0.0,0.0,0.0,0.0,0.0,0.0,0.0,-0.1984,-0.201,0.0,0.0,0.0,0.0,0.0,-0.8206,-0.8861,-0.9162,-0.8922,-0.946,0.0,0.0,0.0,0.0,-0.999,-0.9987,-0.9987,-0.9987,-0.9758,-0.9761,-0.998,-0.998,-0.9168,-0.7617,-0.7091,-0.5308,-0.2571,-0.0837,-0.0063,-0.0123,-0.1785,-0.2622,-0.3074,-0.4767,-0.6449,-0.7842,-0.7731,-0.8471,-0.9564,-0.9323,-0.9217,-0.9183,-0.8984,-0.8835,-0.8686,-0.8533,-0.8594,-0.871,0.0,0.0,0.0,-0.933,-0.9371,-0.9412,-0.9561,-0.9486,-0.9381,-0.9381,-0.9381,-0.9381,-0.9381,-0.9381,-0.9476,-0.9768,-0.9815,-0.9815,-0.9822,-0.9822,-0.9822,-0.9822,-0.9822,-0.9822,-0.9822,-0.9693,-0.9427,-0.912,-0.6348,-0.452,-0.424,-0.1525,0.0,0.0,0.0,0.0,0.0,0.0,0.0,0.0,0.0,0.0,0.0,0.0,0.0,-0.0056,-0.0617,-0.0897,-0.1065,-0.291,-0.436,-0.5528,-0.67,-0.7873,-0.8875,-0.8871,-0.8832,-0.8703,0.0,0.0,0.0,0.0,0.0,0.0,0.0,-0.033,-0.0592,0.0,0.0,0.0,-0.2474,-0.3971,-0.5482,-0.6983,-0.7353,-0.7992,-0.8939,-0.9093,-0.9217,-0.9275,-0.964,-0.9847,-0.9987,-0.9987,-0.9987,-0.9987,-0.9856,-0.9805,-0.9883,-0.9883,-0.9474,-0.8764,-0.7393,-0.6193,-0.5018,-0.2425,-0.0792,-0.0062,-0.0482,-0.1446,-0.2812,-0.4426,-0.6081,-0.7665,-0.8796,-0.9393,-0.9598,-0.951,-0.9337,-0.9183,-0.8984,-0.8854,-0.879,-0.8693,-0.8676,-0.871,-0.871,0.0,0.0,0.0,0.0,0.0,-0.9326,-0.9334,-0.9381,-0.9381,-0.9381,-0.9381,-0.9381,-0.9381,-0.9445,-0.9635,-0.9666,-0.9703,-0.9805,-0.9822,-0.9822,-0.9822,-0.9822,-0.9822,-0.9822,-0.9447,-0.9182,-0.912,-0.6118,-0.4295,-0.4182,-0.1525,0.0,0.0,0.0,0.0,0.0,0.0,0.0,0.0,0.0,0.0,0.0,0.0,0.0,-0.0056,-0.0617,-0.0897,-0.1121,-0.3801,-0.5083,-0.5577,-0.7491,-0.8445,-0.876,-0.8648,-0.8581,-0.853,0.0,0.0,0.0,-0.0135,0.0,0.0,0.0,0.0,0.0,0.0,0.0,0.0,-0.1846,-0.2858,-0.3949,-0.5333,-0.6214,-0.6976,-0.7674,-0.8433,-0.8976,-0.9156,-0.9416,-0.9741,-0.9987,-0.9923,-0.9923,-0.9987,-0.9836,-0.9764,-0.9822,-0.9822,-0.9667,-0.9369,-0.8033,-0.7013,-0.6175,-0.4185,-0.229,-0.0726,-0.0179,-0.0661,-0.177,-0.2736,-0.4512,-0.6691,-0.7614,-0.873,-0.968,-0.9554,-0.9313,-0.9039,-0.8889,-0.8845,-0.8815,-0.8659,-0.8615,-0.8615,-0.8615,-0.8615,-0.8665,-0.8828,0.0,0.0,-0.9049,-0.9083,-0.9083,-0.9018,-0.9106,-0.9178,-0.9113,-0.9205,-0.9313,-0.9405,-0.9473,-0.9588,-0.9791,-0.9822,-0.9822,-0.9822,-0.9822,-0.9822,-0.9822,-0.9439,-0.915,-0.9033,-0.6066,-0.374,-0.2499,-0.0901,0.0,0.0,0.0,0.0,0.0,0.0,0.0,0.0,0.0,0.0,0.0,0.0,0.0,-0.0056,-0.061,-0.116,-0.1755,-0.4267,-0.5273,-0.5467,-0.7268,-0.8236,-0.8604,-0.8516,-0.8445,-0.8381,0.0,0.0,0.0,0.0,0.0,0.0,0.0,0.0,0.0,0.0,0.0,-0.0459,-0.162,-0.1809,-0.2325,-0.3557,-0.5157,-0.6053,-0.593,-0.7696,-0.8793,-0.8915,-0.9279,-0.9663,-0.9987,-0.9839,-0.9897,-0.9987,-0.9771,-0.9696,-0.9822,-0.9788,-0.9703,-0.9519,-0.8761,-0.7699,-0.6406,-0.5606,-0.3927,-0.1699,-0.0655,-0.0301,-0.0483,-0.0856,-0.2699,-0.5213,-0.5693,-0.7453,-0.9546,-0.939,-0.9181,-0.8937,-0.8784,-0.8733,-0.8706,-0.8554,-0.8496,-0.8482,-0.8482,-0.8469,-0.853,-0.8835,-0.8798,0.0,-0.8844,-0.8821,-0.8676,-0.8557,-0.875,-0.8841,-0.876,-0.895,-0.919,-0.9207,-0.9323,-0.9459,-0.9754,-0.9812,-0.9829,-0.9842,-0.9846,-0.9846,-0.9846,-0.9483,-0.9172,-0.8915,-0.6092,-0.307,-0.0168,0.0,0.0,0.0,0.0,0.0,0.0,0.0,0.0,0.0,0.0,0.0,0.0,0.0,0.0,-0.0055,-0.0654,-0.1512,-0.2659,-0.4355,-0.5145,-0.5379,-0.6611,-0.7611,-0.8459,-0.8438,-0.8353,-0.8245,-0.0067,0.0,0.0,0.0,0.0,0.0,0.0,0.0,0.0,0.0,0.0,-0.0132,-0.0333,-0.0396,-0.0922,-0.2331,-0.3643,-0.4867,-0.6016,-0.7366,-0.8363,-0.8854,-0.9001,-0.9316,-0.9984,-0.9839,-0.9897,-0.9987,-0.9869,-0.9795,-0.9815,-0.9578,-0.9452,-0.9415,-0.8518,-0.7444,-0.6254,-0.4879,-0.3314,-0.1755,-0.1555,-0.0884,-0.0361,-0.2914,-0.3702,-0.3858,-0.7369,-0.8342,-0.8143,-0.8969,-0.9217,-0.9086,-0.894,-0.8841,-0.8811,-0.871,-0.8577,-0.8482,-0.8482,-0.8397,-0.8384,-0.8679,-0.8638,0.0,-0.8821,-0.8821,-0.8737,-0.8828,-0.8841,-0.8875,-0.8844,-0.894,-0.9018,-0.919,-0.9234,-0.9361,-0.9608,-0.9747,-0.9866,-0.9926,-0.9943,-0.9943,-0.9943,-0.9451,-0.9097,-0.8925,-0.5852,-0.2837,-0.0168,0.0,0.0,0.0,0.0,0.0,0.0,0.0,0.0,0.0,0.0,0.0,0.0,0.0,0.0,-0.0054,-0.0643,-0.1496,-0.2659,-0.4355,-0.5585,-0.6494,-0.7614,-0.813,-0.8296,-0.8174,-0.8059,-0.8085,0.0,0.0,0.0,0.0,0.0,0.0,0.0,0.0,0.0,0.0,0.0,0.0,0.0,0.0,-0.0267,-0.1008,-0.2241,-0.3566,-0.4889,-0.6173,-0.7501,-0.8857,-0.8915,-0.9191,-0.9872,-0.9859,-0.9859,-0.9872,-0.9859,-0.9785,-0.971,-0.9564,-0.9412,-0.9262,-0.8659,-0.7674,-0.6454,-0.5345,-0.3877,-0.2136,-0.1417,-0.0638,-0.0177,-0.1881,-0.2716,-0.3265,-0.623,-0.7754,-0.8492,-0.8924,-0.9045,-0.9022,-0.8872,-0.8821,-0.8854,-0.8757,-0.8601,-0.8465,-0.8394,-0.8269,-0.8211,-0.8435,-0.8431,0.0,0.0,-0.8601,-0.8577,-0.8453,-0.8676,-0.8838,-0.8737,-0.8835,-0.8937,-0.8933,-0.9111,-0.9238,-0.9262,-0.953,-0.9798,-0.996,-0.9987,-1.0017,-1.0158,-0.9537,-0.86,-0.7491,-0.5232,-0.3079,-0.1079,-0.0338,0.0,0.0,0.0,0.0,0.0,0.0,0.0,0.0,0.0,0.0,0.0,0.0,0.0,-0.0053,-0.1052,-0.2142,-0.336,-0.4907,-0.6249,-0.7437,-0.8061,-0.8221,-0.8147,-0.8019,-0.7988,-0.7988,0.0,0.0,0.0,0.0,0.0,0.0,0.0,0.0,0.0,0.0,0.0,0.0,0.0,0.0,0.0,0.0,-0.1195,-0.255,-0.38,-0.5139,-0.6821,-0.8833,-0.8928,-0.9172,-0.9802,-0.9836,-0.9822,-0.9822,-0.9791,-0.9724,-0.9608,-0.9551,-0.9391,-0.915,-0.8555,-0.7574,-0.6295,-0.5554,-0.4073,-0.2157,-0.0956,-0.0343,-0.0228,-0.0869,-0.1748,-0.2795,-0.4535,-0.6851,-0.9093,-0.8977,-0.8885,-0.8861,-0.8794,-0.8838,-0.8858,-0.8791,-0.8645,-0.8503,-0.8387,-0.8221,-0.8119,-0.8275,-0.8269,-0.8241,0.0,0.0,0.0,-0.8167,-0.846,-0.8774,-0.8526,-0.871,-0.8801,-0.873,-0.8913,-0.9045,-0.8988,-0.9293,-0.9642,-0.9906,-0.997,-1.0038,-1.0222,-0.9537,-0.8175,-0.6084,-0.4678,-0.3323,-0.2068,-0.0735,0.0,0.0,0.0,0.0,0.0,0.0,0.0,0.0,0.0,0.0,0.0,0.0,0.0,-0.0052,-0.1187,-0.2552,-0.4066,-0.5222,-0.6581,-0.8002,-0.8177,-0.815,-0.7988,-0.7988,-0.7988,-0.7988,0.0,0.0,0.0,0.0,0.0,0.0,0.0,0.0,0.0,0.0,0.0,0.0,0.0,0.0,0.0,0.0,-0.1195,-0.255,-0.38,-0.5139,-0.6851,-0.896,-0.8977,-0.9216,-0.996,-0.989,-0.9822,-0.9822,-0.9696,-0.9625,-0.9605,-0.9334,-0.9245,-0.9147,-0.7609,-0.6258,-0.501,-0.3632,-0.2291,-0.106,-0.0898,-0.078,-0.0936,-0.3074,-0.2869,-0.1804,-0.444,-0.6897,-0.8905,-0.8888,-0.8885,-0.8878,-0.8861,-0.8868,-0.8878,-0.8861,-0.8804,-0.8679,-0.8665,-0.8455,-0.8279,-0.8421,-0.8262,-0.8136,-0.8397,0.0,-0.8371,-0.8414,0.0,-0.8523,-0.8489,0.0,0.0,-0.8713,-0.874,-0.8845,-0.9149,-0.9228,-0.9364,-0.9795,-0.9906,-0.9994,-1.0011,-0.9387,-0.808,-0.608,-0.4678,-0.3323,-0.2068,-0.0735,0.0,0.0,0.0,0.0,0.0,0.0,0.0,0.0,0.0,0.0,0.0,0.0,0.0,0.0,-0.0405,-0.1867,-0.4016,-0.4418,-0.5924,-0.7992,-0.8008,-0.8005,-0.7988,-0.7988,-0.7988,-0.7988,0.0,0.0,0.0,0.0,0.0,0.0,0.0,0.0,0.0,0.0,0.0,0.0,0.0,0.0,0.0,0.0,-0.0535,-0.1722,-0.3849,-0.4537,-0.6042,-0.8727,-0.8726,-0.8992,-0.9676,-0.9594,-0.9579,-0.9822,-0.968,-0.9564,-0.9473,-0.9313,-0.8765,-0.7953,-0.7229,-0.5777,-0.3801,-0.3007,-0.2092,-0.1129,-0.1479,-0.1467,-0.1439,-0.2264,-0.2575,-0.2799,-0.3914,-0.5866,-0.7867,-0.7786,-0.8255,-0.8868,-0.8835,-0.8811,-0.8865,-0.8832,-0.876,-0.8693,-0.8601,-0.8428,-0.8354,-0.8445,-0.8326,-0.8228,-0.8435,-0.8506,-0.8516,-0.8486,0.0,0.0,0.0,0.0,0.0,0.0,-0.8784,-0.8855,-0.8889,-0.912,-0.9418,-0.9778,-0.9876,-0.9761,-0.9492,-0.9265,-0.8579,-0.7243,-0.5946,-0.4603,-0.3101,-0.1752,-0.0728,0.0,0.0,0.0,0.0,0.0,0.0,0.0,0.0,0.0,0.0,0.0,0.0,-0.0051,-0.1412,-0.2768,-0.4116,-0.5475,-0.6781,-0.7988,-0.7988,-0.7988,-0.7988,-0.7988,-0.7988,-0.7988,0.0,0.0,0.0,0.0,0.0,0.0,0.0,0.0,0.0,0.0,0.0,0.0,0.0,0.0,0.0,0.0,0.0,-0.1003,-0.3358,-0.388,-0.5298,-0.8084,-0.838,-0.8815,-0.9547,-0.9367,-0.9441,-0.9764,-0.9618,-0.9469,-0.9317,-0.9164,-0.8416,-0.7096,-0.6702,-0.5216,-0.3076,-0.2336,-0.17,-0.117,-0.1471,-0.1572,-0.1492,-0.1431,-0.2344,-0.358,-0.358,-0.4905,-0.6594,-0.651,-0.7282,-0.8356,-0.8249,-0.8453,-0.8791,-0.8679,-0.8648,-0.8625,-0.8513,-0.8408,-0.8353,-0.8455,-0.8404,-0.8357,-0.8459,-0.8537,-0.8581,-0.855,-0.8686,0.0,0.0,0.0,-0.8818,-0.8777,0.0,-0.8844,-0.8791,-0.9055,-0.9354,-0.9608,-0.971,-0.9617,-0.9187,-0.9214,-0.901,-0.8278,-0.6982,-0.557,-0.4045,-0.2616,-0.1292,-0.0056,0.0,0.0,0.0,0.0,0.0,0.0,0.0,0.0,0.0,0.0,0.0,-0.0101,-0.1966,-0.3219,-0.4166,-0.5977,-0.7235,-0.7988,-0.7988,-0.7988,-0.7988,-0.7988,-0.7988,-0.7988,0.0,0.0,0.0,0.0,0.0,0.0,0.0,0.0,0.0,0.0,0.0,0.0,0.0,0.0,0.0,0.0,0.0,-0.0602,-0.1976,-0.3355,-0.4927,-0.6756,-0.7915,-0.8854,-0.9681,-0.9416,-0.9395,-0.9615,-0.9462,-0.931,-0.9214,-0.9015,-0.8273,-0.7041,-0.5582,-0.4298,-0.2961,-0.1232,-0.0616,-0.0895,-0.056,-0.0616,-0.1005,-0.1541,-0.254,-0.358,-0.358,-0.4372,-0.5347,-0.5343,-0.609,0.0,0.0,-0.7697,-0.8496,-0.8489,-0.8489,-0.8489,-0.8482,-0.8479,-0.8476,-0.8479,-0.8479,-0.8476,-0.8479,-0.8381,-0.8364,-0.8645,-0.8594,-0.8584,-0.8821,-0.9045,-0.9093,-0.8898,-0.8878,0.0,0.0,-0.8888,-0.9008,-0.9214,-0.9435,-0.955,-0.9316,-0.9271,-0.9153,-0.8903,-0.7323,-0.5782,-0.4462,-0.2892,-0.1358,-0.0055,0.0,0.0,0.0,0.0,0.0,0.0,0.0,0.0,0.0,0.0,0.0,-0.0051,-0.116,-0.2566,-0.4066,-0.5172,-0.6578,-0.7988,-0.7988,-0.7988,-0.7988,-0.7988,-0.7988,-0.7988,0.0,0.0,0.0,0.0,0.0,0.0,0.0,0.0,0.0,0.0,0.0,0.0,0.0,0.0,0.0,0.0,0.0,-0.0604,-0.2003,-0.34,-0.453,-0.5127,-0.7261,-0.8269,-0.7962,-0.8696,-0.929,-0.9747,-0.9605,-0.9507,-0.9449,-0.8394,-0.715,-0.5732,-0.4323,-0.2796,-0.1288,-0.0673,-0.0446,-0.0552,-0.0662,-0.0777,-0.0897,-0.1114,-0.145,-0.1849,-0.2017,-0.2824,0.0,-0.4035,-0.4903,-0.584,-0.584,-0.6579,-0.7425,-0.7425,-0.7954,-0.8482,0.0,0.0,-0.8364,-0.8459,-0.8482,-0.8509,-0.8611,-0.8598,-0.8645,-0.8944,-0.8886,-0.8876,-0.9178,-0.9273,-0.9289,-0.9239,-0.9147,-0.9079,0.0,-0.8998,-0.8991,-0.919,-0.9334,-0.9343,-0.908,-0.924,-0.9196,-0.881,-0.8061,-0.6679,-0.4391,-0.3473,-0.2125,-0.0055,0.0,0.0,0.0,0.0,0.0,0.0,0.0,0.0,0.0,0.0,0.0,-0.0101,-0.1865,-0.3169,-0.4116,-0.5924,-0.7185,-0.7988,-0.7988,-0.7988,-0.7988,-0.7988,-0.7988,-0.7988,0.0,0.0,0.0,0.0,0.0,0.0,0.0,0.0,0.0,0.0,0.0,0.0,0.0,0.0,0.0,0.0,0.0,-0.0404,-0.1278,-0.2686,-0.349,-0.349,-0.5695,-0.6855,-0.6942,-0.7833,-0.8756,-0.956,-0.9643,-0.939,-0.8806,-0.7821,-0.6351,-0.4404,-0.3415,-0.2004,-0.0392,-0.0279,-0.0277,-0.0276,-0.0497,-0.0555,-0.0561,-0.0561,-0.0729,-0.0897,0.0,-0.1662,-0.2344,-0.2601,-0.3473,-0.4416,-0.4544,-0.5313,-0.6142,-0.6142,-0.6921,-0.7753,-0.7753,-0.8039,0.0,-0.8384,-0.8445,-0.8537,-0.8743,-0.875,-0.8794,-0.9146,-0.9123,-0.9123,-0.9208,-0.9354,-0.9412,-0.9249,-0.9184,-0.919,0.0,-0.8998,-0.8974,-0.9066,-0.9208,-0.9245,-0.911,-0.9269,-0.9283,-0.8956,-0.8667,-0.7492,-0.5155,-0.4254,-0.2841,-0.0705,-0.0215,0.0,0.0,0.0,0.0,0.0,0.0,0.0,0.0,0.0,-0.0202,-0.0656,-0.2418,-0.3673,-0.457,-0.6331,-0.7391,-0.7842,-0.7842,-0.7942,-0.7988,-0.7988,-0.7988,-0.7988,0.0,0.0,0.0,0.0,0.0,0.0,0.0,0.0,0.0,0.0,0.0,0.0,0.0,0.0,0.0,0.0,0.0,0.0,0.0,-0.1345,-0.2084,-0.2017,-0.3383,-0.4836,-0.6374,-0.6883,-0.7674,-0.8891,-0.9452,-0.8894,-0.7336,-0.7216,-0.5787,-0.3153,-0.2772,-0.1765,-0.0336,-0.011,0.0,0.0,0.0,0.0,0.0,0.0,-0.0336,-0.0841,-0.0897,-0.0887,-0.0927,-0.118,-0.1896,-0.2736,-0.299,-0.3823,-0.4724,-0.4724,-0.5479,-0.6334,-0.6334,-0.7232,-0.8207,-0.8207,-0.8315,0.0,0.0,-0.8737,-0.872,-0.9069,-0.9242,-0.9198,-0.8932,-0.9229,-0.938,-0.8962,-0.9062,-0.9103,-0.8902,-0.8881,-0.8881,-0.8875,-0.9055,-0.9258,-0.9347,-0.9364,-0.9371,-0.9371,-0.9074,-0.8199,-0.6586,-0.5091,-0.3526,-0.1863,-0.0692,-0.0052,0.0,0.0,0.0,0.0,0.0,0.0,0.0,-0.0051,-0.0656,-0.1664,-0.2771,-0.4026,-0.5279,-0.6389,-0.7144,-0.7596,-0.7596,-0.7793,-0.7988,-0.7988,-0.7988,-0.7988,0.0,0.0,0.0,0.0,0.0,0.0,0.0,0.0,0.0,0.0,0.0,0.0,0.0,0.0,0.0,0.0,0.0,0.0,0.0,-0.1345,-0.1614,-0.0606,-0.2944,-0.4044,-0.3594,-0.6001,-0.6962,-0.6352,-0.7811,-0.775,-0.627,-0.4995,-0.3909,-0.2914,-0.1563,-0.0662,-0.0112,-0.0055,0.0,0.0,0.0,0.0,0.0,0.0,-0.0112,-0.028,-0.0449,-0.0555,-0.06,-0.0912,-0.1159,-0.1345,-0.1371,-0.2267,-0.3321,-0.3321,-0.4225,-0.5227,-0.5227,-0.6052,-0.6888,-0.6888,-0.7493,-0.8078,0.0,0.0,0.0,-0.816,-0.817,-0.8221,-0.8517,-0.869,-0.8878,-0.91,-0.9187,-0.9043,-0.8673,-0.8768,-0.8786,-0.8516,-0.8738,-0.9011,-0.9049,-0.9147,-0.9268,-0.9268,-0.8828,-0.8001,-0.6578,0.0,-0.4311,-0.1862,-0.1489,-0.0889,0.0,0.0,0.0,0.0,0.0,0.0,-0.0051,-0.0807,-0.1361,-0.1714,-0.3575,-0.468,-0.5279,-0.6584,-0.7191,-0.7341,-0.7743,-0.7942,-0.7988,-0.7988,-0.7988,-0.7988,0.0,0.0,0.0,0.0,0.0,0.0,0.0,0.0,0.0,0.0,0.0,0.0,0.0,0.0,0.0,0.0,0.0,0.0,0.0,-0.074,-0.0807,-0.0067,-0.1545,-0.2402,-0.2302,-0.4425,-0.5433,-0.5165,-0.6467,-0.6271,-0.4761,-0.3716,-0.2693,-0.18,-0.083,-0.0274,0.0,0.0,0.0,0.0,0.0,0.0,0.0,0.0,0.0,0.0,-0.0168,-0.0223,-0.0276,-0.0592,-0.0636,-0.0628,-0.0764,-0.1312,-0.1916,-0.1916,-0.2869,-0.3922,-0.3922,-0.4724,-0.5527,-0.5527,-0.5871,-0.6246,-0.6401,-0.6638,-0.6942,0.0,-0.752,-0.7905,0.0,-0.8104,-0.8307,-0.8611,-0.8624,-0.8562,-0.8322,-0.8543,-0.8627,-0.8436,-0.8666,-0.8885,-0.8885,-0.9011,-0.9059,-0.9059,-0.8814,-0.8242,0.0,-0.6357,-0.5132,-0.3349,-0.2268,-0.1401,-0.0707,-0.0252,0.0,0.0,0.0,0.0,-0.0051,-0.111,-0.1865,-0.2368,-0.4079,-0.5133,-0.5782,-0.6534,-0.6939,-0.7092,-0.749,-0.7637,-0.7686,-0.7789,-0.7892,-0.7988,0.0,0.0,0.0,0.0,0.0,0.0,0.0,0.0,0.0,0.0,0.0,0.0,0.0,0.0,0.0,0.0,0.0,0.0,0.0,0.0,0.0,0.0,0.0,-0.0535,-0.1716,-0.267,-0.3529,-0.4316,-0.5008,-0.4552,-0.3057,-0.2763,-0.1866,-0.0516,-0.0382,-0.0217,0.0,0.0,0.0,0.0,0.0,0.0,0.0,0.0,0.0,0.0,0.0,0.0,-0.0056,-0.0271,-0.0374,-0.0371,-0.0615,-0.0708,-0.0758,-0.0758,-0.1614,-0.2518,-0.2518,-0.332,-0.4119,-0.4119,-0.4017,-0.4001,-0.429,-0.5059,-0.5746,-0.5905,-0.6859,-0.7582,0.0,-0.7541,-0.7842,-0.7842,-0.7872,-0.7877,-0.7923,-0.8225,-0.8394,-0.8378,-0.8617,0.0,-0.8854,-0.8871,-0.8885,-0.8885,-0.8885,-0.866,0.0,0.0,-0.5999,-0.5208,-0.3135,-0.1951,-0.1815,-0.0757,-0.0202,-0.0202,-0.0051,-0.0051,-0.0252,-0.1311,-0.2418,-0.3475,-0.4531,-0.5536,-0.6387,-0.6437,-0.6589,-0.6892,-0.7089,-0.7188,-0.7238,-0.7494,-0.7743,-0.7939,0.0,0.0,0.0,0.0,0.0,0.0,0.0,0.0,0.0,0.0,0.0,0.0,0.0,0.0,0.0,0.0,0.0,0.0,0.0,0.0,0.0,0.0,0.0,-0.0134,-0.0335,-0.1945,-0.2234,-0.1194,-0.2807,-0.2871,-0.1354,-0.106,-0.0759,-0.0459,-0.0218,-0.0054,0.0,0.0,0.0,0.0,0.0,0.0,0.0,0.0,0.0,0.0,0.0,0.0,0.0,-0.0055,-0.0054,-0.0053,-0.0104,-0.0307,-0.0455,-0.0455,-0.0808,-0.1161,-0.1161,-0.1915,-0.2766,-0.2766,-0.3218,-0.3676,-0.3751,-0.3709,-0.3965,-0.4829,-0.5211,-0.5674,-0.6706,0.0,-0.7568,-0.7568,-0.7753,-0.7756,-0.7405,-0.7699,-0.7945,-0.7783,-0.8142,-0.8483,-0.8696,-0.8811,-0.8885,-0.8885,-0.8885,-0.866,-0.8045,0.0,-0.6861,0.0,-0.4696,0.0,0.0,0.0,-0.1311,-0.1311,-0.0404,-0.0454,-0.1361,-0.2418,-0.3525,-0.4582,-0.5634,-0.6237,-0.6437,-0.6639,-0.6892,-0.7089,-0.6942,-0.6992,-0.7238,-0.7494,-0.7646,-0.7693,0.0136,0.0,0.0,0.0,0.0,0.0,0.0,0.0,0.0,0.0,0.0,0.0,0.0,0.0,0.0,0.0,0.0,0.0,0.0,0.0,0.0,0.0,0.0,0.0,0.0,-0.0998,-0.1168,-0.037,-0.1324,-0.1421,-0.064,-0.0352,-0.0232,-0.0227,-0.0055,0.0,0.0,0.0,0.0,0.0,0.0,0.0,0.0,0.0,0.0,0.0,0.0,0.0,0.0,0.0,0.0,0.0,0.0,-0.0103,-0.0202,-0.0202,-0.0404,-0.0606,-0.0606,-0.0959,-0.1361,-0.1361,-0.1562,-0.1713,-0.1713,-0.2065,-0.2519,-0.3022,-0.3575,-0.4331,-0.5536,-0.6385,0.0,-0.7021,-0.7134,-0.7162,-0.7009,-0.7434,-0.7689,-0.7538,-0.8075,-0.8524,-0.8596,-0.8783,-0.8885,-0.8885,-0.8885,-0.866,-0.8045,0.0,-0.735,0.0,0.0,0.0,-0.4029,0.0,0.0,-0.2418,-0.1361,-0.1412,-0.2469,-0.3525,-0.4331,-0.4885,-0.5937,-0.6387,-0.6387,-0.6539,-0.6689,-0.6786,-0.6639,-0.6689,-0.6836,-0.7092,-0.7194,-0.7244,0.0675,0.0202,0.0,0.0,0.0,0.0,0.0,0.0,0.0,0.0,0.0,0.0,0.0,0.0,0.0,0.0,0.0,0.0,0.0,0.0,0.0,0.0,0.0,0.0,0.0,-0.0263,-0.0385,-0.0306,-0.0374,-0.0368,-0.0292,-0.0117,0.0,0.0,0.0,0.0,0.0,0.0,0.0,0.0,0.0,0.0,0.0,0.0,0.0,0.0,0.0,0.0,0.0,0.0,0.0,0.0,0.0,0.0,0.0,0.0,-0.0152,-0.0303,-0.0303,-0.0303,-0.0303,-0.0303,-0.0152,0.0,0.0,-0.0656,-0.1311,-0.1563,-0.2469,-0.3475,-0.428,-0.5131,0.0,0.0,-0.588,-0.6019,-0.6349,-0.6744,-0.7115,-0.7321,-0.7974,-0.8404,-0.833,-0.8649,-0.8834,-0.8779,-0.8809,-0.8589,-0.8002,-0.7847,-0.7514,0.0,0.0,-0.5288,-0.5166,0.0,-0.272,-0.3525,-0.2469,-0.2519,-0.3575,-0.4431,-0.4935,-0.5186,-0.6037,-0.6387,-0.6387,-0.6387,-0.6387,-0.6387,-0.6387,-0.6387,-0.6437,-0.6692,-0.6795,-0.6892,0.1913,0.0882,0.0,0.0,0.0,0.0,0.0,0.0,0.0,0.0,0.0,0.0,0.0,0.0,0.0,0.0,0.0,0.0,0.0,0.0,0.0,0.0,0.0,0.0,0.0,0.0,-0.0065,-0.0064,-0.0063,-0.0062,-0.0061,0.0,0.0,0.0,0.0,0.0,0.0,0.0,0.0,0.0,0.0,0.0,0.0,0.0,0.0,0.0,0.0,0.0,0.0,0.0,0.0,0.0,0.0,0.0,0.0,0.0,0.0,-0.0051,-0.0051,-0.0051,-0.0051,-0.0051,0.0,0.0,0.0,-0.0101,-0.0404,-0.1412,-0.2469,-0.3224,-0.3324,-0.3425,-0.3527,0.0,-0.3633,-0.4012,-0.4869,-0.5131,-0.5705,-0.6967,-0.7434,-0.7641,-0.7781,-0.8334,-0.8625,-0.8358,-0.8472,-0.8375,-0.7922,-0.7633,-0.7246,-0.6806,-0.6578,-0.6457,-0.6449,-0.5128,-0.4533,-0.4634,-0.3575,-0.3626,-0.4634,-0.4734,-0.5334,-0.6237,-0.6337,-0.6387,-0.6387,-0.6387,-0.6387,-0.6387,-0.6387,-0.6387,-0.6437,-0.6692,-0.6795,-0.6895,0.2302,0.0945,0.0,0.0,0.0,0.0,0.0,0.0,0.0,0.0,0.0,0.0,0.0,0.0,0.0,0.0,0.0,0.0,0.0,0.0,0.0,0.0,0.0,0.0,0.0,0.0,0.0,0.0,0.0,0.0,0.0,0.0,0.0,0.0,0.0,0.0,0.0,0.0,0.0,0.0,0.0,0.0,0.0,0.0,0.0,0.0,0.0,0.0,0.0,0.0,0.0,0.0,0.0,0.0,0.0,0.0,0.0,0.0,0.0,0.0,0.0,0.0,0.0,0.0,0.0,0.0,-0.0101,-0.0555,-0.1513,-0.2217,-0.2217,-0.2771,-0.3224,-0.3224,-0.3243,-0.3401,-0.3781,-0.3999,-0.4356,-0.4822,-0.5876,-0.6531,-0.645,-0.7537,-0.8135,-0.7949,-0.8304,-0.8352,-0.7968,-0.7617,0.0,-0.6806,0.0,-0.6584,-0.646,-0.5356,-0.5135,-0.5734,-0.4682,-0.4732,-0.5734,-0.5734,-0.5634,-0.5486,-0.6134,-0.5682,-0.4529,-0.5183,-0.5436,-0.5436,-0.5436,-0.5834,-0.6437,-0.6539,-0.6539,-0.6589,0.2955,0.1277,0.0,0.0,0.0,0.0,0.0,0.0,0.0,0.0,0.0,0.0,0.0,0.0,0.0,0.0,0.0,0.0,0.0,0.0,0.0,0.0,0.0,0.0,0.0,0.0,0.0,0.0,0.0,0.0,0.0,0.0,0.0,0.0,0.0,0.0,0.0,0.0,0.0,0.0,0.0,0.0,0.0,0.0,0.0,0.0,0.0,0.0,0.0,0.0,0.0,0.0,0.0,0.0,0.0,0.0,0.0,0.0,0.0,0.0,0.0,0.0,0.0,0.0,0.0,0.0,0.0,0.0,-0.0606,-0.111,-0.111,-0.1765,-0.2267,-0.2267,0.0,-0.2368,-0.267,-0.2869,-0.31,-0.3337,-0.4442,-0.5281,-0.5364,-0.6523,-0.7367,-0.7494,-0.7905,-0.8016,-0.7762,0.0,0.0,0.0,0.0,0.0,-0.6441,-0.5651,-0.5634,-0.6387,-0.5636,-0.5684,-0.6387,-0.6387,-0.5984,-0.5336,-0.6087,-0.5381,-0.3726,-0.4481,-0.4634,-0.4381,-0.4684,-0.5286,-0.5984,-0.6284,-0.6387,-0.6437,0.4293,0.1948,0.0,0.0,0.0,0.0,0.0,0.0,0.0,0.0,0.0,0.0,0.0,0.0,0.0,0.0,0.0,0.0,0.0,0.0,0.0,0.0,0.0,0.0,0.0,0.0,0.0,0.0,0.0,0.0,0.0,0.0,0.0,0.0,0.0,0.0,0.0,0.0,0.0,0.0,0.0,0.0,0.0,0.0,0.0,0.0,0.0,0.0,0.0,0.0,0.0,0.0,0.0,0.0,0.0,0.0,0.0,0.0,0.0,0.0,0.0,0.0,0.0,0.0,0.0,0.0,0.0,0.0,0.0,0.0,0.0,-0.0051,-0.0051,-0.0051,0.0,-0.0404,-0.1462,-0.1613,-0.2017,-0.3075,-0.3473,-0.3925,-0.4738,-0.5475,-0.6256,-0.7041,-0.7154,-0.7171,0.0,0.0,0.0,-0.663,-0.6622,0.0,-0.6616,-0.6446,-0.6387,-0.6387,-0.6387,-0.6387,-0.6387,-0.6387,-0.6387,-0.6387,-0.6387,-0.5787,-0.4784,-0.4784,-0.418,-0.3324,-0.4381,-0.4784,-0.4935,-0.5987,-0.6387,-0.6487,0.3157,0.2083,0.1143,0.0135,0.0,0.0,0.0,0.0,0.0,0.0,0.0,0.0,0.0,0.0,0.0,0.0,0.0,0.0,0.0,0.0,0.0,0.0,0.0,0.0,0.0,0.0,0.0,0.0,0.0,0.0,0.0,0.0,0.0,0.0,0.0,0.0,0.0,0.0,0.0,0.0,0.0,0.0,0.0,0.0,0.0,0.0,0.0,0.0,0.0,0.0,0.0,0.0,0.0,0.0,0.0,0.0,0.0,0.0,0.0,0.0,0.0,0.0,0.0,0.0,0.0,0.0,0.0,0.0,0.0,0.0,0.0,0.0,0.0,0.0,0.0,0.0,-0.0454,-0.0505,-0.0659,-0.0975,-0.1727,-0.2329,-0.2615,-0.3556,-0.4599,-0.5583,-0.5782,0.0,0.0,0.0,0.0,0.0,-0.6487,0.0,-0.6443,-0.6406,-0.6387,-0.6387,-0.6387,-0.6037,-0.5334,-0.6084,-0.5582,-0.4277,-0.4983,-0.4279,-0.262,-0.262,-0.2418,-0.2217,-0.3274,-0.418,-0.4935,-0.5987,-0.6539,-0.6692,0.2554,0.1681,0.1009,0.0135,0.0,0.0,0.0,0.0,0.0,0.0,0.0,0.0,0.0,0.0,0.0,0.0,0.0,0.0,0.0,0.0,0.0,0.0,0.0,0.0,0.0,0.0,0.0,0.0,0.0,0.0,0.0,0.0,0.0,0.0,0.0,0.0,0.0,0.0,0.0,0.0,0.0,0.0,0.0,0.0,0.0,0.0,0.0,0.0,0.0,0.0,0.0,0.0,0.0,0.0,0.0,0.0,0.0,0.0,0.0,0.0,0.0,0.0,0.0,0.0,0.0,0.0,0.0,0.0,0.0,0.0,0.0,0.0,0.0,0.0,0.0,0.0,0.0,0.0,0.0,0.0,-0.061,-0.1165,0.0,-0.2306,-0.3174,-0.4247,-0.4761,0.0,0.0,0.0,0.0,-0.65,-0.6425,0.0,-0.6387,-0.6387,-0.6387,-0.6387,-0.6387,-0.6034,-0.5434,-0.5684,-0.5081,-0.3827,-0.4078,-0.3224,-0.1613,-0.1613,-0.1361,-0.116,-0.262,-0.3626,-0.4381,-0.5834,-0.6489,-0.6642,0.2419,0.1143,0.0269,0.0,0.0269,0.0,0.0269,0.0202,0.0135,0.0135,0.0067,0.0,0.0,0.0,0.0,0.0,0.0,0.0,0.0,0.0,0.0,0.0,0.0,0.0067,0.0134,0.0131,0.0129,0.0129,0.0063,0.0,0.0,0.0,0.0,0.0,0.0,0.0,0.0,0.0,0.0,0.0,0.0,0.0,0.0,0.0,0.0,0.0,0.0,0.0,0.0,0.0,0.0,0.0,0.0,0.0,0.0,0.0,0.0,0.0,0.0,0.0,0.0,0.0,0.0,0.0,0.0,0.0,0.0,0.0,0.0,0.0,0.0,0.0,0.0,0.0,0.0,0.0,0.0,0.0,0.0,0.0,0.0,0.0,-0.1412,-0.1513,-0.1917,0.0,-0.4083,0.0,0.0,0.0,-0.6554,-0.6389,-0.6387,-0.6387,-0.6387,-0.6387,-0.6387,-0.6387,-0.6387,-0.6337,-0.6134,-0.5236,-0.4734,-0.4533,-0.3525,-0.2519,-0.1613,-0.1513,-0.0908,-0.0202,-0.2368,-0.3224,-0.3475,-0.5632,-0.6437,-0.6487,0.0,0.0,0.3289,0.3289,0.3289,0.3289,0.3289,0.2351,0.1614,0.1614,0.0673,0.0,0.0,0.0,0.0,0.0,0.0,0.0,0.0,0.0,0.0,0.0,0.0,0.0536,0.1588,0.156,0.153,0.1496,0.0495,0.0,0.0,0.0,0.0,0.0,0.0,0.0,0.0,0.0,0.0,0.0,0.0,0.0,0.0,0.0,0.0,0.0,0.0,0.0,0.0,0.0,0.0,0.0,0.0,0.0,0.0,0.0,0.0,0.0,0.0,0.0,0.0,0.0,0.0,0.0,0.0,0.0,0.0,0.0,0.0,0.0,0.0,0.0,0.0,0.0,0.0,0.0,0.0,0.0,0.0,0.0,0.0,-0.0101,-0.0353,-0.0404,-0.0863,0.0,0.0,-0.4001,-0.4928,-0.5903,-0.6416,-0.6387,-0.6387,-0.6387,-0.6387,-0.6387,-0.6387,-0.6387,-0.6387,-0.5532,-0.3977,-0.4531,-0.3929,-0.2368,-0.2066,-0.1815,-0.1513,-0.0707,-0.0252,-0.0202,-0.2368,-0.3224,-0.3475,-0.5632,-0.6539,-0.6692,0.3558,0.3758,0.4293,0.4293,0.4293,0.4293,0.4293,0.3624,0.3089,0.3089,0.2418,0.1948,0.1948,0.1345,0.121,0.1881,0.074,0.0,0.0,0.0606,0.0942,0.0942,0.1613,0.2342,0.312,0.2993,0.2666,0.1973,0.0679,0.0,0.0,0.0,0.0,0.0,0.0,0.0,0.0,0.0,0.0,0.0,0.0,0.0,0.0,0.0,0.0,0.0,0.0,0.0,0.0,0.0,0.0,0.0,0.0,0.0,0.0,0.0,0.0,0.0,0.0,0.0,0.0,0.0,0.0,0.0,0.0,0.0,0.0,0.0,0.0,0.0,0.0,0.0,0.0,0.0,0.0,0.0,0.0,0.0,0.0,0.0,0.0,0.0,0.0,0.0,-0.0254,-0.0921,-0.1926,0.0,-0.342,-0.4401,-0.5181,-0.5634,-0.6134,-0.6187,-0.5684,-0.6137,-0.6387,-0.6387,-0.6387,-0.5534,-0.3927,-0.4029,-0.3173,-0.1563,-0.1059,-0.0858,-0.0807,-0.0252,0.0,-0.0151,-0.1815,-0.2771,-0.3425,-0.5081,-0.6087,-0.6639,0.483,0.4629,0.4696,0.4897,0.4962,0.4962,0.4962,0.4763,0.4629,0.4629,0.4427,0.4293,0.4293,0.3156,0.2955,0.416,0.2083,0.0673,0.0673,0.1747,0.2419,0.2419,0.3624,0.4428,0.4629,0.4504,0.381,0.2597,0.105,0.0309,0.0309,0.0123,0.0,0.0,0.0,0.0,0.0,0.0,0.0,0.0,0.0,0.0,0.0,0.0,0.0,0.0,0.0,0.0,0.0,0.0,0.0,0.0,0.0,0.0,0.0,0.0,0.0,0.0,0.0,0.0,0.0,0.0,0.0,0.0,0.0,0.0,0.0,0.0,0.0,0.0,0.0,0.0,0.0,0.0,0.0,0.0,0.0,0.0,0.0,0.0,0.0,0.0,0.0,0.0,0.0,0.0,-0.1009,-0.1613,-0.1613,-0.262,-0.3525,-0.428,-0.5384,-0.5534,-0.4784,-0.5687,-0.6237,-0.6387,-0.6387,-0.5734,-0.4533,-0.3626,-0.2519,-0.1311,-0.0404,0.0,0.0,0.0,0.0,-0.0101,-0.116,-0.2167,-0.3073,-0.418,-0.5233,-0.6137,0.6107,0.6107,0.6441,0.7715,0.7915,0.7915,0.7915,0.6842,0.6107,0.6107,0.5031,0.4293,0.4293,0.4093,0.4026,0.4293,0.3892,0.3624,0.3624,0.3825,0.3959,0.3959,0.4159,0.483,0.604,0.6003,0.5801,0.5451,0.2913,0.1665,0.1665,0.0555,0.0,0.0,0.0,0.0,0.0,0.0,0.0,0.0,0.0,0.0,0.0,0.0,0.0,0.0,0.0,0.0,0.0,0.0,0.0,0.0,0.0,0.0,0.0,0.0,0.0,0.0,0.0,0.0,0.0,0.0,0.0,0.0,0.0,0.0,0.0,0.0,0.0,0.0,0.0,0.0,0.0,0.0,0.0,0.0,0.0,0.0,0.0,0.0,0.0,0.0,0.0,0.0,0.0,0.0,-0.1009,-0.1613,-0.1613,-0.262,-0.2871,-0.2116,-0.3122,-0.4028,-0.4784,-0.4985,-0.5484,-0.6387,-0.6387,-0.5381,-0.3425,-0.3274,-0.2116,-0.0252,-0.0051,0.0,0.0,0.0,0.0,-0.0101,-0.116,-0.1714,-0.1966,-0.3073,-0.413,-0.5035,0.7648,0.7581,0.7781,0.8454,0.8587,0.8587,0.8587,0.8051,0.7581,0.7581,0.7042,0.664,0.664,0.5902,0.5769,0.6571,0.5902,0.5769,0.6571,0.5902,0.5434,0.5434,0.6172,0.6885,0.7436,0.6694,0.6252,0.6095,0.4028,0.2648,0.1973,0.1357,0.0679,0.0,0.0,0.0,0.0,0.0,0.0,0.0,0.0,0.0,0.0,0.0,0.0,0.0,0.0,0.0,0.0,0.0,0.0,0.0,0.0,0.0,0.0,0.0,0.0,0.0,0.0,0.0,0.0,0.0,0.0,0.0,0.0,0.0,0.0,0.0,0.0,0.0,0.0,0.0,0.0,0.0,0.0,0.0,0.0,0.0,0.0,0.0,0.0,0.0,0.0,0.0,0.0,0.0,-0.0454,-0.0757,-0.0757,-0.121,-0.1261,-0.0757,-0.1765,-0.2871,-0.3927,-0.3927,-0.4479,-0.5536,-0.4931,-0.4176,-0.3173,-0.262,-0.1462,0.0,0.0,0.0,0.0,0.0,0.0,-0.0051,-0.0555,-0.111,-0.1664,-0.2167,-0.3022,-0.4029,0.8787,0.8653,0.8587,0.8587,0.8587,0.8587,0.8587,0.8587,0.8587,0.8587,0.8587,0.8587,0.8587,0.7581,0.7381,0.852,0.7581,0.7381,0.852,0.7514,0.6911,0.6911,0.7984,0.8546,0.8459,0.7358,0.6734,0.6571,0.5105,0.3889,0.2896,0.2588,0.191,0.0863,0.0617,0.0494,0.0432,0.0123,0.0,0.0,0.0,0.0,0.0,0.0,0.0,0.0,0.0,0.0,0.0,0.0,0.0,0.0,0.0,0.0,0.0,0.0,0.0,0.0,0.0,0.0,0.0,0.0,0.0,0.0,0.0,0.0,0.0,0.0,0.0,0.0,0.0,0.0,0.0,0.0,0.0,0.0,0.0,0.0,0.0,0.0,0.0,0.0,0.0,0.0,0.0,0.0,0.0,0.0,0.0,0.0,0.0,0.0,-0.0807,-0.1865,-0.3173,-0.2972,-0.3475,-0.4784,-0.3726,-0.3073,-0.2821,-0.1966,-0.1009,0.0,0.0,0.0,0.0,0.0,0.0,0.0,0.0,-0.0505,-0.121,-0.121,-0.1915,-0.2922,0.905,0.8787,0.8587,0.8587,0.8587,0.8587,0.8587,0.8587,0.8587,0.8587,0.8587,0.8587,0.8587,0.852,0.8454,0.8587,0.852,0.8454,0.8587,0.852,0.8454,0.8454,0.852,0.8584,0.8573,0.833,0.8148,0.8028,0.6638,0.5797,0.56,0.4369,0.3692,0.3569,0.2403,0.185,0.1788,0.0555,0.0,0.0,0.0,0.0,0.0,0.0,0.0,0.0,0.0,0.0,0.0,0.0,0.0,0.0,0.0,0.0,0.0,0.0,0.0,0.0,0.0,0.0,0.0,0.0,0.0,0.0,0.0,0.0,0.0,0.0,0.0,0.0,0.0,0.0,0.0,0.0,0.0,0.0,0.0,0.0,0.0,0.0,0.0,0.0,0.0,0.0,0.0,0.0,0.0,0.0,0.0,0.0,0.0,0.0,-0.0101,-0.111,-0.3173,-0.2217,-0.2771,-0.4784,-0.3726,-0.267,-0.1714,-0.1613,-0.1009,0.0,0.0,0.0,0.0,0.0,0.0,0.0,0.0,-0.0051,-0.0101,-0.0101,-0.0807,-0.1714,0.9183,0.8984,0.8851,0.8653,0.8587,0.8587,0.8587,0.8587,0.8587,0.8587,0.8587,0.8653,0.8917,0.8917,0.8987,0.9259,0.9259,0.9259,0.9259,0.9259,0.9059,0.8587,0.8587,0.8587,0.8587,0.8475,0.8359,0.8172,0.7602,0.6867,0.5906,0.5352,0.4676,0.3875,0.3384,0.271,0.1973,0.148,0.074,0.0,0.0,0.0,0.0,0.0,0.0,0.0,0.0,0.0,0.0,0.0,0.0,0.0,0.0,0.0,0.0,0.0,0.0,0.0,0.0,0.0,0.0,0.0,0.0,0.0,0.0,0.0,0.0,0.0,0.0,0.0,0.0,0.0,0.0,0.0,0.0,0.0,0.0,0.0,0.0,0.0,0.0,0.0,0.0,0.0,0.0,0.0,0.0,0.0,0.0,0.0,0.0,0.0,0.0,-0.0404,-0.121,-0.0807,-0.1361,-0.2821,-0.1714,-0.1361,-0.1563,-0.0908,-0.0404,0.0,0.0,0.0,0.0,0.0,0.0,0.0,0.0,0.0,0.0,0.0,-0.0252,-0.0707,0.9519,0.9386,0.9186,0.8787,0.8787,0.872,0.8587,0.8587,0.8587,0.8587,0.8587,0.872,0.905,0.9117,0.9253,0.9661,0.9728,0.9728,0.9728,0.9728,0.9392,0.8787,0.8787,0.872,0.8587,0.8511,0.8413,0.8293,0.8171,0.7609,0.6566,0.6535,0.6027,0.5165,0.4735,0.4062,0.3142,0.2342,0.148,0.0617,0.0185,0.0,0.0,0.0,0.0,0.0,0.0,0.0,0.0,0.0,0.0,0.0,0.0,0.0,0.0,0.0,0.0,0.0,0.0,0.0,0.0,0.0,0.0,0.0,0.0,0.0,0.0,0.0,0.0,0.0,0.0,0.0,0.0,0.0,0.0,0.0,0.0,0.0,0.0,0.0,0.0,0.0,0.0,0.0,0.0,0.0,0.0,0.0,0.0,0.0,0.0,0.0,0.0,0.0,0.0,0.0,-0.0555,-0.1563,-0.0505,-0.0404,-0.1059,-0.0353,0.0,0.0,0.0,0.0,0.0,0.0,0.0,0.0,0.0,0.0,0.0,0.0,0.0,-0.0101,1.0193,0.9927,0.9591,0.9183,0.9117,0.8984,0.8653,0.8587,0.8587,0.8587,0.8587,0.872,0.905,0.9117,0.9253,0.9661,0.9731,0.9731,0.9731,0.9728,0.9525,0.9117,0.9117,0.8917,0.8587,0.8587,0.8532,0.8418,0.8296,0.8171,0.8114,0.7991,0.7872,0.7872,0.6521,0.5906,0.5722,0.3142,0.2035,0.1912,0.0555,0.0,0.0,0.0,0.0,0.0,0.0,0.0,0.0,0.0,0.0,0.0,0.0,0.0,0.0,0.0,0.0,0.0,0.0,0.0,0.0,0.0,0.0,0.0,0.0,0.0,0.0,0.0,0.0,0.0,0.0,0.0,0.0,0.0,0.0,0.0,0.0,0.0,0.0,0.0,0.0,0.0,0.0,0.0,0.0,0.0,0.0,0.0,0.0,0.0,0.0,0.0,0.0,0.0,0.0,0.0,-0.0555,-0.1563,-0.0505,0.0,0.0,0.0,0.0,0.0,0.0,0.0,0.0,0.0,0.0,0.0,0.0,0.0,0.0,0.0,0.0,0.0,1.0256,1.0127,0.9924,0.9591,0.9319,0.905,0.8984,0.8984,0.8984,0.8984,0.9189,0.9525,0.9857,0.9854,0.9987,1.0389,1.0389,1.0389,1.0389,1.019,0.9857,0.9525,0.9253,0.8917,0.8587,0.8587,0.8532,0.8418,0.8296,0.8171,0.8114,0.7991,0.7872,0.7869,0.7503,0.6766,0.5845,0.5046,0.3694,0.1973,0.1542,0.0864,0.0,0.0,0.0,0.0,0.0,0.0,0.0,0.0,0.0,0.0,0.0,0.0,0.0,0.0,0.0,0.0,0.0,0.0,0.0,0.0,0.0,0.0,0.0,0.0,0.0,0.0,0.0,0.0,0.0,0.0,0.0,0.0,0.0,0.0,0.0,0.0,0.0,0.0,0.0,0.0,0.0,0.0,0.0,0.0,0.0,0.0,0.0,0.0,0.0,0.0,0.0,0.0,0.0,0.0,-0.0151,-0.0454,-0.0151,0.0,0.0,0.0,0.0,0.0,0.0,0.0,0.0,0.0,0.0,0.0,0.0,0.0,0.0,0.0,0.0,0.0,1.0455,1.0389,1.0256,0.9794,0.9591,0.9386,0.8984,0.912,0.9253,0.9117,0.9455,0.9861,1.0193,1.0193,1.0323,1.0654,1.0721,1.0721,1.0721,1.0522,1.019,0.9731,0.9458,0.912,0.8587,0.8587,0.8554,0.8484,0.8367,0.8244,0.8125,0.8,0.798,0.7872,0.7872,0.7441,0.6641,0.6151,0.4984,0.3449,0.2404,0.1542,0.074,0.0185,0.0,0.0,0.0,0.0,0.0,0.0,0.0,0.0,0.0,0.0,0.0,0.0,0.0,0.0,0.0,0.0,0.0,0.0,0.0,0.0,0.0,0.0,0.0,0.0,0.0,0.0,0.0,0.0,0.0,0.0,0.0,0.0,0.0,0.0,0.0,0.0,0.0,0.0,0.0,0.0,0.0,0.0,0.0,0.0,0.0,0.0,0.0,0.0,0.0,0.0,0.0,0.0,0.0,0.0,0.0,0.0,0.0,0.0,0.0,0.0,0.0,0.0,0.0,0.0,0.0,0.0,0.0,0.0,0.0,0.0,0.0,0.0,1.0721,1.0721,1.0522,0.9927,0.9994,0.9857,0.892,0.9325,0.9591,0.925,0.9525,0.9927,1.0193,1.0256,1.0389,1.0654,1.0721,1.0721,1.0721,1.0654,1.0389,0.9728,0.9661,0.9325,0.8587,0.8587,0.8587,0.8587,0.8473,0.8361,0.8186,0.8127,0.8067,0.7888,0.7888,0.788,0.7811,0.6582,0.6029,0.5661,0.3203,0.2096,0.185,0.0494,0.0,0.0,0.0,0.0,0.0,0.0,0.0,0.0,0.0,0.0,0.0,0.0,0.0,0.0,0.0,0.0,0.0,0.0,0.0,0.0,0.0,0.0,0.0,0.0,0.0,0.0,0.0,0.0,0.0,0.0,0.0,0.0,0.0,0.0,0.0,0.0,0.0,0.0,0.0,0.0,0.0,0.0,0.0,0.0,0.0,0.0,0.0,0.0,0.0,0.0,0.0,0.0,0.0,0.0,0.0,0.0,0.0,0.0,0.0,0.0,0.0,0.0,0.0,0.0,0.0,0.0,0.0,0.0,0.0,0.0,0.0,0.0,1.0721,1.0721,1.0654,1.0522,1.0323,1.0123,0.9857,0.999,1.0057,0.999,1.0256,1.0522,1.0588,1.0588,1.0588,1.0721,1.0721,1.0721,1.0721,1.0455,1.0123,0.9731,0.9389,0.9053,0.8587,0.8587,0.8587,0.8587,0.8473,0.8405,0.8375,0.8253,0.813,0.8075,0.8075,0.8023,0.7869,0.7564,0.6888,0.5784,0.4122,0.2895,0.185,0.0494,0.0,0.0,0.0,0.0,0.0,0.0,0.0,0.0,0.0,0.0,0.0,0.0,0.0,0.0,0.0,0.0,0.0,0.0,0.0,0.0,0.0,0.0,0.0,0.0,0.0,0.0,0.0,0.0,0.0,0.0,0.0,0.0,0.0,0.0,0.0,0.0,0.0,0.0,0.0,0.0,0.0,0.0,0.0,0.0,0.0,0.0,0.0,0.0,0.0,0.0,0.0,0.0,0.0,0.0,0.0,0.0,0.0,0.0,0.0,0.0,0.0,0.0,0.0,0.0,0.0,0.0,0.0,0.0,0.0,0.0,0.0,0.0,1.0721,1.0721,1.0654,1.0522,1.0455,1.0323,0.9994,1.0256,1.0389,1.0193,1.0522,1.0721,1.0721,1.0721,1.0721,1.0721,1.0721,1.0721,1.0721,1.0522,1.0256,0.9927,0.9591,0.9189,0.8851,0.8653,0.8587,0.8587,0.8527,0.8473,0.8416,0.8353,0.8258,0.8141,0.8141,0.8106,0.8043,0.8043,0.7635,0.6779,0.4788,0.353,0.271,0.074,0.0,0.0,0.0,0.0,0.0,0.0,0.0,0.0,0.0,0.0,0.0,0.0,0.0,0.0,0.0,0.0,0.0,0.0,0.0,0.0,0.0,0.0,0.0,0.0,0.0,0.0,0.0,0.0,0.0,0.0,0.0,0.0,0.0,0.0,0.0,0.0,0.0,0.0,0.0,0.0,0.0,0.0,0.0,0.0,0.0,0.0,0.0,0.0,0.0,0.0,0.0,0.0,0.0,0.0,0.0,0.0,0.0,0.0,0.0,0.0,0.0,0.0,0.0,0.0,0.0,0.0,0.0,0.0,0.0,0.0,0.0,0.0,1.0721,1.0721,1.0588,1.0323,1.0522,1.0522,0.9927,1.0323,1.0588,1.0326,1.0522,1.0721,1.0721,1.0721,1.0721,1.0721,1.0721,1.0721,1.0721,1.0721,1.0522,1.0193,0.9927,0.9591,0.9186,0.892,0.8723,0.8587,0.8587,0.8604,0.8511,0.8511,0.851,0.8394,0.8394,0.8383,0.8361,0.8361,0.8303,0.8019,0.5556,0.4319,0.3644,0.13,0.0186,0.0,0.0,0.0,0.0,0.0,0.0,0.0,0.0,0.0062,0.0062,0.0062,0.0123,0.0185,0.0121,0.006,0.006,0.0,0.0,0.0,0.0,0.0,0.0,0.0,0.0,0.0,0.0,0.0,0.0,0.0,0.0,0.0,0.0,0.0,0.0,0.0,0.0,0.0,0.0,0.0,0.0,0.0,0.0,0.0,0.0,0.0,0.0,0.0,0.0,0.0,0.0,0.0,0.0,0.0,0.0,0.0,0.0,0.0,0.0,0.0,0.0,0.0,0.0,0.0,0.0,0.0,0.0,0.0,0.0,0.0,0.0,0.0,1.0721,1.0721,1.0721,1.0654,1.0654,1.0654,1.0588,1.0654,1.0654,1.0654,1.0654,1.0721,1.0721,1.0721,1.0721,1.0721,1.0721,1.0721,1.0721,1.0721,1.0522,1.0193,1.0193,0.9994,0.9594,0.9594,0.9259,0.8587,0.8587,0.8712,0.9024,0.9024,0.9093,0.9299,0.9299,0.9233,0.9124,0.9124,0.8988,0.8591,0.7044,0.5461,0.389,0.2386,0.106,0.0,0.0,0.0,0.0,0.0,0.0,0.0,0.0,0.0185,0.0432,0.0432,0.0617,0.08,0.0485,0.0422,0.036,0.0059,0.0,0.0,0.0,0.0,0.0,0.0,0.0,0.0,0.0,0.0,0.0,0.0,0.0,0.0,0.0,0.0,0.0,0.0,0.0,0.0,0.0,0.0,0.0,0.0,0.0,0.0,0.0,0.0,0.0,0.0,0.0,0.0,0.0,0.0,0.0,0.0,0.0,0.0,0.0,0.0,0.0,0.0,0.0,0.0,0.0,0.0,0.0,0.0,0.0,0.0,0.0,0.0,0.0,0.0,1.0721,1.0721,1.0721,1.0721,1.0721,1.0721,1.0721,1.0721,1.0721,1.0721,1.0721,1.0721,1.0721,1.0721,1.0721,1.0721,1.0721,1.0721,1.0721,1.0721,1.0654,1.0522,1.0323,1.0123,0.9994,0.9794,0.9528,0.9192,0.9192,0.9189,0.9117,0.9322,0.9492,0.9638,0.9638,0.9605,0.9546,0.9546,0.9373,0.9042,0.7734,0.6541,0.5283,0.3208,0.1872,0.1049,0.0247,0.0123,0.0309,0.0309,0.0432,0.0556,0.0556,0.0679,0.0803,0.0803,0.0864,0.0986,0.0796,0.0672,0.0487,0.03,0.0118,0.0,0.0,0.0114,0.0168,0.0056,0.0,0.0,0.0,0.0,0.0,0.0,0.0105,0.0207,0.0205,0.0356,0.0404,0.0253,0.0101,0.0,0.0,0.0,0.0,0.0,0.0,0.0,0.0,0.0,0.0,0.0,0.0,0.0,0.0,0.0,0.0,0.0,0.0,0.0,0.0,0.0,0.0,0.0,0.0,0.0,0.0,0.0,0.0,0.0,0.0,0.0,0.0,0.0,0.0,0.0]}]]